[[{"header":{"parameterUnit":"m.s-1","parameterCategory":1,"la1":30.6,"la2":28.766,"lo1":-90.7593,"lo2":-88.6598,"dy":0.0162,"dx":0.0183,"nx":116,"ny":114,"refTime":"2024-06-23T00:00:00:Z","depth":0,"parameterNumber":2,"parameterNumberName":"U-component_of_WINDS"},"data":[0.0,0.0,0.0,0.0,0.0,0.0,0.0,0.0,0.0,0.0,0.0,0.0,0.0,0.0,0.0,0.0,0.0,0.0,0.0,0.0,0.0,0.0,0.0,0.0,0.0,0.0,0.0,0.0,0.0,0.0,0.0,0.0,0.0,0.0,0.0,0.0,0.0,0.0,0.0,0.0,0.0,0.0,0.0,0.0,0.0,0.0,0.0,0.0,0.0,0.0,0.0,0.0,0.0,0.0,0.0,0.0,0.0,0.0,0.0,0.0,0.0,0.0,0.0,0.0,0.0,0.0,0.0,0.0,0.0,0.0,0.0,0.0,0.0,0.0,0.0,0.0,0.0,0.0,0.0,0.0,0.0,0.0,0.0,0.0,0.0,0.0,0.0,0.0,0.0,0.0,0.0,0.0,0.0,0.0,0.0,0.0,0.0,0.0,0.0,0.0,0.0,0.0,0.0,0.0,0.0,0.0,0.0,0.0,0.0,0.0,0.0,0.0,0.0,0.0,0.0,0.0,0.0,0.0,0.0,0.0,0.0,0.0,0.0,0.0,0.0,0.0,0.0,0.0,0.0,0.0,0.0,0.0,0.0,0.0,0.0,0.0,0.0,0.0,0.0,0.0,0.0,0.0,0.0,0.0,0.0,0.0,0.0,0.0,0.0,0.0,0.0,0.0,0.0,0.0,0.0,0.0,0.0,0.0,0.0,0.0,0.0,0.0,0.0,0.0,0.0,0.0,0.0,0.0,0.0,0.0,0.0,0.0,0.0,0.0,0.0,0.0,0.0,0.0,0.0,0.0,0.0,0.0,0.0,0.0,0.0,0.0,0.0,0.0,0.0,0.0,0.0,0.0,0.0,0.0,0.0,0.0,0.0,0.0,0.0,0.0,0.0,0.0,0.0,0.0,0.0,0.0,0.0,0.0,0.0,0.0,0.0,0.0,0.0,0.0,0.0,0.0,0.0,0.0,0.0,0.0,0.0,0.0,0.0,0.0,0.0,0.0,0.0,0.0,0.0,0.0,0.0,0.0,0.0,0.0,0.0,0.0,0.0,0.0,0.0,0.0,0.0,0.0,0.0,0.0,0.0,0.0,0.0,0.0,0.0,0.0,0.0,0.0,0.0,0.0,0.0,0.0,0.0,0.0,0.0,0.0,0.0,0.0,0.0,0.0,0.0,0.0,0.0,0.0,0.0,0.0,0.0,0.0,0.0,0.0,0.0,0.0,0.0,0.0,0.0,0.0,0.0,0.0,0.0,0.0,0.0,0.0,0.0,0.0,0.0,0.0,0.0,0.0,0.0,0.0,0.0,0.0,0.0,0.0,0.0,0.0,0.0,0.0,0.0,0.0,0.0,0.0,0.0,0.0,0.0,0.0,0.0,0.0,0.0,0.0,0.0,0.0,0.0,0.0,0.0,0.0,0.0,0.0,0.0,0.0,0.0,0.0,0.0,0.0,0.0,0.0,0.0,0.0,0.0,0.0,0.0,0.0,0.0,0.0,0.0,0.0,0.0,0.0,0.0,0.0,0.0,0.0,0.0,0.0,0.0,0.0,0.0,0.0,0.0,0.0,0.0,0.0,0.0,0.0,0.0,0.0,0.0,0.0,0.0,0.0,0.0,0.0,0.0,0.0,0.0,0.0,0.0,0.0,0.0,0.0,0.0,0.0,0.0,0.0,0.0,0.0,0.0,0.0,0.0,0.0,0.0,0.0,0.0,0.0,0.0,0.0,0.0,0.0,0.0,0.0,0.0,0.0,0.0,0.0,0.0,0.0,0.0,0.0,0.0,0.0,0.0,0.0,0.0,0.0,0.0,0.0,0.0,0.0,0.0,0.0,0.0,0.0,0.0,0.0,0.0,0.0,0.0,0.0,0.0,0.0,0.0,0.0,0.0,0.0,0.0,0.0,0.0,0.0,0.0,0.0,0.0,0.0,0.0,0.0,0.0,0.0,0.0,0.0,0.0,0.0,0.0,0.0,0.0,0.0,0.0,0.0,0.0,0.0,0.0,0.0,0.0,0.0,0.0,0.0,0.0,0.0,0.0,0.0,0.0,0.0,0.0,0.0,0.0,0.0,0.0,0.0,0.0,0.0,0.0,0.0,0.0,0.0,0.0,0.0,0.0,0.0,0.0,0.0,0.0,0.0,0.0,0.0,0.0,0.0,0.0,0.0,0.0,0.0,0.0,0.0,0.0,0.0,0.0,0.0,0.0,0.0,0.0,0.0,0.0,0.0,0.0,0.0,0.0,0.0,0.0,0.0,0.0,0.0,0.0,0.0,0.0,0.0,0.0,0.0,0.0,0.0,0.0,0.0,0.0,0.0,0.0,0.0,0.0,0.0,0.0,0.0,0.0,0.0,0.0,0.0,0.0,0.0,0.0,0.0,0.0,0.0,0.0,0.0,0.0,0.0,0.0,0.0,0.0,0.0,0.0,0.0,0.0,0.0,0.0,0.0,0.0,0.0,0.0,0.0,0.0,0.0,0.0,0.0,0.0,0.0,0.0,0.0,0.0,0.0,0.0,0.0,0.0,0.0,0.0,0.0,0.0,0.0,0.0,0.0,0.0,0.0,0.0,0.0,0.0,0.0,0.0,0.0,0.0,0.0,0.0,0.0,0.0,0.0,0.0,0.0,0.0,0.0,0.0,0.0,0.0,0.0,0.0,0.0,0.0,0.0,0.0,0.0,0.0,0.0,0.0,0.0,0.0,0.0,0.0,0.0,0.0,0.0,0.0,0.0,0.0,0.0,0.0,0.0,0.0,0.0,0.0,0.0,0.0,0.0,0.0,0.0,0.0,0.0,0.0,0.0,0.0,0.0,0.0,0.0,0.0,0.0,0.0,0.0,0.0,0.0,0.0,0.0,0.0,0.0,0.0,0.0,0.0,0.0,0.0,0.0,0.0,0.0,0.0,0.0,0.0,0.0,0.0,0.0,0.0,0.0,0.0,0.0,0.0,0.0,0.0,0.0,0.0,0.0,0.0,0.0,0.0,0.0,0.0,0.0,0.0,0.0,0.0,0.0,0.0,0.0,0.0,0.0,0.0,0.0,0.0,0.0,0.0,0.0,0.0,0.0,0.0,0.0,0.0,0.0,0.0,0.0,0.0,0.0,0.0,0.0,0.0,0.0,0.0,0.0,0.0,0.0,0.0,0.0,0.0,0.0,0.0,0.0,0.0,0.0,0.0,0.0,0.0,0.0,0.0,0.0,0.0,0.0,0.0,0.0,0.0,0.0,0.0,0.0,0.0,0.0,0.0,0.0,0.0,0.0,0.0,0.0,0.0,0.0,0.0,0.0,0.0,0.0,0.0,0.0,0.0,0.0,0.0,0.0,0.0,0.0,0.0,0.0,0.0,0.0,0.0,0.0,0.0,0.0,0.0,0.0,0.0,0.0,0.0,0.0,0.0,0.0,0.0,0.0,0.0,0.0,0.0,0.0,0.0,0.0,0.0,0.0,0.0,0.0,0.0,0.0,0.0,0.0,0.0,0.0,0.0,0.0,0.0,0.0,0.0,0.0,0.0,0.0,0.0,0.0,0.0,0.0,0.0,0.0,0.0,0.0,0.0,0.0,0.0,0.0,0.0,0.0,0.0,0.0,0.0,0.0,0.0,0.0,0.0,0.0,0.0,0.0,0.0,0.0,0.0,0.0,0.0,0.0,0.0,0.0,0.0,0.0,0.0,0.0,0.0,0.0,0.0,0.0,0.0,0.0,0.0,0.0,0.0,0.0,0.0,0.0,0.0,0.0,0.0,0.0,0.0,0.0,0.0,0.0,0.0,0.0,0.0,0.0,0.0,0.0,0.0,0.0,0.0,0.0,0.0,0.0,0.0,0.0,0.0,0.0,0.0,0.0,0.0,0.0,0.0,0.0,0.0,0.0,0.0,0.0,0.0,0.0,0.0,0.0,0.0,0.0,0.0,0.0,0.0,0.0,0.0,0.0,0.0,0.0,0.0,0.0,0.0,0.0,0.0,0.0,0.0,0.0,0.0,0.0,0.0,0.0,0.0,0.0,0.0,0.0,0.0,0.0,0.0,0.0,0.0,0.0,0.0,0.0,0.0,0.0,0.0,0.0,0.0,0.0,0.0,0.0,0.0,0.0,0.0,0.0,0.0,0.0,0.0,0.0,0.0,0.0,0.0,0.0,0.0,0.0,0.0,0.0,0.0,0.0,0.0,0.0,0.0,0.0,0.0,0.0,0.0,0.0,0.0,0.0,0.0,0.0,0.0,0.0,0.0,0.0,0.0,0.0,0.0,0.0,0.0,0.0,0.0,0.0,0.0,0.0,0.0,0.0,0.0,0.0,0.0,0.0,0.0,0.0,0.0,0.0,0.0,0.0,0.0,0.0,0.0,0.0,0.0,0.0,0.0,0.0,0.0,0.0,0.0,0.0,0.0,0.0,0.0,0.0,0.0,0.0,0.0,0.0,0.0,0.0,0.0,0.0,0.0,0.0,0.0,0.0,0.0,0.0,0.0,0.0,0.0,0.0,0.0,0.0,0.0,0.0,0.0,0.0,0.0,0.0,0.0,0.0,0.0,0.0,0.0,0.0,0.0,0.0,0.0,0.0,0.0,0.0,0.0,0.0,0.0,0.0,0.0,0.0,0.0,0.0,0.0,0.0,0.0,0.0,0.0,0.0,0.0,0.0,0.0,0.0,0.0,0.0,0.0,0.0,0.0,0.0,0.0,0.0,0.0,0.0,0.0,0.0,0.0,0.0,0.0,0.0,0.0,0.0,0.0,0.0,0.0,0.0,0.0,0.0,0.0,0.0,0.0,0.0,0.0,0.0,0.0,0.0,0.0,0.0,0.0,0.0,0.0,0.0,0.0,0.0,0.0,0.0,0.0,0.0,0.0,0.0,0.0,0.0,0.0,0.0,0.0,0.0,0.0,0.0,0.0,0.0,0.0,0.0,0.0,0.0,0.0,0.0,0.0,0.0,0.0,0.0,0.0,0.0,0.0,0.0,0.0,0.0,0.0,0.0,0.0,0.0,0.0,0.0,0.0,0.0,0.0,0.0,0.0,0.0,0.0,0.0,0.0,0.0,0.0,0.0,0.0,0.0,0.0,0.0,0.0,0.0,0.0,0.0,0.0,0.0,0.0,0.0,0.0,0.0,0.0,0.0,0.0,0.0,0.0,0.0,0.0,0.0,0.0,0.0,0.0,0.0,0.0,0.0,0.0,0.0,0.0,0.0,0.0,0.0,0.0,0.0,0.0,0.0,0.0,0.0,0.0,0.0,0.0,0.0,0.0,0.0,0.0,0.0,0.0,0.0,0.0,0.0,0.0,0.0,0.0,0.0,0.0,0.0,0.0,0.0,0.0,0.0,0.0,0.0,0.0,0.0,0.0,0.0,0.0,0.0,0.0,0.0,0.0,0.0,0.0,0.0,0.0,0.0,0.0,0.0,0.0,0.0,0.0,0.0,0.0,0.0,0.0,0.0,0.0,0.0,0.0,0.0,0.0,0.0,0.0,0.0,0.0,0.0,0.0,0.0,0.0,0.0,0.0,0.0,0.0,0.0,0.0,0.0,0.0,0.0,0.0,0.0,0.0,0.0,0.0,0.0,0.0,0.0,0.0,0.0,0.0,0.0,0.0,0.0,0.0,0.0,0.0,0.0,0.0,0.0,0.0,0.0,0.0,0.0,0.0,0.0,0.0,0.0,0.0,0.0,0.0,0.0,0.0,0.0,0.0,0.0,0.0,0.0,0.0,0.0,0.0,0.0,0.0,0.0,0.0,0.0,0.0,0.0,0.0,0.0,0.0,0.0,0.0,0.0,0.0,0.0,0.0,0.0,0.0,0.0,0.0,0.0,0.0,0.0,0.0,0.0,0.0,0.0,0.0,0.0,0.0,0.0,0.0,0.0,0.0,0.0,0.0,0.0,0.0,0.0,0.0,0.0,0.0,0.0,0.0,0.0,0.0,0.0,0.0,0.0,0.0,0.0,0.0,0.0,0.0,0.0,0.0,0.0,0.0,0.0,0.0,0.0,0.0,0.0,0.0,0.0,0.0,0.0,0.0,0.0,0.0,0.0,0.0,0.0,0.0,0.0,0.0,0.0,0.0,0.0,0.0,0.0,0.0,0.0,0.0,0.0,0.0,0.0,-0.2452,0.0,0.0,0.0,0.0,0.0,0.0,0.0,0.0,0.0,0.0,0.0,0.0,0.0,0.0,0.0,0.0,0.0,0.0,0.0,0.0,0.0,0.0,0.0,0.0,-0.654,-0.6366,-0.6272,-0.5929,-0.5652,-0.5528,0.0,0.0,0.0,0.0,0.0,-0.4706,-0.4567,-0.4457,-0.4338,-0.4207,-0.4198,-0.4329,-0.4353,-0.4215,-0.3924,0.0,0.0,0.0,0.0,0.0,0.0,0.0,0.0,0.0,0.0,0.0,0.0,0.0,0.0,0.0,0.0,0.0,0.0,0.0,0.0,0.0,0.0,0.0,0.0,0.0,0.0,0.0,0.0,0.0,0.0,0.0,0.0,0.0,0.0,0.0,0.0,0.0,0.0,0.0,0.0,0.0,0.0,0.0,0.0,0.0,0.0,0.0,0.0,0.0,0.0,0.0,0.0,0.0,0.0,0.0,0.0,0.0,0.0,0.0,0.0,0.0,0.0,0.0,0.0,0.0,0.0,0.0,0.0,0.0,0.0,0.0,-0.2008,0.0,0.0,0.0,0.0,0.0,0.0,0.0,0.0,0.0,0.0,0.0,0.0,0.0,0.0,0.0,0.0,0.0,0.0,0.0,0.0,0.0,-0.671,-0.6552,-0.6301,-0.6111,-0.6023,-0.5705,-0.5447,-0.5303,-0.5176,0.0,0.0,0.0,-0.4646,-0.4567,-0.4391,-0.4322,-0.4331,-0.4424,-0.4593,-0.481,-0.5132,-0.4978,0.0,-0.4422,0.0,0.0,0.0,0.0,0.0,0.0,0.0,0.0,0.0,0.0,0.0,0.0,0.0,0.0,0.0,0.0,0.0,0.0,0.0,0.0,0.0,0.0,0.0,0.0,0.0,0.0,0.0,0.0,0.0,0.0,0.0,0.0,0.0,0.0,0.0,0.0,0.0,0.0,0.0,0.0,0.0,0.0,0.0,0.0,0.0,0.0,0.0,0.0,0.0,0.0,0.0,0.0,0.0,0.0,0.0,0.0,0.0,0.0,0.0,0.0,0.0,0.0,0.0,-0.4311,-0.416,-0.3503,-0.2634,-0.1784,-0.1007,-0.034,-0.1412,-0.3507,-0.1003,0.0,0.0,0.0,0.0,0.0,0.0,0.0,0.0,0.0,0.0,0.0,0.0,0.0,0.0,0.0,0.0,0.0,0.0,0.0,-0.6289,-0.6254,-0.607,-0.6068,-0.6394,-0.5868,-0.5659,-0.6024,-0.5462,0.0,0.0,-0.4706,-0.4486,-0.4007,-0.426,-0.4272,-0.4063,-0.4522,-0.4799,-0.4876,-0.5067,0.0,-0.4582,-0.4453,-0.4092,0.0,0.0,0.0,0.0,0.0,0.0,0.0,0.0,0.0,0.0,0.0,0.0,0.0,0.0,0.0,0.0,0.0,0.0,0.0,0.0,0.0,0.0,0.0,0.0,0.0,0.0,0.0,0.0,0.0,0.0,0.0,0.0,0.0,0.0,0.0,0.0,0.0,0.0,0.0,0.0,0.0,0.0,-0.2852,-0.3012,0.0,0.0,0.0,0.0,0.0,0.0,0.0,0.0,0.0,0.0,0.0,0.0,0.0,-0.5077,-0.519,-0.4984,-0.4947,-0.5178,-0.4742,-0.4421,-0.4235,-0.1588,-0.0269,-0.0138,-0.0068,0.0,-0.0544,-0.0176,0.0,0.0,0.0,0.0,0.0,0.0,0.0,0.0,0.0,0.0,0.0,0.0,0.0,0.0,0.0,0.0,0.0,0.0,0.0,0.0,0.0,-0.6197,-0.6222,-0.6638,-0.6059,-0.5764,-0.5965,0.0,0.0,-0.4715,-0.4547,-0.4383,-0.4186,-0.4321,-0.4671,-0.5228,-0.5396,-0.5547,-0.5751,0.0,0.0,0.0,-0.4719,-0.4389,-0.3863,0.0,0.0,0.0,0.0,0.0,0.0,0.0,0.0,0.0,0.0,0.0,0.0,0.0,0.0,0.0,0.0,0.0,0.0,0.0,0.0,0.0,0.0,0.0,0.0,0.0,0.0,0.0,0.0,0.0,0.0,0.0,0.0,0.0,0.0,0.0,0.0,0.0,0.0,0.0,0.0,-0.2757,-0.3144,-0.3459,-0.3497,-0.3497,0.0,0.0,0.0,0.0,0.0,0.0,0.0,0.0,0.0,-0.442,-0.5069,-0.5375,-0.5415,-0.507,-0.5075,-0.5378,-0.3077,-0.1988,-0.1916,-0.0598,-0.0,-0.0,-0.0,-0.0,-0.0,-0.0,-0.0,-0.0,0.0,0.0,0.0,0.0,-0.0,-0.0,0.0,0.0,0.0,0.0,0.0,0.0,0.0,0.0,0.0,0.0,0.0,0.0,-0.6411,-0.6433,-0.6535,-0.68,-0.6302,0.0,0.0,0.0,-0.5107,-0.4897,-0.4591,-0.4425,-0.4394,-0.4629,-0.5277,-0.6418,-0.6211,0.0,0.0,0.0,0.0,0.0,0.0,0.0,0.0,0.0,0.0,0.0,0.0,0.0,0.0,0.0,0.0,0.0,0.0,0.0,0.0,0.0,0.0,0.0,0.0,0.0,0.0,0.0,0.0,0.0,0.0,0.0,0.0,0.0,0.0,0.0,0.0,0.0,0.0,0.0,0.0,0.0,0.0,0.0,0.0,0.0,0.0,0.0,0.0,-0.3117,-0.349,-0.3863,-0.3975,-0.4005,0.0,0.0,0.0,0.0,0.0,0.0,-0.3682,-0.4934,-0.5614,-0.5595,-0.5628,-0.5343,-0.4715,-0.4841,-0.5192,-0.5624,-0.1839,-0.0,-0.0,-0.0,-0.0,-0.0,-0.0,-0.0,-0.0,-0.0,-0.0,-0.0,-0.0,-0.0,-0.0,-0.0,-0.0,-0.0,0.0,0.0,0.0,0.0,0.0,0.0,0.0,0.0,0.0,0.0,0.0,-0.6202,-0.6202,0.0,-0.7024,0.0,0.0,0.0,0.0,0.0,-0.5254,-0.5369,-0.4981,-0.4656,-0.4401,-0.5222,-0.6086,0.0,0.0,0.0,0.0,0.0,0.0,0.0,0.0,0.0,0.0,0.0,0.0,0.0,0.0,0.0,0.0,0.0,0.0,0.0,0.0,0.0,0.0,0.0,0.0,0.0,0.0,0.0,0.0,0.0,0.0,0.0,0.0,0.0,0.0,0.0,0.0,0.0,0.0,0.0,0.0,0.0,0.0,0.0,0.0,0.0,0.0,0.0,0.0,0.0,0.0,0.0,0.0,-0.4153,-0.4473,0.0,0.0,0.0,0.0,-0.4733,-0.4887,-0.5151,-0.5522,-0.5974,-0.6004,-0.5431,-0.5986,-0.5151,-0.2896,-0.5046,-0.6219,-0.6235,-0.2013,-0.0,-0.0,-0.0,-0.0,-0.0,-0.0,-0.0,-0.0,-0.0,-0.0,-0.0,-0.0,-0.0,-0.0,-0.0,-0.0,-0.0,0.0,0.0,0.0,-0.7203,-0.7061,-0.6931,-0.674,-0.6638,-0.6453,-0.6052,-0.6228,-0.6382,0.0,-0.7025,-0.7473,0.0,0.0,0.0,0.0,0.0,-0.5316,-0.5268,-0.4971,-0.5122,-0.58,-0.6283,-0.6994,0.0,0.0,0.0,0.0,0.0,0.0,0.0,0.0,0.0,0.0,0.0,0.0,0.0,0.0,0.0,0.0,0.0,0.0,0.0,0.0,0.0,0.0,0.0,0.0,0.0,0.0,0.0,0.0,0.0,0.0,0.0,0.0,0.0,0.0,0.0,0.0,0.0,0.0,0.0,0.0,0.0,0.0,0.0,0.0,0.0,0.0,0.0,0.0,0.0,0.0,0.0,0.0,-0.4703,-0.4911,0.0,-0.5099,-0.5102,-0.5165,-0.54,-0.5494,-0.5737,-0.6214,-0.6276,-0.623,-0.6165,-0.6251,-0.5871,-0.5014,-0.3169,-0.2251,-0.2194,-0.0703,-0.0,-0.0,-0.0,-0.0,-0.0,-0.0,-0.0,-0.0,-0.0,-0.0,-0.0,-0.0,-0.0,-0.0,-0.0,-0.0,-0.0,-0.765,-0.753,0.0,-0.696,-0.6841,-0.6757,-0.6616,-0.6517,-0.6373,-0.6124,-0.6389,-0.6664,0.0,0.0,0.0,0.0,0.0,0.0,0.0,0.0,-0.5471,-0.5446,-0.5311,-0.5723,-0.6707,-0.7128,0.0,0.0,0.0,0.0,0.0,0.0,0.0,0.0,0.0,0.0,0.0,0.0,0.0,0.0,0.0,0.0,-0.2997,0.0,0.0,0.0,0.0,0.0,0.0,0.0,0.0,0.0,0.0,0.0,0.0,0.0,0.0,0.0,0.0,0.0,0.0,0.0,0.0,0.0,0.0,0.0,0.0,0.0,0.0,0.0,0.0,0.0,0.0,0.0,0.0,0.0,0.0,0.0,-0.4632,-0.5021,-0.5311,-0.5454,-0.5504,-0.5606,-0.5766,-0.601,-0.5959,-0.6113,-0.6542,-0.646,-0.6459,-0.6476,-0.6586,-0.5799,-0.4178,-0.1431,-0.0,-0.0,-0.0,-0.0,-0.0,-0.0,-0.0,-0.0,-0.0,-0.0,-0.0,-0.0,-0.0,-0.0,-0.0,-0.0,-0.0,-0.0,-0.0,-0.0,-0.7635,-0.7379,-0.713,-0.6927,-0.6723,-0.6599,-0.6599,-0.6371,-0.6269,-0.647,-0.6691,-0.7037,0.0,0.0,0.0,0.0,0.0,0.0,0.0,-0.6413,-0.574,-0.5913,-0.6045,-0.6424,-0.7047,0.0,0.0,0.0,0.0,0.0,0.0,0.0,0.0,0.0,0.0,0.0,0.0,0.0,0.0,0.0,0.0,0.0,-0.3561,0.0,0.0,0.0,0.0,0.0,0.0,0.0,0.0,0.0,0.0,0.0,0.0,0.0,0.0,0.0,0.0,0.0,0.0,0.0,0.0,0.0,0.0,0.0,0.0,0.0,0.0,0.0,0.0,0.0,0.0,0.0,0.0,0.0,-0.4244,-0.472,-0.5148,-0.5165,-0.5681,-0.5983,-0.5844,-0.6101,-0.6332,-0.6474,-0.6428,-0.6427,-0.6576,-0.6649,-0.6564,-0.6306,-0.6659,-0.464,-0.0,-0.0,-0.0,-0.0,-0.0,-0.0,-0.0,-0.0,-0.0,-0.0,-0.0,-0.0,-0.0,-0.0,-0.0,-0.0,-0.0,-0.0,-0.0,-0.0,-0.0,-0.0,-0.7363,-0.7128,-0.6927,-0.6723,-0.6633,-0.6599,-0.6599,-0.6535,-0.6505,-0.6502,-0.6837,0.0,0.0,0.0,0.0,0.0,0.0,-0.8053,-0.7638,-0.6285,-0.5685,-0.6102,-0.6749,0.0,-0.7989,0.0,0.0,0.0,0.0,0.0,0.0,0.0,0.0,0.0,0.0,0.0,0.0,0.0,0.0,0.0,0.0,0.0,-0.3877,0.0,0.0,0.0,0.0,0.0,0.0,0.0,0.0,0.0,0.0,0.0,0.0,0.0,0.0,0.0,0.0,0.0,0.0,0.0,0.0,0.0,0.0,0.0,0.0,0.0,0.0,0.0,0.0,0.0,0.0,0.0,-0.4629,-0.4935,-0.4833,-0.522,-0.5586,-0.5911,-0.6095,-0.6264,-0.6437,-0.6529,-0.6641,-0.6793,-0.6744,-0.6789,-0.6939,-0.7018,-0.6923,-0.6926,-0.3671,-0.1324,-0.0,-0.0,-0.0,-0.0,-0.0,-0.0,-0.0,-0.0,-0.0,-0.0,-0.0,-0.0,-0.0,-0.0,-0.0,-0.0,-0.0,-0.0,-0.0,-0.0,-0.0,-0.0,-0.7256,-0.7031,-0.6841,-0.6633,-0.6599,-0.6599,-0.6599,-0.6599,-0.6645,-0.678,-0.7035,0.0,0.0,0.0,0.0,0.0,0.0,-0.7808,-0.7198,-0.6256,-0.6047,-0.6707,0.0,0.0,0.0,0.0,0.0,0.0,0.0,0.0,0.0,0.0,0.0,0.0,0.0,0.0,0.0,0.0,0.0,0.0,0.0,0.0,-0.4189,-0.4039,-0.3788,-0.3564,-0.3456,-0.3364,-0.3317,-0.341,0.0,0.0,0.0,0.0,0.0,0.0,0.0,0.0,0.0,0.0,0.0,0.0,0.0,0.0,0.0,0.0,0.0,0.0,0.0,0.0,0.0,0.0,0.0,0.0,-0.5172,-0.5528,-0.5596,-0.5759,-0.5989,-0.6312,-0.6464,-0.6607,-0.678,-0.6909,-0.7017,-0.7109,-0.7082,-0.6835,-0.6256,-0.5968,-0.5251,-0.4197,-0.1439,-0.0,-0.0,-0.0,-0.0,-0.0,-0.0,-0.0,-0.0,-0.0,-0.0,-0.0,-0.0,-0.0,-0.0,-0.0,-0.0,0.0,0.0,0.0,0.0,0.0,-0.0,-0.0,-0.7256,-0.7029,-0.6807,-0.6633,-0.6599,-0.6599,-0.6599,-0.6582,-0.6716,-0.7147,0.0,0.0,0.0,0.0,0.0,0.0,0.0,-0.7295,0.0,0.0,0.0,-0.7527,-0.7816,0.0,0.0,0.0,0.0,0.0,0.0,0.0,0.0,0.0,0.0,0.0,0.0,0.0,0.0,0.0,0.0,0.0,0.0,0.0,-0.4501,-0.4321,-0.4137,-0.405,-0.3897,-0.3771,-0.3698,-0.3526,0.0,0.0,0.0,0.0,0.0,0.0,0.0,0.0,0.0,0.0,0.0,0.0,0.0,0.0,0.0,0.0,0.0,0.0,0.0,0.0,0.0,0.0,0.0,0.0,-0.5694,-0.6122,-0.6308,-0.6335,-0.6383,-0.6508,-0.6776,-0.6959,-0.6976,-0.7234,-0.7397,-0.7397,-0.7453,-0.6865,-0.5419,0.0,0.0,0.0,0.0,-0.0491,-0.0492,-0.02,-0.0,-0.0,-0.0,-0.0,-0.0,-0.0,-0.0,-0.0,-0.0,-0.0,-0.0,-0.0,-0.0,-0.0,-0.0,-0.0,-0.0,-0.0,-0.0384,-0.0864,-0.7211,-0.6914,-0.6651,-0.6599,-0.6599,-0.6599,-0.6599,-0.6418,-0.6505,-0.7124,-0.7012,0.0,0.0,0.0,0.0,0.0,0.0,0.0,0.0,0.0,-0.7887,0.0,0.0,0.0,0.0,0.0,0.0,0.0,0.0,0.0,0.0,0.0,0.0,0.0,0.0,0.0,0.0,0.0,0.0,0.0,0.0,0.0,-0.4515,-0.4433,-0.4402,-0.4358,-0.4212,-0.4216,-0.4355,-0.4519,-0.4483,-0.4373,-0.4341,0.0,0.0,0.0,0.0,0.0,0.0,0.0,0.0,0.0,0.0,0.0,0.0,0.0,0.0,0.0,0.0,0.0,0.0,0.0,0.0,-0.5762,-0.6057,-0.6352,-0.6746,-0.68,-0.681,-0.6837,-0.6993,-0.7146,-0.7275,-0.7451,-0.7556,-0.7556,-0.761,-0.7504,-0.7208,-0.7226,-0.6991,-0.6487,-0.4392,-0.3196,-0.3198,-0.1104,-0.0,-0.0,0.0,0.0,-0.0,-0.0,-0.0,-0.0,-0.0,-0.0,-0.0,-0.0,-0.0,-0.0,-0.0,-0.0,-0.0,-0.0,-0.2697,-0.6415,-0.7064,-0.6811,-0.6599,-0.6599,-0.6599,-0.6599,-0.6599,-0.6483,-0.6516,-0.6814,-0.6932,0.0,0.0,0.0,0.0,0.0,0.0,0.0,0.0,0.0,0.0,0.0,0.0,0.0,0.0,0.0,0.0,0.0,0.0,0.0,0.0,0.0,0.0,0.0,0.0,0.0,0.0,0.0,0.0,0.0,0.0,0.0,-0.5737,-0.5199,-0.5003,-0.4937,-0.4487,-0.4613,-0.5031,-0.5177,-0.4857,-0.4521,-0.4882,-0.4646,-0.4113,0.0,0.0,0.0,0.0,0.0,0.0,0.0,0.0,0.0,0.0,0.0,0.0,0.0,0.0,-0.4766,-0.5277,0.0,-0.5728,-0.6179,-0.6444,-0.6675,-0.6898,-0.699,-0.7061,-0.7143,-0.7214,-0.7316,-0.7472,-0.7617,-0.7706,-0.7706,-0.7754,-0.7841,-0.7841,-0.7922,-0.7969,-0.7982,-0.6748,-0.6039,-0.6042,-0.463,-0.3317,-0.2008,-0.2011,-0.2013,-0.2013,-0.2013,-0.2013,-0.2013,-0.2013,-0.2013,-0.2013,-0.2013,-0.2013,-0.2013,-0.2013,-0.2822,-0.3838,-0.2518,-0.3726,-0.6158,-0.698,-0.6774,-0.6599,-0.6599,-0.6599,-0.6599,-0.6599,-0.653,-0.6469,-0.6502,-0.676,-0.6937,-0.6966,-0.6963,-0.6995,0.0,0.0,0.0,0.0,0.0,0.0,0.0,0.0,0.0,0.0,0.0,0.0,0.0,0.0,0.0,0.0,0.0,0.0,0.0,0.0,0.0,0.0,0.0,0.0,0.0,0.0,0.0,-0.7238,-0.6377,-0.59,-0.5651,-0.5113,-0.5277,-0.5706,-0.5706,-0.5238,-0.476,-0.5387,-0.4897,-0.4091,-0.4153,-0.4025,0.0,0.0,0.0,0.0,0.0,0.0,0.0,0.0,0.0,-0.4535,-0.5043,-0.5226,-0.5433,-0.5854,-0.6034,-0.6213,-0.6512,-0.6766,-0.6939,-0.6966,-0.7068,-0.7197,-0.7353,-0.7397,-0.7475,-0.7628,-0.777,-0.7855,-0.7855,-0.797,-0.8038,-0.8038,-0.8038,-0.8048,-0.7965,-0.7965,-0.7972,-0.7979,-0.7985,-0.6959,-0.4822,-0.4822,-0.4824,-0.4824,-0.4824,-0.4824,-0.4824,-0.4824,-0.4824,-0.4824,-0.4824,-0.4824,-0.4824,-0.4822,-0.605,-0.7704,-0.5539,-0.4822,-0.5125,-0.7178,-0.6865,-0.6599,-0.6599,-0.6599,-0.6599,-0.6599,-0.6254,-0.6098,-0.6461,-0.618,-0.6084,-0.6436,-0.6484,-0.66,-0.6899,0.0,0.0,0.0,0.0,0.0,0.0,0.0,0.0,0.0,0.0,0.0,0.0,0.0,0.0,0.0,0.0,0.0,0.0,0.0,0.0,0.0,0.0,0.0,0.0,0.0,0.0,-0.8055,-0.7964,-0.7312,-0.648,-0.6372,-0.6426,-0.6475,-0.6475,-0.6411,-0.6338,-0.6445,-0.5857,-0.5259,-0.5899,0.0,-0.4767,-0.4746,-0.4368,-0.4033,-0.435,-0.4477,-0.4735,0.0,0.0,-0.5365,-0.5813,-0.5918,-0.6023,-0.6339,-0.641,-0.6522,-0.6827,-0.6905,-0.6973,-0.7099,-0.7129,-0.7197,-0.7353,-0.7492,-0.7631,-0.7773,-0.7926,-0.8014,-0.8014,-0.8028,-0.8038,-0.8038,-0.8038,-0.8041,-0.8041,-0.8041,-0.8045,-0.8045,-0.7965,-0.7872,-0.7563,-0.7572,-0.7578,-0.7578,-0.7578,-0.7578,-0.7578,-0.7578,-0.7578,-0.7578,-0.7578,-0.7578,-0.7575,-0.7566,-0.7769,-0.7979,-0.7679,-0.7572,-0.7563,-0.7048,-0.6794,-0.6599,-0.6599,-0.6599,-0.6535,-0.6388,-0.6213,-0.603,-0.5929,-0.5982,-0.6026,-0.6048,-0.6504,-0.6768,-0.6634,-0.6777,0.0,-0.8139,0.0,0.0,0.0,0.0,0.0,0.0,0.0,0.0,0.0,0.0,0.0,0.0,0.0,0.0,0.0,0.0,0.0,0.0,0.0,0.0,0.0,0.0,0.0,-0.9074,-0.8851,-0.8391,-0.7777,-0.6912,-0.6858,0.0,0.0,-0.6966,-0.6696,-0.7128,-0.6591,-0.5887,-0.6304,-0.5803,0.0,-0.4934,-0.4777,0.0,0.0,-0.5033,-0.5281,-0.5532,-0.5674,-0.583,-0.6105,-0.6302,-0.6485,-0.6698,-0.6736,-0.6807,0.0,-0.7126,-0.7207,-0.7268,-0.7275,-0.7333,-0.7485,-0.7482,-0.7556,-0.7787,-0.795,-0.8038,-0.8038,-0.8038,-0.8038,-0.8038,-0.8038,-0.8038,-0.8038,-0.8038,-0.8038,-0.8038,-0.8048,-0.7952,-0.7952,-0.7959,-0.7962,-0.7962,-0.7962,-0.7962,-0.7962,-0.7962,-0.7962,-0.7962,-0.7962,-0.7962,-0.7959,-0.7955,-0.7952,-0.7955,-0.7959,-0.7959,-0.7952,-0.7012,-0.6774,-0.6599,-0.6599,-0.6599,-0.6517,-0.6236,-0.6147,-0.5979,-0.5568,-0.5724,-0.5816,-0.5627,-0.6279,-0.665,-0.6426,-0.7033,-0.765,0.0,-0.8126,0.0,0.0,0.0,0.0,0.0,0.0,0.0,0.0,0.0,0.0,0.0,0.0,0.0,0.0,0.0,0.0,0.0,0.0,0.0,0.0,0.0,0.0,-0.9539,-0.9263,-0.9011,-0.8528,-0.7459,-0.7459,0.0,0.0,-0.7454,-0.7189,-0.7723,-0.7321,-0.666,-0.7048,-0.6543,-0.5698,-0.5318,0.0,0.0,-0.5237,-0.5484,-0.5711,-0.5711,-0.5939,-0.6196,-0.6349,-0.6586,-0.681,-0.6959,-0.6987,-0.7034,-0.718,-0.7299,-0.7387,-0.7428,-0.7397,-0.7411,-0.7522,-0.7438,-0.7472,-0.7729,-0.7889,-0.7994,-0.8035,-0.8038,-0.8038,-0.8038,-0.8038,-0.8038,-0.8038,-0.8038,-0.8038,-0.8038,-0.8038,-0.8038,-0.8038,-0.8038,-0.8038,-0.8038,-0.8038,-0.8038,-0.8038,-0.8038,-0.8038,-0.8038,-0.8038,-0.8038,-0.8038,-0.8038,-0.8038,-0.8038,-0.8038,-0.8038,-0.8038,-0.718,-0.6865,-0.6599,-0.6599,-0.6599,-0.6517,-0.6236,-0.6034,-0.5819,-0.553,-0.5282,-0.5127,-0.5127,-0.5547,-0.5999,-0.6377,-0.7075,-0.7577,-0.7801,-0.834,0.0,0.0,0.0,0.0,0.0,0.0,0.0,0.0,0.0,0.0,0.0,0.0,0.0,0.0,0.0,0.0,0.0,0.0,0.0,0.0,0.0,0.0,-0.9196,-0.919,-0.8884,-0.839,-0.8333,0.0,0.0,0.0,-0.8094,-0.8333,-0.839,-0.8042,0.0,-0.8851,-0.8143,0.0,0.0,0.0,-0.5203,-0.5501,-0.5796,-0.6017,-0.6017,-0.6244,-0.6502,-0.6654,-0.6814,-0.6966,-0.7105,-0.7132,-0.7183,-0.7339,-0.7366,-0.7424,-0.757,-0.7465,-0.7373,-0.738,-0.7373,-0.7434,0.0,-0.7736,-0.7879,-0.8028,-0.8038,-0.8038,-0.8038,-0.8038,-0.8038,-0.8038,-0.8038,-0.8038,-0.8038,-0.8038,-0.8038,-0.8038,-0.8038,-0.8038,-0.8038,-0.8038,-0.8038,-0.8038,-0.8038,-0.8038,-0.8038,-0.8038,-0.8038,-0.8038,-0.8038,-0.8038,-0.8038,-0.8038,-0.8038,-0.8038,-0.7195,-0.6881,-0.6599,-0.6599,-0.6599,-0.6517,-0.6236,-0.6034,-0.58,-0.553,-0.5272,0.0,0.0,0.0,0.0,0.0,-0.7066,-0.7627,-0.7923,-0.8585,0.0,0.0,0.0,0.0,0.0,0.0,0.0,0.0,0.0,0.0,0.0,0.0,0.0,0.0,0.0,0.0,0.0,0.0,0.0,0.0,0.0,0.0,-0.9512,-0.9256,-0.8878,-0.835,0.0,0.0,0.0,0.0,0.0,0.0,-0.831,0.0,0.0,-0.8251,0.0,-0.7007,0.0,0.0,-0.5623,-0.583,-0.6105,-0.6322,-0.6322,-0.6478,-0.6637,-0.6692,-0.6742,-0.6793,-0.6841,-0.6932,-0.7017,-0.7068,-0.7329,-0.7539,-0.7594,-0.7638,-0.7628,-0.7536,-0.7522,0.0,0.0,0.0,0.0,-0.8028,-0.8038,-0.8038,-0.8038,-0.8038,-0.8038,-0.8038,-0.8038,-0.8038,-0.8038,-0.8038,-0.8038,-0.8038,-0.8038,-0.8038,-0.8038,-0.8038,-0.8038,-0.8038,-0.8038,-0.8038,-0.8038,-0.8038,-0.8038,-0.8038,-0.8038,-0.8038,-0.8038,-0.8038,-0.8038,-0.8038,-0.7096,-0.6828,-0.6599,-0.6599,-0.6599,0.0,0.0,0.0,0.0,0.0,0.0,0.0,0.0,0.0,0.0,0.0,0.0,-0.7819,-0.7834,0.0,0.0,0.0,0.0,0.0,0.0,0.0,0.0,0.0,0.0,0.0,0.0,0.0,0.0,0.0,0.0,0.0,0.0,0.0,0.0,0.0,0.0,0.0,-0.9198,-0.9005,-0.8564,0.0,0.0,0.0,0.0,0.0,0.0,0.0,0.0,0.0,0.0,-0.8199,-0.7828,-0.737,-0.719,-0.652,-0.5945,-0.6203,-0.6413,-0.6539,-0.6485,-0.659,-0.6671,-0.6566,-0.6583,-0.6603,-0.6552,-0.6624,-0.6742,-0.6902,-0.7214,-0.7492,-0.7651,-0.7753,-0.7777,-0.7685,-0.7631,-0.7617,0.0,0.0,0.0,-0.8028,-0.8038,-0.8038,-0.8038,-0.8038,-0.8038,-0.8038,-0.8038,-0.8038,-0.8038,-0.8038,-0.8038,-0.8038,-0.8038,-0.8038,-0.8038,-0.8038,-0.8038,-0.8038,-0.8038,-0.8038,-0.8038,-0.8038,-0.8038,-0.8038,-0.8038,-0.8038,-0.8038,-0.8038,-0.8038,-0.8038,-0.6908,-0.674,-0.6599,0.0,0.0,0.0,0.0,0.0,0.0,0.0,0.0,0.0,0.0,0.0,0.0,0.0,0.0,0.0,-0.7546,0.0,0.0,0.0,0.0,-0.8725,-0.9471,-0.9093,-0.935,0.0,0.0,0.0,0.0,0.0,0.0,0.0,0.0,0.0,0.0,0.0,0.0,0.0,0.0,0.0,-0.8377,-0.8357,0.0,0.0,0.0,0.0,0.0,0.0,0.0,0.0,0.0,0.0,0.0,0.0,0.0,-0.795,-0.7649,-0.6861,-0.6166,-0.6593,-0.6702,-0.6661,-0.6519,-0.6583,-0.6597,-0.6308,-0.6342,-0.6383,0.0,0.0,-0.639,-0.6824,-0.7041,-0.7305,-0.774,-0.7814,-0.7821,0.0,0.0,0.0,0.0,0.0,0.0,-0.8028,0.0,-0.8038,-0.8038,-0.8038,-0.8038,-0.8038,-0.8038,-0.8038,-0.8038,-0.8038,-0.8038,-0.8038,-0.8038,-0.8038,-0.8038,-0.8038,-0.8038,-0.8038,-0.8038,-0.8038,-0.8038,-0.8038,-0.8038,-0.8038,-0.8038,-0.8038,-0.8038,-0.8038,-0.8038,-0.8038,0.0,0.0,0.0,0.0,0.0,0.0,0.0,0.0,0.0,0.0,0.0,0.0,0.0,0.0,0.0,0.0,0.0,0.0,0.0,0.0,0.0,0.0,0.0,0.0,0.0,-0.9249,0.0,0.0,0.0,0.0,0.0,0.0,0.0,0.0,0.0,0.0,0.0,0.0,0.0,0.0,0.0,0.0,-0.835,0.0,0.0,0.0,0.0,0.0,0.0,0.0,0.0,0.0,0.0,0.0,-0.9905,0.0,0.0,-0.8485,-0.8663,-0.7594,-0.6556,-0.6671,-0.6702,-0.6692,-0.6651,-0.6502,-0.6318,-0.6129,-0.5942,-0.5769,-0.5689,0.0,0.0,-0.6393,-0.6926,0.0,-0.7621,-0.7841,0.0,-0.7824,0.0,-0.7896,-0.7818,-0.7916,0.0,0.0,-0.8038,-0.8038,-0.8038,-0.8038,-0.8038,-0.8038,-0.8038,-0.8038,-0.8038,-0.8038,-0.8038,-0.8038,-0.8038,-0.8038,-0.8038,-0.8038,-0.8038,-0.8038,-0.8038,-0.8038,-0.8038,-0.8038,-0.8038,-0.8038,-0.8038,-0.8038,-0.8038,-0.8038,-0.8038,-0.8038,0.0,0.0,0.0,0.0,0.0,0.0,0.0,0.0,0.0,0.0,0.0,0.0,0.0,0.0,0.0,0.0,0.0,0.0,0.0,0.0,0.0,0.0,0.0,0.0,0.0,0.0,0.0,0.0,0.0,0.0,0.0,0.0,0.0,0.0,0.0,0.0,0.0,0.0,0.0,0.0,0.0,0.0,0.0,0.0,0.0,0.0,0.0,0.0,0.0,0.0,0.0,-0.8963,-0.8788,-0.9532,-1.0417,-0.9894,0.0,-0.8815,-0.8825,-0.7808,-0.68,-0.68,-0.68,-0.6732,-0.6464,-0.6278,-0.6057,-0.5708,-0.5501,0.0,-0.5196,0.0,0.0,0.0,0.0,0.0,-0.756,-0.7851,-0.8007,0.0,-0.7987,0.0,-0.7919,-0.7987,-0.8038,0.0,-0.8038,-0.8038,-0.8038,-0.8038,-0.8038,-0.8038,-0.8038,-0.8038,-0.8038,-0.8038,-0.8038,-0.8038,-0.8038,-0.8038,-0.8038,-0.8038,-0.8038,-0.8038,0.0,-0.8038,-0.8038,-0.8038,-0.8038,-0.8038,-0.8038,-0.8038,-0.8038,-0.8038,-0.8038,-0.8038,0.0,0.0,0.0,0.0,0.0,0.0,0.0,0.0,0.0,-0.5672,0.0,0.0,0.0,0.0,0.0,0.0,0.0,0.0,0.0,0.0,0.0,0.0,0.0,0.0,0.0,0.0,0.0,0.0,0.0,0.0,0.0,0.0,0.0,0.0,0.0,0.0,0.0,0.0,0.0,0.0,0.0,0.0,0.0,0.0,0.0,0.0,0.0,0.0,0.0,0.0,-0.9118,-0.9402,-0.9859,-1.0437,-1.0799,-1.0176,-0.9548,-0.8883,-0.8521,-0.7688,-0.6953,-0.6932,-0.6898,-0.6722,-0.6159,-0.5983,-0.5783,-0.522,0.0,-0.503,-0.4884,-0.5101,-0.5457,-0.5925,0.0,-0.7041,-0.7529,-0.7834,-0.8018,-0.8038,-0.8038,-0.8038,-0.8038,-0.8038,-0.8038,-0.8038,-0.8038,-0.8038,-0.8038,-0.8038,-0.8038,-0.8038,-0.8038,-0.8038,-0.8038,-0.8038,-0.8038,-0.8038,-0.8038,-0.8038,-0.8038,-0.8038,-0.8038,-0.8038,-0.8038,-0.8038,-0.8038,-0.8038,-0.8038,-0.8038,-0.8038,-0.8038,-0.8038,-0.8038,-0.8038,-0.8038,0.0,0.0,0.0,0.0,0.0,0.0,0.0,-0.6448,-0.6374,-0.6333,-0.5602,-0.5273,0.0,0.0,0.0,0.0,0.0,0.0,0.0,0.0,0.0,0.0,0.0,0.0,0.0,0.0,0.0,0.0,0.0,0.0,0.0,0.0,0.0,0.0,0.0,0.0,0.0,0.0,0.0,0.0,0.0,0.0,0.0,0.0,0.0,0.0,0.0,0.0,0.0,0.0,-0.9726,-0.9879,-0.9673,-0.9997,-1.0337,-0.9681,-0.8902,-0.8333,-0.8267,-0.7673,-0.7075,-0.6959,-0.6739,-0.6458,-0.6108,-0.5742,0.0,0.0,0.0,-0.4721,-0.4568,-0.4792,0.0,-0.5749,0.0,0.0,0.0,0.0,-0.7896,0.0,0.0,0.0,0.0,0.0,0.0,0.0,0.0,-0.8038,-0.8038,-0.8038,-0.8038,-0.8038,-0.8038,-0.8038,-0.8038,-0.8038,-0.8038,-0.8038,-0.8038,-0.8038,-0.8038,-0.8038,-0.8038,-0.8038,-0.8038,0.0,-0.8038,-0.8038,-0.8038,-0.8038,-0.8038,-0.8038,-0.8038,-0.8038,-0.8038,-0.8038,0.0,0.0,0.0,0.0,0.0,0.0,0.0,-0.6604,-0.6531,-0.6628,-0.614,-0.5847,-0.6084,-0.6094,-0.626,0.0,0.0,0.0,0.0,0.0,0.0,0.0,0.0,0.0,0.0,0.0,0.0,0.0,0.0,0.0,0.0,0.0,0.0,0.0,0.0,0.0,0.0,0.0,0.0,0.0,0.0,0.0,0.0,0.0,0.0,0.0,0.0,0.0,0.0,0.0,-0.9399,-0.996,-1.0225,-1.0692,-1.09,-0.9595,-0.9056,-0.8755,-0.7792,-0.7314,-0.7088,-0.6865,-0.6637,-0.6332,-0.5803,0.0,0.0,0.0,0.0,-0.4551,-0.4532,0.0,0.0,0.0,0.0,0.0,0.0,0.0,0.0,0.0,0.0,0.0,0.0,0.0,0.0,0.0,0.0,-0.8038,-0.8038,-0.8038,-0.8038,-0.8038,-0.8038,-0.8038,-0.8038,-0.8038,-0.8038,-0.8038,-0.8038,-0.8038,-0.8038,-0.8038,-0.8038,-0.8038,-0.8038,-0.8038,-0.8038,-0.8038,-0.8038,-0.8038,-0.8038,-0.8038,-0.8038,-0.8038,-0.8038,-0.8038,0.0,0.0,0.0,0.0,0.0,0.0,0.0,-0.6815,-0.675,-0.7026,-0.675,-0.6514,-0.6416,-0.6113,-0.6016,0.0,0.0,0.0,0.0,0.0,0.0,0.0,0.0,0.0,0.0,0.0,0.0,0.0,0.0,0.0,0.0,0.0,0.0,0.0,0.0,0.0,0.0,0.0,0.0,0.0,0.0,0.0,0.0,0.0,0.0,0.0,0.0,0.0,0.0,0.0,-0.8884,-0.9559,-1.0434,-1.1022,-1.1089,-0.9663,-0.9227,-0.8972,-0.7533,-0.7107,-0.6983,-0.6719,-0.6515,-0.62,-0.5586,-0.5192,0.0,0.0,-0.4491,-0.4426,-0.4512,0.0,0.0,0.0,0.0,0.0,0.0,0.0,0.0,0.0,0.0,0.0,0.0,0.0,0.0,0.0,0.0,0.0,-0.8038,-0.8038,-0.8038,-0.8038,-0.8038,-0.8038,-0.8038,-0.8038,-0.8038,-0.8038,-0.8038,-0.8038,-0.8038,-0.8038,-0.8038,-0.8038,-0.8038,-0.8038,-0.8038,-0.8038,-0.8038,-0.8038,-0.8038,-0.8038,-0.8038,-0.8038,-0.8038,-0.8038,0.0,0.0,0.0,0.0,0.0,0.0,0.0,-0.724,-0.7321,-0.7829,-0.7379,-0.6875,-0.6455,-0.6377,-0.6211,0.0,0.0,0.0,0.0,0.0,0.0,0.0,0.0,0.0,0.0,0.0,0.0,0.0,0.0,0.0,0.0,0.0,0.0,0.0,0.0,0.0,0.0,0.0,0.0,0.0,0.0,0.0,0.0,0.0,0.0,0.0,0.0,0.0,0.0,0.0,0.0,-0.8651,-0.9526,-0.9744,-0.9755,-0.98,0.0,0.0,-0.789,-0.7352,-0.6702,-0.6536,-0.6278,-0.5945,-0.5471,0.0,0.0,0.0,-0.4358,-0.4307,-0.444,-0.4539,0.0,0.0,0.0,0.0,0.0,0.0,0.0,0.0,0.0,0.0,0.0,0.0,0.0,0.0,0.0,0.0,-0.8038,-0.8038,-0.8038,-0.8038,-0.8038,-0.8038,-0.8038,-0.8038,-0.8038,-0.8038,-0.8038,-0.8038,-0.8038,-0.8038,-0.8038,-0.8038,-0.8038,-0.8038,0.0,-0.8038,-0.8038,-0.8038,-0.8038,-0.8038,-0.8038,-0.8038,-0.8038,-0.8038,0.0,0.0,0.0,0.0,0.0,0.0,-0.7046,-0.6915,-0.6978,-0.7574,-0.7319,-0.7031,-0.6846,-0.6572,-0.6133,-0.5449,0.0,0.0,0.0,0.0,0.0,0.0,0.0,0.0,0.0,0.0,0.0,0.0,0.0,0.0,0.0,0.0,0.0,0.0,0.0,0.0,0.0,0.0,0.0,0.0,0.0,0.0,0.0,0.0,0.0,0.0,0.0,0.0,0.0,0.0,0.0,0.0,-0.8297,-0.8682,0.0,0.0,-0.884,-0.8164,-0.7829,-0.7228,-0.6664,-0.6512,-0.6179,-0.58,-0.5443,0.0,-0.4646,-0.4549,-0.4419,-0.4395,-0.4508,-0.4519,-0.4608,0.0,-0.4891,-0.5203,0.0,0.0,0.0,0.0,0.0,0.0,0.0,0.0,0.0,0.0,0.0,0.0,-0.8038,-0.8038,-0.8038,-0.8038,-0.8038,-0.8038,-0.8038,-0.8038,-0.8038,-0.8038,-0.8038,-0.8038,-0.8038,-0.8038,-0.8038,-0.8038,-0.8038,-0.8038,0.0,-0.8038,-0.8038,-0.8038,-0.8038,-0.8038,-0.8038,-0.8038,-0.8038,-0.8038,0.0,0.0,0.0,0.0,0.0,-0.6698,-0.7007,-0.6744,-0.6706,-0.7287,-0.7082,-0.6895,-0.6895,-0.6494,-0.5977,-0.5351,-0.5488,0.0,0.0,0.0,0.0,0.0,0.0,0.0,0.0,0.0,0.0,0.0,0.0,0.0,0.0,0.0,0.0,0.0,0.0,0.0,0.0,0.0,0.0,0.0,0.0,0.0,0.0,0.0,0.0,0.0,0.0,0.0,0.0,0.0,0.0,0.0,0.0,0.0,0.0,0.0,-0.8733,-0.8284,-0.7915,-0.7153,-0.6407,-0.6302,-0.5969,-0.5603,0.0,0.0,-0.4592,-0.4539,-0.4429,-0.4412,-0.4512,-0.4519,-0.4553,0.0,-0.4643,-0.4914,-0.5637,0.0,0.0,0.0,0.0,0.0,0.0,0.0,0.0,0.0,0.0,0.0,-0.8038,-0.8038,-0.8038,-0.8038,-0.8038,-0.8038,-0.8038,-0.8038,-0.8038,-0.8038,-0.8038,-0.8038,-0.8038,-0.8038,-0.8038,-0.8038,-0.8038,-0.8038,0.0,-0.8038,-0.8038,-0.8038,-0.8038,-0.8038,-0.8038,-0.8038,-0.8038,-0.8038,0.0,0.0,0.0,0.0,0.0,0.0,-0.7319,-0.6875,-0.6693,-0.7236,-0.6779,-0.6416,-0.6416,-0.6035,-0.5803,-0.5793,-0.5381,0.0,0.0,0.0,0.0,0.0,0.0,0.0,0.0,0.0,0.0,0.0,0.0,0.0,0.0,0.0,0.0,0.0,0.0,0.0,0.0,0.0,0.0,0.0,0.0,0.0,-0.6979,0.0,0.0,0.0,0.0,0.0,0.0,0.0,0.0,0.0,0.0,0.0,0.0,0.0,-0.8483,-0.7761,-0.8115,-0.7015,-0.581,-0.581,-0.5586,-0.5325,0.0,-0.4785,-0.4519,-0.4519,-0.4351,-0.4241,-0.4491,-0.4519,-0.4519,-0.4519,-0.4836,-0.5233,-0.5549,0.0,0.0,0.0,0.0,0.0,0.0,0.0,0.0,0.0,0.0,0.0,-0.8038,-0.8038,-0.8038,-0.8038,-0.8038,-0.8038,-0.8038,-0.8038,-0.8038,-0.8038,-0.8038,-0.8038,-0.8038,-0.8038,-0.8038,-0.8038,-0.8038,-0.8038,0.0,-0.8038,-0.8038,-0.8038,-0.8038,-0.8038,-0.8038,-0.8038,-0.8038,-0.8038,0.0,0.0,0.0,0.0,0.0,0.0,0.0,-0.6418,-0.6245,-0.6682,-0.6302,-0.6084,-0.6377,-0.6035,-0.5803,-0.5803,-0.5381,0.0,0.0,0.0,0.0,0.0,0.0,0.0,0.0,0.0,-0.7453,-0.7377,-0.7251,0.0,0.0,0.0,0.0,0.0,0.0,0.0,0.0,0.0,0.0,0.0,0.0,-0.6166,-0.6471,0.0,0.0,0.0,0.0,0.0,0.0,0.0,0.0,0.0,0.0,0.0,0.0,-0.6827,-0.723,0.0,-0.8305,-0.7349,-0.6233,-0.6233,-0.5596,-0.5047,-0.4996,-0.4714,-0.4519,-0.4519,-0.4426,-0.4409,-0.4508,-0.4519,-0.4587,-0.4741,-0.4894,0.0,0.0,0.0,0.0,0.0,0.0,0.0,0.0,0.0,0.0,0.0,0.0,0.0,-0.8038,-0.8038,-0.8038,-0.8038,-0.8038,-0.8038,-0.8038,-0.8038,-0.8038,-0.8038,-0.8038,-0.8038,-0.8038,-0.8038,-0.8038,-0.8038,-0.8038,-0.8038,-0.8038,-0.8038,-0.8038,-0.8038,-0.8038,-0.8038,-0.8038,-0.8038,-0.8038,-0.8038,0.0,0.0,0.0,0.0,0.0,0.0,0.0,-0.6201,-0.5993,-0.6237,-0.5838,-0.5693,-0.6123,-0.5791,-0.5605,-0.5783,-0.5381,0.0,0.0,0.0,0.0,0.0,0.0,0.0,0.0,-0.7205,-0.737,-0.7614,-0.7238,-0.7129,-0.7229,-0.6827,0.0,0.0,0.0,0.0,0.0,0.0,0.0,0.0,-0.5671,-0.5825,-0.6035,0.0,0.0,0.0,0.0,0.0,0.0,0.0,0.0,0.0,0.0,0.0,0.0,0.0,-0.6271,-0.7004,0.0,-0.6861,-0.6201,-0.5886,-0.5559,-0.5169,-0.4817,-0.4555,-0.4382,-0.4382,-0.4382,-0.4399,-0.4508,-0.4519,-0.458,-0.4714,-0.4843,0.0,0.0,0.0,0.0,0.0,0.0,0.0,0.0,0.0,0.0,0.0,0.0,0.0,-0.8038,-0.8038,-0.8038,-0.8038,-0.8038,-0.8038,-0.8038,-0.8038,-0.8038,-0.8038,-0.8038,-0.8038,-0.8038,-0.8038,-0.8038,-0.8038,-0.8038,-0.8038,0.0,-0.8038,-0.8038,-0.8038,-0.8038,-0.8038,-0.8038,-0.8038,-0.8038,-0.8038,0.0,0.0,0.0,0.0,0.0,0.0,0.0,-0.6201,-0.5911,-0.5911,-0.5434,-0.5263,-0.5715,-0.5351,-0.5273,-0.5725,0.0,0.0,0.0,0.0,0.0,0.0,0.0,0.0,0.0,-0.6729,-0.6946,-0.7765,-0.6849,-0.6585,-0.7002,-0.6488,-0.6068,0.0,0.0,0.0,0.0,0.0,0.0,0.0,-0.5571,-0.5678,0.0,0.0,0.0,0.0,0.0,0.0,0.0,0.0,0.0,0.0,0.0,0.0,0.0,0.0,0.0,0.0,0.0,-0.564,-0.5799,-0.515,-0.5327,-0.5446,-0.4625,-0.4328,0.0,-0.4194,-0.4197,-0.4241,-0.445,-0.4525,-0.4532,-0.4573,0.0,0.0,0.0,0.0,0.0,0.0,0.0,0.0,0.0,0.0,0.0,0.0,0.0,0.0,-0.8038,-0.8038,-0.8038,-0.8038,-0.8038,-0.8038,-0.8038,-0.8038,-0.8038,-0.8038,-0.8038,-0.8038,-0.8038,-0.8038,-0.8038,0.0,-0.8038,-0.8038,-0.8038,-0.8038,-0.8038,-0.8038,-0.8038,-0.8038,-0.8038,-0.8038,-0.8038,-0.8038,0.0,0.0,0.0,0.0,0.0,0.0,0.0,0.0,0.0,0.0,-0.5434,-0.5146,-0.5253,-0.5166,-0.5146,0.0,0.0,0.0,0.0,0.0,0.0,0.0,0.0,0.0,0.0,-0.6836,-0.713,-0.7513,-0.726,-0.7093,-0.7011,-0.6672,-0.6371,-0.6075,-0.5812,0.0,0.0,0.0,0.0,0.0,-0.5357,-0.5384,0.0,0.0,0.0,0.0,-0.5283,-0.54,0.0,0.0,0.0,0.0,0.0,0.0,0.0,0.0,-0.4157,-0.4232,-0.4204,0.0,-0.5362,-0.5672,-0.5075,-0.4371,0.0,-0.4097,0.0,0.0,0.0,-0.4274,-0.4589,-0.4541,-0.467,0.0,0.0,0.0,0.0,0.0,0.0,0.0,0.0,0.0,0.0,0.0,0.0,0.0,0.0,-0.8038,-0.8038,-0.8038,-0.8038,-0.8038,-0.8038,-0.8038,-0.8038,-0.8038,-0.8038,-0.8038,-0.8038,-0.8038,-0.8038,-0.8038,-0.8038,-0.8038,-0.8038,-0.8038,-0.8038,-0.8038,-0.8038,-0.8038,-0.8038,-0.8038,-0.8038,-0.8038,-0.8038,-0.8038,0.0,0.0,0.0,0.0,0.0,0.0,0.0,0.0,0.0,0.0,0.0,-0.5108,-0.5108,-0.5108,0.0,0.0,0.0,0.0,0.0,0.0,0.0,0.0,0.0,0.0,-0.6396,-0.665,-0.71,-0.778,-0.7531,-0.741,-0.7398,-0.6984,-0.656,-0.6176,-0.5705,0.0,0.0,0.0,0.0,-0.509,-0.5224,0.0,0.0,0.0,0.0,0.0,-0.4792,-0.4819,0.0,-0.5015,-0.5446,-0.5757,0.0,0.0,0.0,0.0,-0.3636,-0.3785,-0.4005,-0.461,-0.5174,-0.5178,-0.4875,-0.4524,-0.4175,0.0,0.0,0.0,0.0,0.0,-0.4545,0.0,0.0,0.0,0.0,0.0,0.0,0.0,0.0,0.0,0.0,0.0,0.0,0.0,0.0,0.0,0.0,-0.8038,-0.8038,-0.8038,-0.8038,-0.8038,-0.8038,-0.8038,-0.8038,-0.8038,-0.8038,-0.8038,-0.8038,-0.8038,-0.8038,-0.8038,-0.8038,-0.8038,-0.8038,-0.8038,-0.8038,-0.8038,-0.8038,-0.8038,-0.8038,-0.8038,-0.8038,-0.8038,-0.8038,-0.8038,0.0,0.0,0.0,0.0,0.0,0.0,0.0,0.0,0.0,0.0,0.0,0.0,0.0,0.0,0.0,0.0,0.0,0.0,0.0,0.0,0.0,0.0,0.0,-0.5409,-0.6361,-0.6289,-0.6832,-0.7982,-0.7523,-0.7454,-0.7672,-0.721,-0.6713,-0.6169,-0.5625,-0.5349,0.0,0.0,0.0,-0.4894,-0.5177,0.0,0.0,0.0,0.0,0.0,0.0,0.0,0.0,-0.4364,-0.4663,-0.4944,-0.4433,0.0,0.0,0.0,0.0,0.0,-0.4164,-0.4705,-0.4972,-0.444,-0.4706,-0.4928,-0.4313,0.0,0.0,0.0,0.0,0.0,0.0,0.0,0.0,0.0,0.0,0.0,0.0,0.0,0.0,0.0,0.0,0.0,0.0,0.0,0.0,0.0,0.0,-0.8038,-0.8038,-0.8038,-0.8038,-0.8038,-0.8038,-0.8038,-0.8038,-0.8038,-0.8038,-0.8038,-0.8038,-0.8038,-0.8038,-0.8038,-0.8038,-0.8038,0.0,0.0,-0.8038,-0.8038,-0.8038,-0.8038,-0.8038,-0.8038,-0.8038,-0.8038,-0.8038,-0.8038,0.0,0.0,0.0,0.0,0.0,0.0,0.0,0.0,0.0,0.0,0.0,0.0,0.0,0.0,0.0,0.0,0.0,0.0,0.0,0.0,0.0,0.0,-0.4293,-0.5014,-0.6278,-0.5822,-0.603,-0.7006,-0.6941,-0.6877,-0.6819,-0.6949,-0.6713,-0.6176,-0.5798,-0.5511,-0.5309,0.0,0.0,-0.5217,-0.5295,0.0,0.0,0.0,0.0,0.0,0.0,0.0,0.0,-0.3499,-0.4028,-0.4585,-0.3923,0.0,0.0,0.0,0.0,0.0,-0.3862,-0.4045,-0.4271,-0.4562,-0.4394,-0.4153,0.0,0.0,0.0,0.0,0.0,0.0,0.0,0.0,0.0,0.0,0.0,0.0,0.0,0.0,0.0,0.0,0.0,0.0,0.0,0.0,0.0,0.0,0.0,-0.8038,-0.8038,-0.8038,-0.8038,-0.8038,-0.8038,-0.8038,-0.8038,-0.8038,-0.8038,-0.8038,-0.8038,-0.8038,-0.8038,-0.8038,-0.8038,-0.8038,0.0,-0.8038,-0.8038,-0.8038,-0.8038,-0.8038,-0.8038,-0.8038,-0.8038,-0.8038,-0.8038,-0.8038,0.0,0.0,0.0,0.0,0.0,0.0,0.0,0.0,0.0,0.0,0.0,0.0,0.0,0.0,0.0,0.0,0.0,0.0,0.0,0.0,0.0,-0.4171,-0.4156,-0.4649,-0.5804,-0.585,-0.6176,-0.6789,-0.6929,-0.6948,-0.682,-0.664,-0.6451,-0.6176,-0.5712,-0.5404,-0.5309,0.0,-0.5151,-0.4922,0.0,0.0,0.0,0.0,0.0,0.0,0.0,0.0,0.0,0.0,-0.3408,-0.375,-0.341,0.0,0.0,0.0,0.0,0.0,-0.3537,-0.3782,-0.4052,-0.4271,-0.4289,-0.428,0.0,0.0,0.0,0.0,0.0,0.0,0.0,0.0,0.0,0.0,0.0,0.0,0.0,0.0,0.0,0.0,0.0,0.0,0.0,0.0,0.0,0.0,0.0,0.0,-0.8038,-0.8038,-0.8038,-0.8038,-0.8038,-0.8038,-0.8038,-0.8038,-0.8038,-0.8038,-0.8038,-0.8038,-0.8038,-0.8038,-0.8038,-0.8038,0.0,-0.8038,-0.8038,-0.8038,-0.8038,-0.8038,-0.8038,-0.8038,-0.8038,-0.8038,-0.8038,-0.8038,0.0,0.0,0.0,0.0,0.0,0.0,0.0,0.0,0.0,0.0,0.0,0.0,0.0,0.0,0.0,0.0,0.0,0.0,0.0,0.0,-0.3741,-0.4277,-0.418,-0.4567,-0.5534,-0.5896,-0.6307,-0.676,-0.6968,-0.7048,-0.7014,-0.65,-0.6256,-0.6169,-0.5645,-0.5344,-0.5277,-0.5182,-0.4922,-0.4602,0.0,0.0,0.0,0.0,0.0,0.0,0.0,0.0,0.0,0.0,0.0,0.0,0.0,0.0,0.0,-0.3169,-0.3219,-0.3364,-0.3478,-0.3704,-0.3982,-0.4056,0.0,-0.4567,0.0,0.0,0.0,0.0,0.0,0.0,0.0,0.0,0.0,0.0,0.0,0.0,0.0,0.0,0.0,0.0,0.0,0.0,0.0,0.0,0.0,0.0,0.0,0.0,-0.8038,-0.8038,-0.8038,-0.8038,-0.8038,-0.8038,-0.8038,-0.8038,-0.8038,-0.8038,-0.8038,-0.8038,-0.8038,-0.8038,-0.8038,-0.8038,-0.8038,-0.8038,-0.8038,-0.8038,-0.8038,-0.8038,-0.8038,-0.8038,-0.8038,-0.8038,-0.8237,-0.8432,0.0,0.0,0.0,0.0,0.0,0.0,0.0,0.0,0.0,0.0,0.0,0.0,0.0,0.0,0.0,0.0,0.0,0.0,0.0,0.0,-0.3661,-0.4002,-0.4254,-0.4898,-0.6017,-0.5609,-0.5766,-0.6592,-0.6619,-0.6781,-0.7014,-0.6707,-0.6451,-0.6176,-0.5825,-0.5531,0.0,-0.4826,-0.4634,-0.457,-0.4188,0.0,0.0,0.0,0.0,0.0,0.0,0.0,0.0,0.0,0.0,0.0,0.0,0.0,-0.3306,-0.3293,-0.3341,-0.3454,-0.3687,-0.3782,-0.3877,-0.411,0.0,0.0,0.0,0.0,0.0,0.0,0.0,0.0,0.0,0.0,0.0,0.0,0.0,0.0,0.0,0.0,0.0,0.0,0.0,0.0,0.0,0.0,0.0,0.0,0.0,0.0,-0.8038,-0.8038,-0.8038,-0.8038,-0.8038,-0.8038,-0.8038,-0.8038,-0.8038,-0.8038,-0.8038,-0.8038,-0.8038,-0.8038,-0.8038,-0.8038,-0.8038,-0.8038,-0.8038,-0.8038,-0.8038,-0.8038,-0.8038,-0.8038,-0.8038,-0.8038,-0.8825,-0.9903,0.0,0.0,0.0,0.0,0.0,0.0,0.0,0.0,0.0,0.0,0.0,0.0,0.0,0.0,0.0,0.0,0.0,0.0,0.0,0.0,-0.3661,-0.3978,-0.4249,-0.467,-0.5274,-0.5665,-0.6109,-0.6587,-0.6587,-0.6647,-0.6747,-0.6266,-0.5985,-0.5865,-0.5263,0.0,0.0,0.0,-0.4048,-0.3784,-0.3621,-0.3298,0.0,0.0,0.0,0.0,0.0,0.0,0.0,0.0,-0.2781,-0.2893,-0.2798,-0.291,-0.3038,-0.3038,-0.3076,-0.3141,-0.3482,-0.3721,0.0,0.0,0.0,0.0,0.0,0.0,0.0,0.0,0.0,0.0,0.0,0.0,0.0,0.0,0.0,0.0,0.0,0.0,0.0,0.0,0.0,0.0,0.0,0.0,0.0,0.0,0.0,0.0,-0.8038,-0.8038,-0.8038,-0.8038,-0.8038,-0.8038,-0.8038,-0.8038,-0.8038,-0.8038,-0.8038,-0.8038,-0.8038,-0.8038,-0.8038,-0.8038,-0.8038,-0.8038,-0.8038,-0.8038,-0.8038,-0.8038,-0.8038,-0.8038,-0.8038,-0.8038,-0.8825,-0.9998,0.0,0.0,0.0,0.0,0.0,0.0,0.0,0.0,0.0,0.0,0.0,0.0,0.0,0.0,0.0,0.0,0.0,0.0,0.0,-0.3506,-0.3661,-0.3978,-0.4187,-0.4489,-0.4934,-0.5571,-0.6062,-0.6313,-0.6291,-0.6253,-0.6246,-0.5581,-0.5301,-0.5327,0.0,0.0,0.0,0.0,0.0,-0.329,-0.3163,-0.294,0.0,0.0,0.0,0.0,0.0,0.0,0.0,0.0,-0.2751,-0.2825,-0.2771,-0.2825,-0.2917,-0.2961,-0.3008,-0.3103,-0.3396,-0.3717,-0.4043,0.0,0.0,0.0,0.0,0.0,0.0,0.0,0.0,0.0,0.0,0.0,0.0,0.0,0.0,0.0,0.0,0.0,0.0,0.0,0.0,0.0,0.0,0.0,0.0,0.0,0.0,0.0,0.0,-0.8038,-0.8038,-0.8038,-0.8038,-0.8038,-0.8038,-0.8038,-0.8038,-0.8038,-0.8432,-0.8432,-0.8041,-0.8432,-0.8627,-0.8627,-0.9019,-0.9019,-0.8627,-0.8627,-0.8432,-0.8038,-0.8038,-0.8038,-0.8038,-0.8432,-0.9509,-1.0681,0.0,0.0,0.0,0.0,0.0,0.0,0.0,0.0,0.0,0.0,0.0,0.0,0.0,0.0,0.0,0.0,0.0,0.0,-0.3527,-0.3506,-0.3639,-0.3978,-0.3992,-0.4402,-0.5282,-0.5302,-0.5418,-0.5684,-0.5565,-0.5509,-0.5466,-0.4741,-0.4464,-0.4573,0.0,0.0,0.0,0.0,0.0,0.0,-0.2874,-0.2712,-0.2712,0.0,0.0,0.0,0.0,0.0,0.0,0.0,-0.2712,-0.2706,-0.2859,-0.291,-0.294,-0.3041,-0.3189,-0.334,-0.3537,-0.3795,0.0,0.0,0.0,0.0,0.0,0.0,0.0,0.0,0.0,0.0,0.0,0.0,0.0,0.0,0.0,0.0,0.0,0.0,0.0,0.0,0.0,0.0,0.0,0.0,0.0,0.0,0.0,0.0,-0.8038,-0.8038,-0.8038,-0.8038,-0.8038,-0.8038,-0.8041,-0.8041,-0.8038,-0.8038,-0.941,-0.9312,-0.8038,-0.941,-0.9998,-1.0096,-1.1361,-1.117,-0.9998,-0.9998,-0.9217,-0.8038,-0.8038,-0.8038,-0.8137,-0.9509,-1.0779,-1.2042,0.0,0.0,0.0,0.0,0.0,0.0,0.0,0.0,0.0,0.0,0.0,0.0,0.0,0.0,0.0,0.0,0.0,0.0,-0.3527,-0.3506,-0.3546,-0.3632,-0.3884,-0.4119,-0.4381,-0.4556,-0.495,-0.5541,-0.5329,-0.5062,-0.4736,-0.4293,-0.4153,-0.4141,0.0,0.0,0.0,0.0,0.0,0.0,-0.2746,-0.2712,-0.2712,0.0,0.0,0.0,0.0,0.0,0.0,0.0,0.0,0.0,-0.2734,-0.289,-0.3046,-0.2988,-0.3151,-0.3385,-0.3537,-0.3795,0.0,0.0,0.0,0.0,0.0,0.0,0.0,0.0,0.0,0.0,0.0,0.0,0.0,0.0,0.0,0.0,0.0,0.0,0.0,0.0,0.0,0.0,0.0,0.0,0.0,0.0,0.0,0.0,-0.8038,-0.8038,-0.8038,-0.8038,-0.8038,-0.8432,-0.941,-0.941,-0.9899,-1.0779,-1.117,-1.0681,-0.941,-1.0779,-1.1365,-1.1361,-1.175,-1.1658,-1.1268,-1.0386,-0.9217,-0.8038,-0.8038,-0.8038,-0.8137,-0.9509,-1.0779,-1.2042,0.0,0.0,0.0,0.0,0.0,0.0,0.0,0.0,0.0,0.0,0.0,0.0,0.0,0.0,0.0,0.0,0.0,0.0,0.0,0.0,-0.3506,-0.3506,-0.3701,-0.3901,-0.416,-0.4316,-0.4531,-0.4837,-0.4582,-0.4279,-0.3894,-0.3669,-0.359,-0.3625,0.0,-0.3232,0.0,0.0,0.0,0.0,-0.2712,-0.2712,-0.2712,0.0,0.0,0.0,0.0,0.0,0.0,0.0,0.0,0.0,-0.2712,-0.2801,-0.2951,-0.2985,-0.3205,-0.3533,-0.3697,0.0,0.0,0.0,0.0,0.0,0.0,0.0,0.0,0.0,0.0,0.0,0.0,0.0,0.0,0.0,0.0,0.0,0.0,0.0,0.0,0.0,0.0,0.0,0.0,0.0,0.0,0.0,0.0,-0.9608,-0.8825,-0.8825,-0.8825,-0.8825,-0.9312,-0.9899,-1.0779,-1.0779,-1.117,-1.195,-1.2431,-1.2328,-1.1551,-1.2328,-1.2716,-1.2716,-1.2716,-1.2716,-1.2522,-1.0779,-0.9509,-0.8726,-0.8237,-0.8333,-0.892,-1.0288,-1.1556,-1.2915,0.0,0.0,-0.5444,-0.5146,0.0,0.0,0.0,0.0,0.0,0.0,0.0,-0.4971,0.0,0.0,0.0,-0.389,0.0,0.0,0.0,0.0,-0.3506,-0.3506,-0.3516,-0.3775,-0.4316,-0.4298,-0.4118,-0.3713,-0.3546,-0.3317,-0.3039,-0.2921,-0.2957,-0.308,0.0,-0.308,0.0,0.0,0.0,-0.2712,-0.2712,-0.2712,-0.2712,-0.2699,0.0,0.0,0.0,0.0,0.0,0.0,0.0,0.0,-0.2712,-0.2733,-0.2771,-0.3029,-0.3337,-0.3656,0.0,0.0,0.0,0.0,0.0,0.0,0.0,0.0,0.0,0.0,0.0,0.0,0.0,0.0,0.0,0.0,0.0,0.0,0.0,0.0,0.0,0.0,0.0,0.0,0.0,0.0,0.0,0.0,0.0,-1.0147,-0.9972,-1.007,-1.0079,-0.9998,-1.1263,-1.1945,-1.2042,-1.2042,-1.2139,-1.2237,-1.3494,-1.407,-1.407,-1.407,-1.407,-1.407,-1.407,-1.3974,-1.368,-1.1356,-1.0288,-1.0096,-0.8825,-0.9118,-1.0288,-1.1653,-1.2813,-1.407,0.0,0.0,-0.5659,-0.5185,0.0,0.0,0.0,0.0,-0.5108,-0.5108,-0.4912,-0.4686,-0.4406,-0.415,0.0,-0.3605,-0.3527,0.0,0.0,0.0,-0.3506,-0.3506,-0.3603,-0.3676,-0.3703,-0.3593,-0.3392,-0.3087,-0.316,-0.2996,0.0,0.0,0.0,-0.2774,0.0,-0.2774,0.0,0.0,-0.271,-0.2712,-0.2712,-0.2712,-0.2702,-0.2579,-0.2606,0.0,0.0,0.0,0.0,0.0,0.0,0.0,-0.2712,-0.2839,-0.3015,-0.2968,-0.3331,-0.3761,0.0,0.0,0.0,0.0,0.0,0.0,0.0,0.0,0.0,0.0,0.0,0.0,0.0,0.0,0.0,0.0,0.0,0.0,0.0,0.0,0.0,0.0,0.0,0.0,0.0,0.0,0.0,0.0,-1.1786,-1.1589,-0.9673,-1.0628,-1.0798,-0.9993,-1.1263,-1.2431,-1.3488,-1.3488,-1.398,-1.4956,-1.5242,-1.5439,-1.5439,-1.5439,-1.5439,-1.5439,-1.5439,-1.4854,-1.3872,-1.3295,-1.2425,-1.1458,-1.1165,-1.1263,-1.1653,-1.3006,-1.368,-1.407,0.0,0.0,0.0,0.0,0.0,0.0,0.0,0.0,-0.5108,-0.5108,-0.4873,-0.4587,-0.4333,-0.4068,0.0,0.0,-0.3506,-0.3506,0.0,0.0,0.0,-0.3309,-0.3495,-0.3502,-0.3321,-0.311,-0.2974,-0.2887,-0.2737,0.0,0.0,0.0,0.0,-0.2896,0.0,-0.292,0.0,0.0,-0.2671,-0.2603,-0.2603,-0.2603,-0.2596,-0.2513,-0.2489,-0.2466,-0.2486,0.0,0.0,0.0,0.0,0.0,0.0,0.0,-0.2924,-0.2991,-0.328,-0.3626,0.0,0.0,0.0,0.0,0.0,0.0,0.0,0.0,0.0,0.0,0.0,0.0,0.0,0.0,0.0,0.0,0.0,0.0,0.0,0.0,0.0,0.0,0.0,0.0,0.0,0.0,0.0,0.0,-1.2649,-1.2431,-1.1258,-1.1817,-1.1962,-1.1427,-1.2875,-1.3892,-1.4653,-1.4785,-1.514,-1.5832,-1.5832,-1.5832,-1.5832,-1.5832,-1.5832,-1.5832,-1.5832,-1.5439,-1.4752,-1.4166,-1.3488,-1.2813,-1.2139,-1.2334,-1.2909,-1.368,-1.4268,-1.4854,0.0,0.0,0.0,0.0,0.0,0.0,0.0,0.0,0.0,-0.5108,-0.4834,-0.4547,-0.4333,-0.4007,-0.3751,0.0,0.0,0.0,-0.3506,0.0,0.0,0.0,-0.322,-0.3198,-0.2939,-0.2708,-0.2638,-0.2777,0.0,0.0,0.0,0.0,0.0,-0.3088,0.0,0.0,0.0,-0.2717,-0.2599,-0.2513,-0.2455,-0.2445,-0.2445,-0.2417,-0.232,-0.2224,-0.2373,-0.2438,-0.2503,-0.263,0.0,0.0,0.0,0.0,-0.2734,-0.3005,-0.3169,-0.3386,0.0,0.0,0.0,0.0,0.0,0.0,0.0,0.0,0.0,0.0,0.0,0.0,0.0,0.0,0.0,0.0,0.0,0.0,0.0,0.0,0.0,0.0,0.0,0.0,0.0,0.0,0.0,0.0,-1.3159,-1.3087,-1.2948,-1.3134,-1.3158,-1.3012,-1.4532,-1.5317,-1.5317,-1.5558,-1.5678,-1.5678,-1.5732,-1.5752,-1.5758,-1.5805,-1.5832,-1.5832,-1.5832,-1.5832,-1.573,-1.4657,-1.4262,-1.4076,-1.3011,-1.3204,-1.4262,-1.4262,-1.4854,-1.5832,0.0,0.0,0.0,0.0,0.0,0.0,0.0,0.0,0.0,0.0,-0.4666,-0.4354,-0.4313,-0.3848,-0.3548,-0.3506,-0.3506,-0.3506,0.0,0.0,0.0,0.0,-0.2681,-0.2473,-0.231,-0.2178,-0.216,-0.229,0.0,0.0,0.0,0.0,0.0,-0.3113,0.0,0.0,0.0,0.0,-0.2503,-0.2472,-0.2316,-0.2238,-0.2224,-0.212,-0.2114,-0.2197,-0.211,-0.2263,-0.2516,-0.2506,-0.2603,0.0,0.0,0.0,-0.2713,-0.2886,-0.3095,0.0,0.0,0.0,0.0,0.0,0.0,0.0,0.0,0.0,0.0,0.0,0.0,0.0,0.0,0.0,0.0,0.0,0.0,0.0,0.0,0.0,0.0,0.0,0.0,0.0,0.0,0.0,0.0,0.0,-1.394,-1.3601,-1.268,-1.3674,-1.3875,-1.3006,-1.4347,-1.5023,-1.5023,-1.5064,-1.5077,-1.5084,-1.5337,-1.5451,-1.5464,-1.5712,-1.5832,-1.5832,-1.5832,-1.5832,-1.5825,-1.5635,-1.554,-1.5534,-1.5343,-1.5439,-1.554,-1.554,-1.5635,-1.5832,0.0,0.0,0.0,0.0,0.0,0.0,0.0,0.0,0.0,0.0,0.0,-0.4068,-0.4068,-0.3731,-0.3506,-0.3506,-0.3506,0.0,0.0,0.0,0.0,0.0,-0.2457,-0.2192,-0.1981,-0.1916,-0.1957,0.0,0.0,0.0,0.0,-0.3029,-0.3195,0.0,0.0,0.0,0.0,0.0,0.0,-0.232,-0.2144,-0.2234,-0.2452,-0.213,-0.2154,-0.2327,-0.2093,-0.215,-0.2344,-0.2455,-0.2585,-0.2712,-0.2712,0.0,0.0,0.0,0.0,0.0,0.0,0.0,0.0,0.0,0.0,0.0,0.0,0.0,0.0,0.0,0.0,0.0,0.0,0.0,0.0,0.0,0.0,0.0,0.0,0.0,0.0,0.0,0.0,0.0,0.0,0.0,0.0,0.0,-1.4088,-1.3881,-1.3477,-1.4012,-1.4071,-1.366,-1.4353,-1.4716,-1.4716,-1.4877,-1.4963,-1.4963,-1.5097,-1.5237,-1.5398,-1.5531,-1.5671,-1.5832,-1.5832,-1.5832,-1.5832,-1.5832,-1.5832,-1.5832,-1.5832,-1.5832,-1.5832,-1.5832,-1.5832,-1.5832,0.0,0.0,0.0,0.0,0.0,0.0,0.0,0.0,0.0,0.0,0.0,-0.3911,-0.3911,0.0,0.0,0.0,-0.3506,0.0,0.0,0.0,0.0,0.0,0.0,-0.2,-0.1803,-0.1803,0.0,0.0,0.0,0.0,-0.3082,-0.3161,-0.3439,0.0,-0.364,0.0,0.0,0.0,0.0,-0.2365,-0.2242,-0.2381,-0.2685,-0.2391,-0.2428,-0.2616,-0.2286,-0.2251,0.0,0.0,-0.2585,-0.2712,0.0,0.0,0.0,0.0,0.0,0.0,0.0,0.0,0.0,0.0,0.0,0.0,0.0,0.0,0.0,0.0,0.0,0.0,0.0,0.0,0.0,0.0,0.0,0.0,0.0,0.0,0.0,0.0,0.0,0.0,0.0,0.0,0.0,0.0,-1.4088,-1.4088,-1.4088,-1.4088,-1.4088,-1.4088,-1.4295,-1.4409,-1.4409,-1.4629,-1.4743,-1.4743,-1.4816,-1.4963,-1.5177,-1.5251,-1.5444,-1.5725,-1.5798,-1.5832,-1.5832,-1.5832,-1.5832,-1.5832,-1.5832,-1.5832,-1.5832,-1.5832,-1.5832,-1.5832,0.0,0.0,0.0,0.0,0.0,0.0,0.0,0.0,0.0,0.0,0.0,-0.3911,-0.3911,-0.3668,-0.3506,-0.3506,-0.3506,0.0,0.0,0.0,0.0,0.0,0.0,0.0,0.0,0.0,0.0,0.0,0.0,0.0,-0.3085,-0.3313,-0.3656,-0.416,-0.3907,-0.3609,-0.3276,0.0,0.0,-0.2862,-0.2706,-0.2692,-0.271,-0.2964,-0.3073,-0.3046,-0.2751,0.0,0.0,0.0,0.0,0.0,0.0,-0.2712,-0.2712,0.0,0.0,0.0,0.0,0.0,0.0,0.0,0.0,0.0,0.0,0.0,0.0,0.0,0.0,0.0,0.0,0.0,0.0,0.0,0.0,0.0,0.0,0.0,0.0,0.0,0.0,0.0,0.0,0.0,0.0,0.0,-1.4088,-1.4088,-1.4088,-1.4088,-1.4088,-1.4088,-1.4102,-1.4108,-1.4108,-1.4122,-1.4135,-1.4135,-1.4409,-1.4549,-1.4576,-1.4856,-1.5144,-1.5431,-1.5712,-1.5832,-1.5832,-1.5832,-1.5832,-1.5832,-1.5832,-1.5832,-1.5832,-1.5832,-1.5832,-1.5832,0.0,0.0,0.0,0.0,0.0,0.0,0.0,0.0,0.0,0.0,0.0,0.0,0.0,-0.3569,-0.3506,-0.3506,-0.3506,0.0,0.0,0.0,0.0,0.0,0.0,0.0,0.0,0.0,0.0,0.0,0.0,-0.2198,-0.2839,-0.2929,-0.3231,-0.3673,-0.3659,-0.3646,-0.3595,-0.3008,0.0,-0.2903,-0.2849,-0.2998,-0.3249,-0.3158,-0.33,-0.35,0.0,0.0,0.0,0.0,0.0,0.0,-0.2825,-0.2761,-0.2712,-0.2712,0.0,0.0,0.0,0.0,0.0,0.0,0.0,0.0,0.0,0.0,0.0,0.0,0.0,0.0,0.0,0.0,0.0,0.0,0.0,0.0,0.0,0.0,0.0,0.0,0.0,0.0,0.0,0.0,0.0,0.0,0.0,-1.4088,-1.4088,-1.4088,-1.4088,-1.4088,-1.4088,-1.4088,-1.4088,-1.4088,-1.4088,-1.4088,-1.4195,-1.4342,-1.4522,-1.4629,-1.4843,-1.5124,-1.5224,-1.5484,-1.5832,-1.5832,-1.5832,-1.5832,-1.5832,-1.5832,-1.5832,-1.5832,-1.5832,-1.5832,0.0,0.0,0.0,-0.5108,0.0,-0.503,-0.4853,-0.4686,-0.4426,-0.4068,0.0,0.0,0.0,0.0,-0.3506,-0.3506,-0.3421,-0.3372,-0.3372,0.0,0.0,0.0,0.0,0.0,0.0,0.0,0.0,0.0,0.0,0.0,0.0,-0.2635,-0.2929,-0.3313,-0.3317,-0.3442,0.0,0.0,0.0,-0.3137,0.0,0.0,-0.3646,0.0,-0.3754,-0.3965,0.0,0.0,0.0,0.0,0.0,0.0,-0.2998,-0.2842,-0.2712,-0.2712,-0.2856,0.0,0.0,0.0,0.0,0.0,0.0,0.0,0.0,0.0,0.0,0.0,0.0,0.0,0.0,0.0,0.0,0.0,0.0,0.0,0.0,0.0,0.0,0.0,0.0,0.0,0.0,0.0,0.0,0.0,0.0,0.0,-1.3941,-1.4035,-1.4088,-1.4088,-1.4088,-1.4088,-1.4088,-1.4088,-1.4088,-1.4088,-1.4088,-1.4188,-1.4376,-1.4376,-1.4536,-1.4816,-1.4816,-1.5144,-1.5685,-1.5685,-1.5745,-1.5832,-1.5832,-1.5832,-1.5832,-1.5832,-1.5832,-1.5832,-0.5108,-0.5108,-0.5108,-0.5108,-0.5108,-0.4932,-0.4406,-0.4333,-0.413,-0.3605,0.0,0.0,0.0,0.0,0.0,-0.3519,-0.3278,-0.3122,-0.3111,-0.2853,0.0,0.0,0.0,0.0,0.0,0.0,0.0,0.0,0.0,0.0,0.0,0.0,-0.2818,-0.3086,-0.2801,-0.3042,-0.3605,0.0,-0.3565,-0.3592,0.0,-0.3792,-0.3853,0.0,0.0,0.0,-0.4141,-0.4036,0.0,-0.3704,0.0,0.0,0.0,-0.2927,-0.2726,-0.2723,-0.2798,0.0,0.0,0.0,0.0,0.0,0.0,0.0,0.0,0.0,0.0,0.0,0.0,0.0,0.0,0.0,0.0,0.0,0.0,0.0,0.0,0.0,0.0,0.0,0.0,0.0,0.0,0.0,0.0,0.0,-1.3467,-1.3627,-1.3627,-1.3915,-1.4082,-1.4088,-1.4088,-1.4088,-1.4088,-1.4088,-1.4088,-1.4088,-1.4088,-1.4088,-1.4088,-1.4088,-1.4242,-1.4502,-1.4502,-1.4836,-1.5371,-1.5391,-1.5565,-1.5832,-1.5832,-1.5832,-1.5832,-1.5832,-1.5832,-1.5832,-0.5387,-0.5233,-0.5108,-0.5108,-0.5108,-0.5049,-0.4912,-0.4873,-0.4745,0.0,0.0,0.0,-0.3836,-0.3825,-0.3871,-0.3871,-0.3795,-0.3641,-0.3413,-0.3132,-0.2982,-0.2982,-0.281,-0.2654,0.0,0.0,0.0,0.0,0.0,0.0,0.0,0.0,0.0,0.0,-0.2677,-0.2929,-0.3574,-0.3121,0.0,0.0,-0.3622,-0.3832,0.0,0.0,0.0,0.0,0.0,-0.4433,-0.4328,0.0,-0.4046,-0.3721,0.0,0.0,-0.2978,-0.2876,-0.2988,-0.3142,-0.2968,0.0,0.0,0.0,0.0,0.0,0.0,0.0,0.0,0.0,0.0,0.0,0.0,0.0,0.0,0.0,0.0,0.0,0.0,0.0,0.0,0.0,0.0,0.0,0.0,0.0,0.0,0.0,-1.3287,-1.3327,-1.3327,-1.3607,-1.3868,-1.4082,-1.4088,-1.4088,-1.4088,-1.4088,-1.4088,-1.4088,-1.4088,-1.4088,-1.4088,-1.4088,-1.4128,-1.4208,-1.4208,-1.4416,-1.4796,-1.5224,-1.5565,-1.5832,-1.5832,-1.5832,-1.5832,-1.5832,-1.5832,-1.5832,-0.5349,-0.5214,-0.5166,-0.5351,-0.54,-0.5418,-0.5464,-0.5331,-0.5134,0.0,0.0,0.0,-0.4134,-0.4248,-0.4282,-0.4187,-0.4066,-0.3918,-0.3721,-0.3443,-0.3266,-0.3266,-0.3111,-0.2982,-0.2875,0.0,0.0,0.0,0.0,0.0,0.0,0.0,0.0,0.0,-0.269,-0.2838,-0.3299,-0.3058,0.0,0.0,-0.3778,0.0,0.0,-0.429,-0.4429,0.0,0.0,0.0,-0.4653,-0.4653,-0.4412,0.0,0.0,-0.3385,-0.3269,-0.3059,-0.3253,0.0,0.0,0.0,0.0,0.0,0.0,0.0,0.0,-0.4756,0.0,0.0,0.0,0.0,0.0,0.0,0.0,0.0,0.0,0.0,0.0,0.0,0.0,0.0,0.0,0.0,0.0,-1.2832,-1.2832,-1.2832,-1.2946,-1.3073,-1.32,-1.3487,-1.3721,-1.3895,-1.4021,-1.4088,-1.4088,-1.4088,-1.4088,-1.4088,-1.4088,-1.4088,-1.4088,-1.4088,-1.4088,-1.4088,-1.4088,-1.4255,-1.4543,-1.489,-1.5271,-1.5658,-1.5785,-1.5832,-1.5832,-1.5832,-1.5832,-1.5832,0.0,-0.5185,-0.5322,-0.5793,-0.5872,-0.5918,-0.6089,-0.5759,-0.544,0.0,-0.481,-0.455,-0.4589,-0.4741,-0.4768,-0.4569,-0.4255,-0.4079,-0.4045,-0.3741,-0.3539,-0.3506,-0.3506,-0.3393,-0.3153,-0.3132,0.0,0.0,0.0,0.0,0.0,0.0,0.0,0.0,-0.2767,-0.2816,-0.3039,-0.3284,-0.3677,-0.4165,-0.4058,-0.414,0.0,0.0,-0.4791,-0.5006,-0.5024,-0.5121,-0.5182,-0.5182,-0.4937,0.0,0.0,-0.3848,-0.3725,-0.3283,-0.349,0.0,-0.3519,-0.4176,0.0,0.0,-0.4998,0.0,-0.544,-0.4994,-0.4563,0.0,0.0,0.0,0.0,0.0,0.0,0.0,0.0,0.0,0.0,0.0,0.0,0.0,0.0,0.0,-1.2305,-1.2305,-1.2305,-1.2305,-1.2545,-1.2832,-1.314,-1.34,-1.3561,-1.3512,-1.3881,-1.4041,-1.4041,-1.4075,-1.4088,-1.4088,-1.4088,-1.4088,-1.4088,-1.4088,-1.4088,-1.4088,-1.4088,-1.4235,-1.4476,-1.4502,-1.485,-1.5378,-1.5631,-1.5752,-1.5785,-1.5785,-1.5798,-1.5832,-0.5607,-0.5654,-0.5791,-0.6211,-0.6289,-0.6411,-0.6816,-0.6489,-0.6286,-0.6516,-0.5897,-0.5536,-0.5834,-0.5477,-0.5264,-0.5438,-0.494,-0.4542,-0.4335,-0.4072,-0.3781,-0.3519,-0.3506,-0.3485,-0.3421,-0.3421,-0.3287,0.0,0.0,0.0,0.0,0.0,0.0,0.0,-0.2805,-0.3093,-0.3788,-0.3831,0.0,-0.5273,-0.4362,0.0,-0.6042,-0.5688,-0.6158,-0.6963,-0.7067,-0.7149,-0.7126,-0.7126,-0.6939,-0.6563,0.0,-0.5285,-0.4936,-0.3933,-0.3809,-0.3934,-0.3754,-0.4396,-0.5043,-0.5082,0.0,0.0,-0.5952,-0.6219,-0.641,0.0,0.0,0.0,0.0,0.0,0.0,0.0,0.0,0.0,0.0,0.0,0.0,0.0,0.0,0.0,-1.2305,-1.2305,-1.2305,-1.2305,-1.2358,-1.2518,-1.2896,-1.297,-1.3039,-1.3287,-1.3574,-1.3728,-1.3728,-1.3968,-1.4088,-1.4088,-1.4088,-1.4088,-1.4088,-1.4088,-1.4088,-1.4088,-1.4088,-1.4122,-1.4188,-1.4422,-1.473,-1.5057,-1.511,-1.5277,-1.5478,-1.5478,-1.5625,-1.5832,-0.6029,-0.6094,-0.6299,-0.6927,-0.7044,-0.7285,-0.7949,-0.7453,-0.7099,-0.7399,-0.6935,-0.6501,-0.6246,-0.6152,-0.6032,-0.5738,-0.5311,-0.4937,-0.4608,-0.4215,-0.3925,-0.3754,-0.3586,-0.3572,-0.3748,-0.3579,-0.3514,-0.3538,0.0,0.0,0.0,0.0,0.0,0.0,-0.3457,-0.3795,-0.4538,0.0,-0.518,-0.6002,-0.5296,0.0,-0.6701,-0.6488,-0.6904,-0.7593,-0.7701,-0.7751,-0.7818,-0.7588,-0.7423,0.0,-0.6519,-0.6312,-0.6065,0.0,-0.4833,-0.4824,-0.4177,-0.4626,-0.534,-0.5439,0.0,0.0,0.0,-0.6299,-0.6253,-0.6368,-0.6623,0.0,0.0,0.0,0.0,0.0,0.0,0.0,0.0,0.0,0.0,0.0,0.0,0.0,-1.2071,-1.2084,-1.2144,-1.2291,-1.2305,-1.2365,-1.2518,-1.2741,-1.2896,-1.2973,-1.3267,-1.3427,-1.3427,-1.3721,-1.3868,-1.3868,-1.4015,-1.4088,-1.4088,-1.4088,-1.4088,-1.4088,-1.4088,-1.4088,-1.4095,-1.4249,-1.4396,-1.4556,-1.485,-1.5057,-1.5177,-1.5177,-1.5364,-1.5611,-0.6523,-0.6543,-0.6787,-0.7559,-0.7773,-0.8115,-0.8887,-0.8376,-0.7932,-0.8065,-0.7765,-0.7264,0.0,0.0,0.0,0.0,-0.5765,-0.5404,-0.508,-0.4549,-0.422,-0.4166,-0.3854,-0.3808,-0.4072,-0.3761,-0.3701,-0.3911,0.0,0.0,0.0,-0.3566,-0.3871,-0.4395,0.0,0.0,0.0,0.0,0.0,-0.6674,0.0,-0.6743,-0.7203,-0.733,-0.7693,-0.818,-0.8229,-0.8375,-0.8414,-0.7978,-0.7833,-0.7752,-0.7223,-0.7245,0.0,0.0,0.0,0.0,0.0,0.0,-0.6123,0.0,0.0,-0.6128,0.0,0.0,0.0,-0.6764,0.0,0.0,0.0,0.0,0.0,0.0,0.0,0.0,0.0,0.0,0.0,0.0,0.0,0.0,-1.1677,-1.1703,-1.1824,-1.2111,-1.2131,-1.2158,-1.2218,-1.2498,-1.2735,-1.2735,-1.2959,-1.312,-1.312,-1.3467,-1.3559,-1.3566,-1.3948,-1.4088,-1.4088,-1.4088,-1.4088,-1.4088,-1.4088,-1.4088,-1.4088,-1.4088,-1.4088,-1.4135,-1.4609,-1.483,-1.4877,-1.4877,-1.5097,-1.5398,-0.7012,-0.7021,-0.7178,-0.7618,-0.8047,-0.8467,-0.8936,-0.8902,-0.8747,0.0,0.0,0.0,0.0,0.0,0.0,0.0,0.0,0.0,-0.6062,-0.549,-0.501,-0.4721,-0.4436,-0.4322,-0.4355,-0.4093,-0.3808,-0.3559,0.0,0.0,0.0,0.0,-0.4119,-0.4416,-0.4608,0.0,0.0,0.0,-0.674,0.0,-0.8036,-0.8306,0.0,-0.8492,-0.8985,-0.9836,-1.0158,-1.0268,-1.0249,0.0,-0.9758,-0.9594,0.0,-0.824,-0.8172,-0.6843,0.0,0.0,0.0,0.0,0.0,0.0,-0.8063,0.0,0.0,0.0,-0.7571,-0.8101,0.0,0.0,0.0,0.0,0.0,0.0,0.0,0.0,0.0,0.0,0.0,0.0,0.0,0.0,0.0,-1.1089,-1.1216,-1.1503,-1.1523,-1.1637,-1.1904,-1.2198,-1.2351,-1.2351,-1.2639,-1.2876,-1.2876,-1.336,-1.3559,-1.3566,-1.3948,-1.4088,-1.4088,-1.4088,-1.4088,-1.4088,-1.4088,-1.4088,-1.4088,-1.4088,-1.4088,-1.4095,-1.4162,-1.4342,-1.4569,-1.4569,-1.4923,-1.5398,-0.7412,-0.7433,-0.7598,-0.8027,-0.8252,-0.8603,-0.9268,-0.9687,-0.9621,0.0,0.0,0.0,0.0,0.0,0.0,0.0,0.0,-0.6942,0.0,0.0,-0.5692,-0.5325,-0.4874,-0.4736,-0.491,-0.4321,-0.4012,-0.4011,-0.3672,0.0,0.0,0.0,-0.4334,-0.4923,-0.5217,0.0,-0.6955,0.0,-0.7308,0.0,0.0,0.0,0.0,-0.9292,-0.9864,-1.0388,-1.0577,-1.0624,-1.0577,0.0,-1.0007,0.0,0.0,0.0,0.0,-0.8017,0.0,0.0,0.0,0.0,0.0,0.0,0.0,0.0,-0.8069,0.0,-0.7853,0.0,0.0,0.0,0.0,0.0,0.0,0.0,-0.8911,0.0,0.0,0.0,0.0,0.0,0.0,0.0,0.0,0.0,0.0,0.0,-1.1082,-1.1303,-1.1597,-1.1891,-1.2131,-1.2298,-1.2425,-1.2485,-1.2485,-1.2906,-1.3213,-1.3394,-1.3687,-1.3921,-1.4088,-1.4088,-1.4088,-1.4088,-1.4088,-1.4088,-1.4088,-1.4088,-1.4088,-1.4088,-1.4088,-1.4162,-1.4269,-1.4269,-1.4536,-1.491,-0.7637,0.0,-0.7802,-0.8145,-0.8389,-0.8877,-0.9797,-1.0229,-1.025,-0.9594,0.0,0.0,-0.8964,-0.8964,0.0,0.0,-0.8564,-0.8229,0.0,0.0,-0.6635,-0.6495,-0.5651,-0.5297,-0.5551,-0.4765,-0.4381,-0.4402,-0.3951,-0.3745,0.0,0.0,-0.4617,-0.5329,0.0,-0.6513,-0.752,0.0,-0.7936,-0.8287,-0.8844,-0.9145,-0.9345,-0.9907,-1.0301,-1.0624,-1.0624,-1.0624,-1.0577,-1.0214,-0.9973,0.0,-0.996,0.0,-0.9392,0.0,0.0,0.0,-0.8154,0.0,0.0,0.0,0.0,0.0,0.0,0.0,0.0,0.0,0.0,0.0,0.0,0.0,0.0,0.0,0.0,-0.8738,0.0,0.0,0.0,0.0,0.0,0.0,0.0,0.0,0.0,0.0,0.0,-1.0795,-1.1169,-1.1543,-1.1884,-1.2178,-1.2265,-1.2305,-1.2305,-1.2599,-1.2936,-1.3086,-1.3467,-1.3761,-1.3968,-1.4048,-1.4088,-1.4088,-1.4088,-1.4088,-1.4088,-1.4088,-1.3906,-1.3646,-1.3646,-1.3646,-1.3646,-1.3997,-1.4322,-1.4581,-0.7695,-0.7695,0.0,0.0,-0.8437,-0.9414,-1.0674,-1.0433,-1.0353,-1.1018,0.0,0.0,0.0,0.0,0.0,0.0,0.0,-1.0755,-1.0474,0.0,-0.8143,-0.8405,-0.6966,-0.6156,0.0,-0.5578,-0.4963,-0.4402,-0.4382,-0.4375,0.0,0.0,0.0,0.0,-0.6179,-0.6901,-0.7553,-0.8145,-0.8677,-0.917,-0.9532,-1.0,-1.0537,0.0,-1.0301,-1.0624,-1.0624,0.0,0.0,-1.0214,-1.0107,0.0,0.0,0.0,0.0,0.0,0.0,0.0,0.0,0.0,0.0,-0.9767,0.0,0.0,0.0,0.0,-0.8306,0.0,0.0,0.0,0.0,0.0,0.0,0.0,0.0,0.0,0.0,0.0,0.0,0.0,0.0,0.0,0.0,0.0,-0.9412,0.0,-0.9719,0.0,-1.0618,-1.1129,-1.1577,-1.187,-1.2151,-1.2305,-1.2305,-1.2599,-1.2829,-1.2842,-1.336,-1.3647,-1.3667,-1.3955,-1.4088,-1.4088,-1.4088,-1.4088,-1.4088,-1.4088,-1.3379,-1.2328,-1.2328,-1.2328,-1.2504,-1.3646,-1.4456,-1.4764,0.0,0.0,0.0,0.0,0.0,-0.9111,-1.0674,-1.1224,-1.1621,0.0,-1.1685,0.0,0.0,-1.1663,-1.1663,0.0,0.0,-1.1399,-1.0569,-0.9802,0.0,-0.9101,-0.7785,-0.7273,0.0,-0.6521,-0.5799,-0.5598,-0.4977,-0.479,0.0,0.0,0.0,0.0,0.0,-0.7208,0.0,0.0,0.0,0.0,0.0,-1.0033,-1.0611,0.0,-1.0474,-1.0624,-1.0624,-1.0624,0.0,-1.0448,-1.0281,-1.0134,-1.0234,-1.006,-0.9846,-0.994,-1.0114,-1.0287,0.0,0.0,-1.0755,-1.0361,0.0,0.0,0.0,0.0,0.0,0.0,0.0,0.0,0.0,0.0,0.0,0.0,0.0,0.0,0.0,0.0,0.0,0.0,0.0,0.0,0.0,0.0,0.0,0.0,-0.9359,0.0,0.0,-1.1002,-1.1563,-1.1857,-1.2151,-1.2305,-1.2305,-1.2405,-1.2552,-1.2829,-1.2953,-1.316,-1.3367,-1.3661,-1.3794,-1.3808,-1.4001,-1.4088,-1.4088,-1.4088,-1.3822,-1.3379,-1.2589,-1.2328,-1.2328,-1.2766,-1.35,-1.4256,-0.8633,0.0,0.0,0.0,0.0,-0.958,-1.1143,-1.1992,0.0,0.0,-1.2782,0.0,-1.2926,0.0,-1.2837,0.0,-1.3077,-1.2683,-1.1859,-1.1278,0.0,-1.0497,-0.9274,-0.8822,0.0,0.0,-0.6909,-0.6682,-0.5841,-0.5504,0.0,0.0,0.0,0.0,0.0,-0.7301,-0.7836,0.0,-0.9292,0.0,0.0,-1.0221,0.0,0.0,-1.0624,-1.0624,0.0,-1.0624,-1.0624,-1.0624,-1.0434,-1.0327,-1.0621,-1.0454,-1.0207,-1.0494,-1.0581,-1.0621,-1.0815,-1.1002,0.0,-1.0788,-1.0568,0.0,-0.9552,0.0,-0.9439,0.0,0.0,0.0,0.0,0.0,0.0,0.0,0.0,0.0,0.0,-0.8176,0.0,0.0,0.0,0.0,0.0,0.0,-0.8824,-0.855,-0.8958,0.0,0.0,-1.0695,-1.1303,-1.1697,-1.2098,-1.2305,-1.2305,-1.2305,-1.2398,-1.2592,-1.2768,-1.2929,-1.306,-1.346,-1.3559,-1.3661,-1.3955,-1.4088,-1.4088,-1.4088,-1.3822,-1.3379,-1.2589,-1.2328,-1.2237,-1.1809,-1.1957,-1.2377,-0.915,0.0,0.0,0.0,-0.9814,0.0,0.0,0.0,-1.3096,0.0,-1.3352,-1.3377,-1.3711,-1.3862,-1.4008,-1.4236,-1.463,-1.4639,-1.4111,-1.3265,0.0,0.0,-1.1355,-1.0689,-1.0672,0.0,0.0,0.0,-0.6969,-0.6492,0.0,0.0,0.0,0.0,-0.6821,0.0,-0.7673,-0.9112,-0.9758,-0.9773,-1.0396,-1.0624,-1.0624,-1.0624,-1.0618,-1.0624,-1.0624,-1.0624,-1.0624,-1.0624,-1.0631,-1.0628,-1.0909,-1.1002,-1.1069,-1.1349,-1.1423,-1.143,-1.1443,-1.145,-1.1383,-1.1102,-1.1022,0.0,0.0,0.0,-0.9993,0.0,0.0,0.0,0.0,0.0,0.0,0.0,0.0,0.0,0.0,0.0,0.0,0.0,0.0,0.0,0.0,0.0,-0.8484,-0.8744,-0.855,0.0,0.0,-1.0234,-1.0822,-1.1383,-1.1977,-1.2285,-1.2305,-1.2305,-1.2305,-1.2305,-1.2592,-1.2808,-1.2842,-1.3353,-1.3627,-1.3661,-1.3955,-1.4088,-1.4088,-1.4088,-1.3379,-1.2413,-1.2322,-1.2242,-1.2066,-1.1037,-1.005,-0.9384,-0.9971,-1.0508,-1.1006,0.0,-1.1309,-1.1498,0.0,0.0,0.0,0.0,-1.4983,-1.5369,-1.5475,-1.5484,-1.5407,-1.5128,-1.5197,0.0,0.0,0.0,0.0,-1.3329,-1.2301,-1.1807,-1.1995,-1.0626,-0.9596,-0.892,0.0,0.0,-0.6787,0.0,0.0,0.0,0.0,0.0,-0.8479,-0.9886,-1.0387,-1.0409,-1.1162,-1.1108,-1.0688,0.0,-1.1108,-1.0624,-1.0624,-1.0624,-1.0624,-1.0624,-1.0701,-1.0895,-1.0969,-1.1142,-1.1329,-1.1403,-1.1423,-1.147,-1.1697,-1.1757,-1.1737,-1.1663,-1.1476,-1.1196,0.0,0.0,0.0,0.0,0.0,0.0,0.0,0.0,0.0,0.0,0.0,0.0,0.0,0.0,0.0,-0.8684,0.0,0.0,0.0,-0.829,-0.8317,-0.817,-0.8691,0.0,0.0,0.0,-1.0728,-1.1096,-1.1677,-1.2084,-1.2298,-1.2305,-1.2305,-1.2305,-1.2378,-1.2532,-1.2835,-1.3146,-1.344,-1.3661,-1.3955,-1.4088,-1.4088,-1.4088,-1.3913,-1.3555,-1.2674,-1.1809,-1.1123,-1.1638,-1.1271,-1.0338,-1.092,0.0,0.0,-1.2471,0.0,0.0,-1.3057,-1.3464,0.0,-1.4707,-1.5361,0.0,-1.5781,-1.6123,-1.626,-1.6006,-1.5996,0.0,-1.4775,0.0,0.0,-1.4166,-1.3579,-1.336,-1.3518,-1.2073,0.0,-1.0532,0.0,0.0,-0.8,0.0,0.0,0.0,0.0,-0.8797,0.0,-1.0178,-1.0799,-1.0972,-1.1958,-1.1834,0.0,-1.1748,-1.1489,-1.0768,-1.0895,-1.0855,-1.0768,-1.0895,-1.1049,-1.1209,-1.1336,-1.149,-1.1643,-1.177,-1.181,-1.1844,-1.2011,-1.2058,-1.2058,-1.2058,-1.1931,-1.1697,-1.1276,-1.1182,-1.1102,0.0,-1.0712,-1.0598,0.0,0.0,0.0,0.0,0.0,0.0,0.0,0.0,0.0,0.0,-0.8697,0.0,-0.7928,-0.8083,-0.811,-0.7895,-0.834,0.0,0.0,0.0,-1.0561,-1.0982,-1.1563,-1.2011,-1.2298,-1.2305,-1.2305,-1.2305,-1.2305,-1.2458,-1.2835,-1.3066,-1.3367,-1.3661,-1.3955,-1.4088,-1.4088,-1.4088,-1.4088,-1.3997,-1.3379,-1.2687,-1.2169,-1.2242,-1.164,-1.0548,-1.1763,0.0,0.0,0.0,0.0,0.0,0.0,-1.4131,0.0,-1.4941,0.0,-1.5732,-1.5674,-1.6357,-1.6797,-1.6738,0.0,-1.6406,-1.5635,-1.5937,-1.5791,-1.499,-1.4951,-1.4902,-1.4785,-1.3406,-1.241,0.0,-1.0475,-0.9548,-0.914,0.0,0.0,0.0,0.0,0.0,0.0,-1.0516,-1.1233,-1.16,-1.2696,-1.2597,-1.1862,-1.221,-1.184,-1.1089,-1.1383,-1.1296,-1.1089,-1.1336,-1.145,-1.153,-1.179,-1.1897,-1.1977,-1.2225,-1.2305,-1.2305,-1.2305,-1.2305,-1.2305,-1.2305,-1.2305,-1.2164,-1.1657,-1.1536,-1.147,-1.1216,-1.0935,-1.0875,0.0,0.0,0.0,0.0,0.0,0.0,0.0,0.0,0.0,0.0,0.0,0.0,-0.8016,-0.7908,-0.7868,-0.7876,-0.7862,0.0,0.0,0.0,-1.0287,-1.0915,-1.1503,-1.1971,-1.2298,-1.2305,-1.2305,-1.2305,-1.2305,-1.2478,-1.2896,-1.3086,-1.3394,-1.3714,-1.3975,-1.4088,-1.4088,-1.4088,-1.4088,-1.4088,-1.4088,-1.4088,-1.3997,-1.2942,-1.1901,-1.0901,-1.2211,0.0,0.0,0.0,0.0,-1.5,-1.5625,-1.5977,-1.6221,-1.6377,-1.707,-1.7422,-1.708,-1.7178,-1.7119,-1.6758,-1.6665,0.0,0.0,0.0,0.0,-1.5919,-1.59,-1.5508,-1.4805,-1.384,-1.2818,-1.1823,-1.0615,-0.9423,-0.8242,0.0,0.0,0.0,0.0,0.0,-1.2147,-1.185,0.0,-1.2797,-1.364,-1.3227,-1.224,-1.2941,-1.243,-1.139,-1.1683,-1.1597,-1.1356,-1.141,-1.159,-1.1797,-1.1857,-1.2037,-1.2238,-1.2285,-1.2305,-1.2305,-1.2305,-1.2305,-1.2305,-1.2305,-1.2305,-1.2278,-1.2171,-1.2151,-1.2131,-1.2084,-1.1844,-1.1597,-1.145,0.0,0.0,0.0,0.0,0.0,0.0,0.0,0.0,0.0,0.0,-0.8617,0.0,-0.8076,-0.7822,-0.7569,0.0,0.0,0.0,0.0,-0.9773,0.0,-1.1202,0.0,0.0,0.0,-1.2305,-1.2305,-1.2305,-1.2592,-1.3133,-1.3186,-1.35,-1.4015,-1.4062,-1.4088,-1.4088,-1.4088,-1.4088,-1.4088,-1.4088,-1.4088,-1.4088,-1.3822,-1.3652,-1.3222,0.0,0.0,0.0,0.0,0.0,0.0,0.0,-1.6973,-1.7236,-1.6787,-1.709,-1.7266,-1.707,-1.7441,-1.7627,-1.7412,-1.7393,-1.7305,-1.709,-1.707,-1.6875,-1.6436,-1.6406,-1.6103,-1.5469,-1.4824,-1.4009,-1.2974,-1.179,-1.0736,-0.9885,-0.9627,0.0,-0.9734,0.0,-1.1616,0.0,0.0,0.0,-1.3803,-1.48,-1.4683,-1.3955,-1.4473,-1.4064,-1.3187,-1.352,-1.3542,-1.3197,-1.2226,-1.1977,-1.2091,-1.2091,-1.2191,-1.2305,-1.2305,-1.2305,-1.2305,-1.2305,-1.2305,-1.2305,-1.2305,-1.2305,-1.2305,-1.2305,-1.2305,-1.2305,-1.2305,-1.2191,-1.1911,-1.1309,-1.0608,0.0,0.0,0.0,0.0,0.0,0.0,0.0,0.0,0.0,0.0,0.0,0.0,0.0,0.0,0.0,0.0,0.0,0.0,-0.9419,0.0,0.0,0.0,-1.2071,0.0,-1.2305,-1.2305,-1.2458,-1.2772,-1.3213,-1.3367,-1.3674,-1.4088,-1.4088,-1.4088,-1.4088,-1.4088,-1.4088,-1.4088,-1.4088,-1.4088,-1.4088,-1.4088,-1.4088,-1.3822,0.0,-1.5584,0.0,0.0,-1.6347,-1.6812,-1.6826,-1.7676,-1.7978,-1.7119,-1.7002,-1.7002,-1.7002,-1.7607,-1.8008,-1.8008,-1.8008,-1.7871,-1.7539,-1.7519,-1.7324,-1.6894,-1.6865,-1.666,-1.6211,-1.5684,-1.499,-1.4077,-1.29,-1.2041,0.0,-1.0871,-1.083,-1.1314,0.0,0.0,0.0,0.0,-1.4089,-1.4986,-1.5882,-1.5936,-1.5604,-1.5846,-1.541,-1.4836,-1.5126,-1.5234,-1.495,-1.3448,-1.2945,-1.2879,-1.2659,-1.2592,-1.2592,-1.2372,-1.2305,-1.2305,-1.2305,-1.2305,-1.2305,-1.2305,-1.2305,-1.2305,-1.2305,-1.2305,-1.2305,-1.2305,-1.2251,-1.1964,-1.1142,-1.0615,0.0,0.0,0.0,0.0,0.0,0.0,0.0,0.0,0.0,0.0,-0.8107,0.0,0.0,0.0,0.0,0.0,-0.8009,0.0,0.0,0.0,0.0,-1.1243,-1.177,0.0,-1.2305,-1.2305,-1.2605,-1.2913,-1.322,-1.3507,-1.3808,-1.4088,-1.4088,-1.4088,-1.4088,-1.4088,-1.4088,-1.4088,-1.4088,-1.4088,-1.4088,-1.4088,-1.4088,-1.3997,0.0,0.0,0.0,0.0,0.0,-1.8602,-1.7494,-1.8369,-1.8857,-1.8008,-1.7891,-1.7891,-1.7891,-1.7959,-1.8008,-1.8008,-1.8008,-1.7988,-1.7959,-1.7949,-1.7764,-1.7344,-1.7324,-1.7119,-1.668,-1.584,-1.499,0.0,0.0,-1.2187,0.0,-1.1341,-1.1939,-1.2695,0.0,0.0,0.0,-1.5158,-1.5681,-1.6476,-1.6587,-1.6317,-1.5851,-1.5887,-1.5575,-1.5184,-1.5217,-1.5234,-1.5163,-1.5021,-1.495,-1.4736,-1.3882,-1.36,-1.3382,-1.2519,-1.2305,-1.2305,-1.2305,-1.2305,-1.2305,-1.2305,-1.2305,-1.2305,-1.2305,-1.2305,-1.2305,-1.2305,-1.2091,-1.1724,-1.1109,-1.0949,-1.0641,0.0,0.0,0.0,0.0,0.0,-0.9183,-0.9183,0.0,0.0,0.0,-0.8016,0.0,0.0,-0.7842,0.0,-0.8317,0.0,0.0,-1.0087,-1.0688,-1.1142,-1.1463,-1.2017,-1.2305,-1.2305,-1.2605,-1.2913,-1.322,-1.3507,-1.3808,-1.4088,-1.4088,-1.4088,-1.4088,-1.4088,-1.4088,-1.4088,-1.4088,-1.4088,-1.4088,-1.4088,-1.4088,-1.4088,0.0,0.0,0.0,0.0,0.0,0.0,0.0,-1.9373,-1.916,-1.8828,-1.8555,-1.8389,-1.8389,-1.8164,-1.8008,-1.8008,-1.8008,-1.8008,-1.8008,-1.8008,-1.7939,-1.7764,-1.7764,-1.7559,-1.7139,-1.6777,-1.6035,0.0,0.0,0.0,-1.209,-1.2002,-1.2559,-1.3643,0.0,-1.4687,-1.5801,-1.5801,-1.6309,-1.7119,-1.7119,-1.7166,-1.7177,-1.7177,-1.7076,-1.6872,-1.6872,-1.6872,-1.6872,-1.6872,-1.6158,-1.5163,-1.4736,-1.4593,-1.4522,-1.4163,-1.3593,-1.3171,-1.3171,-1.2739,-1.2305,-1.2305,-1.2305,-1.2305,-1.2305,-1.2305,-1.2305,-1.2305,-1.2071,-1.1744,-1.1329,-1.0969,-1.0678,-1.0329,0.0,0.0,0.0,0.0,0.0,-0.9506,0.0,-0.8611,0.0,0.0,0.0,0.0,0.0,-0.7789,-0.809,-0.855,0.0,-0.9573,0.0,-1.1049,-1.1169,-1.1917,-1.2305,-1.2311,-1.2792,-1.3093,-1.3227,-1.3694,-1.3975,-1.4088,-1.4088,-1.4088,-1.4088,-1.4088,-1.4088,-1.4088,-1.4088,-1.4088,-1.4088,-1.4088,-1.4088,-1.4088,-2.2783,0.0,-2.1418,0.0,-2.1241,-2.0497,-2.0751,-2.0141,-1.9619,-1.9482,-1.9199,-1.8965,-1.8848,-1.8564,-1.834,-1.8203,-1.8193,-1.8144,-1.8018,-1.8008,-1.8008,-1.8008,-1.8008,0.0,-1.7568,-1.7451,-1.6865,-1.5801,-1.5068,0.0,-1.3613,-1.3311,-1.3711,0.0,-1.5019,-1.5644,-1.6455,-1.6455,-1.6885,-1.7568,-1.7568,-1.7744,-1.8008,-1.8008,-1.8008,-1.8008,-1.8008,-1.8008,-1.8008,-1.8008,-1.7157,-1.5948,-1.5728,-1.5579,-1.5587,-1.5305,-1.4665,-1.4171,-1.4171,-1.3665,-1.3164,-1.3164,-1.2945,-1.2806,-1.3091,-1.2945,-1.2806,-1.3091,-1.2635,-1.2089,-1.1874,-1.1145,-1.0598,-1.0448,0.0,0.0,0.0,-0.9893,0.0,-0.9446,-0.8985,-0.8637,-0.8517,-0.8343,0.0,0.0,0.0,-0.7996,-0.8247,-0.8711,0.0,0.0,0.0,0.0,-1.1122,-1.1904,-1.2305,-1.2311,-1.2919,-1.3213,-1.3227,-1.3821,-1.4088,-1.4088,-1.4088,-1.4088,-1.4088,-1.4088,-1.4088,-1.4088,-1.4088,-1.4088,-1.4088,-1.4088,-1.4088,-1.4088,-2.4601,-2.403,-2.3478,-2.349,-2.3006,-2.2253,-2.096,-2.0666,-2.0391,-1.9961,-1.9902,-1.9746,-1.9326,-1.9277,-1.9102,-1.8592,-1.8562,-1.8457,-1.8037,-1.8008,-1.8008,0.0,0.0,-1.8008,-1.8008,-1.7598,-1.7168,-1.6655,0.0,0.0,-1.5381,-1.5371,-1.5615,-1.6105,-1.6105,-1.6543,-1.7363,-1.7363,-1.7607,-1.8008,-1.8008,-1.8008,-1.8008,-1.8008,-1.8008,-1.8008,-1.8008,-1.8008,-1.8008,-1.8008,-1.8008,-1.7794,-1.6853,-1.6567,-1.6419,-1.5438,-1.5163,-1.5163,-1.5163,-1.5163,-1.5163,-1.5163,-1.445,-1.3954,-1.495,-1.4378,-1.3954,-1.495,-1.3984,-1.2916,-1.2848,-1.1602,-1.0461,-1.0167,0.0,0.0,0.0,-0.9499,0.0,-0.8884,-0.8557,-0.849,-0.8778,-0.8277,0.0,0.0,0.0,-0.8918,-0.915,0.0,0.0,-1.0577,-1.0835,0.0,-1.1416,-1.2004,-1.2305,-1.2311,-1.2919,-1.3213,-1.3227,-1.3821,-1.4088,-1.4088,-1.4088,-1.4088,-1.4088,-1.4088,-1.4088,-1.4088,-1.4088,-1.4088,-1.4088,-1.4088,-1.4088,-1.4088,-2.5937,-2.5722,-2.5574,-2.5574,-2.4857,-2.3893,-2.2789,-2.1998,-2.1247,-2.0448,-2.0361,-2.0303,-2.0176,-1.9639,-1.9238,0.0,-1.9082,-1.9023,0.0,-1.8887,-1.8887,-1.8887,-1.8887,-1.8887,-1.8887,-1.8457,-1.8027,-1.7607,0.0,0.0,0.0,-1.5859,-1.625,-1.6963,-1.6963,-1.7275,-1.7812,-1.7812,-1.7891,-1.8037,-1.832,-1.8437,-1.8467,-1.8769,-1.8887,-1.8887,-1.8887,-1.8887,-1.8887,-1.8887,-1.8887,-1.8806,-1.85,-1.8027,-1.7501,-1.7226,-1.6655,-1.614,-1.614,-1.5658,-1.5234,-1.5234,-1.495,-1.4807,-1.5163,-1.495,-1.4807,-1.5163,-1.4388,-1.3693,-1.3693,-1.2477,-1.1377,-1.1269,-1.0857,0.0,-0.9907,0.0,-0.9539,-0.9145,-0.8844,-0.8704,-0.8798,-0.8637,0.0,0.0,0.0,0.0,0.0,0.0,0.0,0.0,-1.1122,0.0,-1.1423,-1.2011,-1.2405,-1.2688,-1.3013,-1.342,-1.3814,-1.4001,-1.4088,-1.4088,-1.4088,-1.4088,-1.4088,-1.4088,-1.4088,-1.4088,-1.4088,-1.4088,-1.4088,-1.4088,-1.4088,-1.4088,-2.6533,-2.6533,-2.6533,-2.6533,-2.5664,-2.4791,-2.4192,-2.322,-2.2328,-2.1745,-2.1375,-2.1155,-2.1155,-2.0305,0.0,-1.9541,-1.9521,-1.9453,-1.9297,-1.9287,-1.9287,-1.9287,-1.9287,-1.9287,-1.9287,-1.9023,0.0,-1.8496,-1.7793,-1.7305,-1.7021,-1.6865,-1.709,-1.7617,-1.7617,-1.7852,-1.8242,-1.8242,-1.834,-1.8516,-1.8779,-1.8877,-1.8906,-1.918,-1.9287,-1.9287,-1.9287,-1.9287,-1.9287,-1.9287,-1.9287,-1.9287,-1.9287,-1.8926,-1.8496,-1.8496,-1.8037,-1.7567,-1.7409,-1.6933,-1.6404,-1.6263,-1.6018,-1.5728,-1.5728,-1.6009,-1.6228,-1.6228,-1.5512,-1.4769,-1.4632,-1.3212,-1.1984,-1.1787,-1.1108,-1.0477,-1.0007,0.0,-0.9573,0.0,0.0,0.0,0.0,-0.9138,-0.9185,0.0,0.0,0.0,0.0,0.0,0.0,-1.0601,-1.143,-1.183,-1.1757,-1.2118,-1.2452,-1.2829,-1.3173,-1.3627,-1.4088,-1.4088,-1.4088,-1.4088,-1.4088,-1.4088,-1.4088,-1.4088,-1.4088,-1.4088,-1.4088,-1.4088,-1.4088,-1.4088,-1.4088,-1.4088,-2.6533,-2.6533,-2.6533,0.0,-2.5734,-2.5075,-2.5004,-2.4192,-2.3599,-2.3514,-2.2627,-2.2027,-2.2027,-2.1155,-2.04,-2.0,0.0,0.0,-1.9404,-1.9375,-1.9375,-1.9375,-1.9375,-1.9375,-1.9375,-1.9346,-1.9316,-1.9287,-1.8877,-1.8682,-1.8672,-1.8281,-1.8096,-1.8096,-1.8096,-1.8311,-1.8682,-1.8682,-1.8916,-1.9287,-1.9316,-1.9336,-1.9336,-1.9365,-1.9375,-1.9375,-1.9375,-1.9375,-1.9375,-1.9375,-1.9375,-1.9375,-1.9375,-1.9375,-1.9365,-1.9307,-1.9287,-1.9199,-1.8789,-1.8682,-1.8584,-1.8154,-1.7373,-1.6706,-1.6706,-1.7354,-1.8008,-1.8008,-1.7024,-1.6054,-1.5661,-1.3913,-1.2416,-1.1949,-1.1233,-1.0478,-0.9766,-0.9699,-0.9593,0.0,0.0,0.0,-0.9659,-0.9699,-0.9826,0.0,0.0,0.0,0.0,0.0,-1.0581,-1.1396,-1.173,-1.2031,-1.2298,-1.2325,-1.2492,-1.2889,-1.3394,-1.3821,-1.4088,-1.4088,-1.4088,-1.4088,-1.4088,-1.4088,-1.4088,-1.4088,-1.4088,-1.4088,-1.4088,-1.4088,-1.4088,-1.4088,-1.4088,-1.4088,0.0,0.0,-2.6533,-2.6533,-2.6314,-2.5873,-2.5158,-2.4791,-2.4337,-2.3588,-2.2627,-2.2027,-2.2027,-2.1155,-2.0527,-2.042,-2.041,-2.0371,-2.0273,-2.0264,-2.0264,-2.0264,-2.0264,-2.0264,-2.0264,-1.9941,-1.9609,-1.9287,-1.9189,-1.9131,-1.9131,-1.9033,-1.8984,-1.8984,-1.8984,-1.9043,-1.9131,-1.9131,-1.9189,-1.9316,-1.9639,-1.9766,-1.9805,-2.0137,-2.0264,-2.0264,-2.0264,-2.0264,-2.0264,-2.0264,-2.0264,-2.0264,-2.0264,-2.0264,-2.0137,-1.9482,-1.9287,-1.9268,-1.916,-1.9131,-1.9033,-1.8594,-1.8035,-1.7647,-1.7647,-1.7862,-1.8008,-1.8008,-1.7532,-1.6965,-1.6469,-1.5268,-1.3993,-1.2875,-1.202,-1.1067,-0.9876,-0.9873,-0.982,0.0,-0.9439,-0.9606,-0.9679,-0.9886,-1.004,0.0,0.0,0.0,-1.0875,-1.1035,-1.1209,-1.1416,-1.1931,-1.2231,-1.2305,-1.2525,-1.2906,-1.3434,-1.3808,-1.4021,-1.4088,-1.4088,-1.4088,-1.4088,-1.4088,-1.4088,-1.4088,-1.4088,-1.4088,-1.4088,-1.4088,-1.4088,-1.4088,-1.4088,-1.4088,-1.4088,-2.6533,-2.6533,-2.6533,-2.6533,-2.6533,-2.6314,-2.5734,-2.5664,-2.5511,-2.4909,-2.4036,-2.3368,-2.3368,-2.2489,-2.1745,-2.1298,-2.0857,-2.0566,-2.0566,-2.0566,-2.0566,-2.0566,-2.0566,-2.0566,-2.0566,-2.0332,-2.0098,-1.9873,-1.9668,-1.957,-1.957,-1.9375,-1.9287,-1.9287,-1.9287,-1.9394,-1.957,-1.957,-1.9687,-1.9893,-2.0117,-2.0215,-2.0244,-2.0478,-2.0566,-2.0566,-2.0566,-2.0566,-2.0566,-2.0566,-2.0566,-2.0566,-2.0566,-2.0566,-2.0469,-2.001,-1.9873,-1.9824,-1.9629,-1.957,-1.9473,-1.9043,-1.8613,-1.8291,-1.8291,-1.8144,-1.8008,-1.8008,-1.7832,-1.7539,-1.7109,-1.6008,-1.4881,-1.3995,-1.2985,-1.1905,-1.063,-1.0531,-1.0398,-0.9679,-0.9907,-1.0134,-1.0267,-1.0541,-1.0715,-1.0715,-1.0989,0.0,-1.1189,-1.1597,-1.1764,-1.163,-1.2064,-1.2365,-1.2505,-1.2939,-1.332,-1.3566,-1.3948,-1.4088,-1.4088,-1.4088,-1.4088,-1.4088,-1.4088,-1.4088,-1.4088,-1.4088,-1.4088,-1.4088,-1.4088,-1.4088,-1.4088,-1.4088,-1.4088,-1.4088,-2.6533,-2.6533,-2.6533,-2.6533,-2.6533,-2.6533,-2.6533,-2.6533,-2.6533,-2.6533,-2.5581,-2.5004,-2.5004,-2.4108,-2.3147,-2.2328,-2.1375,-2.0789,-2.0644,-2.0566,-2.0566,-2.0566,-2.0566,-2.0566,-2.0566,-2.0566,-2.0566,-2.0566,-2.0195,-2.0019,-2.0,-1.9648,-1.9482,-1.9482,-1.9482,-1.9678,-2.0019,-2.0019,-2.0225,-2.0566,-2.0566,-2.0566,-2.0566,-2.0566,-2.0566,-2.0566,-2.0566,-2.0566,-2.0566,-2.0566,-2.0566,-2.0566,-2.0566,-2.0566,-2.0566,-2.0566,-2.0566,-2.0478,-2.0117,-1.9961,-1.9824,-1.9473,-1.9004,-1.8562,-1.8562,-1.8311,-1.8008,-1.8008,-1.8008,-1.7881,-1.7461,-1.6476,-1.5524,-1.4996,-1.3917,-1.2816,-1.168,0.0,-1.1114,-1.0417,-1.0566,-1.0742,-1.1029,-1.1283,-1.1443,-1.149,-1.1724,-1.1777,-1.157,-1.2031,-1.2191,-1.1944,-1.2171,-1.2465,-1.2889,-1.3367,-1.3667,-1.3714,-1.3968,-1.4088,-1.4088,-1.4088,-1.4088,-1.4088,-1.4088,-1.4088,-1.4088,-1.4088,-1.4088,-1.4088,-1.4088,-1.4088,-1.4088,-1.4088,-1.4088,-1.4088,-2.6533,-2.6533,-2.6533,-2.6533,-2.6533,-2.6533,-2.6533,-2.6533,-2.6533,-2.6533,-2.5581,-2.5004,-2.5004,-2.4108,-2.3441,-2.3294,-2.2328,-2.1451,-2.0634,-2.0566,-2.0566,-2.0566,-2.0566,-2.0566,-2.0566,-2.0566,-2.0566,-2.0566,-2.0498,-2.0469,-2.0469,-2.04,-2.0371,-2.0371,-2.0371,-2.04,-2.0469,-2.0469,-2.0508,-2.0566,-2.0566,-2.0566,-2.0566,-2.0566,-2.0566,-2.0566,-2.0566,-2.0566,-2.0566,-2.0566,-2.0566,-2.0566,-2.0566,-2.0566,-2.0566,-2.0566,-2.0566,-2.0547,-2.0478,-2.0195,-1.9902,-1.9834,-1.9228,-1.8562,-1.8562,-1.8311,-1.8008,-1.8008,-1.8008,-1.7881,-1.7461,-1.6893,-1.6132,-1.5067,-1.4405,-1.3655,-1.2522,0.0,-1.1697,-1.1574,-1.1184,-1.1042,-1.1329,-1.1403,-1.153,-1.1784,-1.1844,-1.1957,-1.2158,-1.2251,-1.2278,-1.2238,-1.2278,-1.2572,-1.3133,-1.3474,-1.3768,-1.4021,-1.4068,-1.4088,-1.4088,-1.4088,-1.4088,-1.4088,-1.4088,-1.4088,-1.4088,-1.4088,-1.4088,-1.4088,-1.4088,-1.4088,-1.4088,-1.4088,-1.4088,-1.4088,-2.6533,-2.6533,-2.6533,-2.6533,-2.6533,-2.6533,-2.6533,-2.6533,-2.6533,-2.6533,-2.6094,-2.5804,-2.5804,-2.5358,-2.4921,-2.4337,-2.3368,-2.2403,-2.1451,-2.0857,-2.0566,-2.0566,-2.0566,-2.0566,-2.0566,-2.0566,-2.0566,-2.0566,-2.0566,-2.0566,-2.0566,-2.0566,-2.0566,-2.0566,-2.0566,-2.0566,-2.0566,-2.0566,-2.0566,-2.0566,-2.0566,-2.0566,-2.0566,-2.0566,-2.0566,-2.0566,-2.0566,-2.0566,-2.0566,-2.0566,-2.0566,-2.0566,-2.0566,-2.0566,-2.0566,-2.0566,-2.0566,-2.0566,-2.0566,-2.042,-2.0264,-2.0264,-1.9785,-1.9268,-1.9043,-1.8652,-1.8281,-1.8057,-1.8008,-1.7949,-1.7764,-1.7373,-1.6883,-1.6351,-1.5699,-1.4972,-1.4268,-1.374,-1.3418,-1.3172,-1.3049,-1.2856,-1.247,-1.2571,-1.2515,-1.2163,-1.2104,-1.2164,-1.2291,-1.2305,-1.2305,-1.2305,-1.2625,-1.2926,-1.3206,-1.3661,-1.3948,-1.4088,-1.4088,-1.4088,-1.4088,-1.4088,-1.4088,-1.4088,-1.4088,-1.4088,-1.4088,-1.4088,-1.4088,-1.4088,-1.4088,-1.4088,-1.4088,-1.4088,-1.4088,-1.4088,-2.6533,-2.6533,-2.6533,-2.6533,-2.6533,-2.6533,-2.6533,-2.6533,-2.6533,-2.6533,-2.6533,-2.6533,-2.6533,-2.6533,-2.6164,-2.5441,-2.4181,-2.3147,-2.2403,-2.1231,-2.0566,-2.0566,-2.0566,-2.0566,-2.0566,-2.0566,-2.0566,-2.0566,-2.0566,-2.0566,-2.0566,-2.0566,-2.0566,-2.0566,-2.0566,-2.0566,-2.0566,-2.0566,-2.0566,-2.0566,-2.0566,-2.0566,-2.0566,-2.0566,-2.0566,-2.0566,-2.0566,-2.0566,-2.0566,-2.0566,-2.0566,-2.0566,-2.0566,-2.0566,-2.0566,-2.0566,-2.0566,-2.0566,-2.0566,-2.0566,-2.0566,-2.0566,-2.0244,-1.9805,-1.9385,-1.8955,-1.8516,-1.8096,-1.8008,-1.8008,-1.8008,-1.7666,-1.7383,-1.7383,0.0,-1.6133,-1.5807,-1.5323,-1.4961,-1.4692,-1.4715,-1.4445,-1.3777,-1.3945,-1.3665,-1.2739,-1.2666,-1.2519,-1.2305,-1.2305,-1.2305,-1.2305,-1.2893,-1.3213,-1.3213,-1.3794,-1.4088,-1.4088,-1.4088,-1.4088,-1.4088,-1.4088,-1.4088,-1.4088,-1.4088,-1.4088,-1.4088,-1.4088,-1.4088,-1.4088,-1.4088,-1.4088,-1.4088,-1.4088,-1.4088,-1.4088,-2.6533,-2.6533,-2.6533,-2.6533,-2.6533,-2.6533,-2.6533,-2.6533,-2.6533,-2.6533,-2.6533,-2.6533,-2.6533,-2.6533,-2.6452,-2.6383,-2.4624,-2.3441,-2.3368,-2.168,-2.0566,-2.0566,-2.0566,-2.0566,-2.0566,-2.0566,-2.0566,-2.0566,-2.0566,-2.0566,-2.0566,-2.0566,-2.0566,-2.0566,-2.0566,-2.0566,-2.0566,-2.0566,-2.0566,-2.0566,-2.0566,-2.0566,-2.0566,-2.0566,-2.0566,-2.0566,-2.0566,-2.0566,-2.0566,-2.0566,-2.0566,-2.0566,-2.0566,-2.0566,-2.0566,-2.0566,-2.0566,-2.0566,-2.0566,-2.0566,-2.0566,-2.0566,-2.0244,-1.9805,-1.9385,-1.8955,-1.8516,-1.8096,-1.8008,-1.8008,-1.8008,-1.7666,-1.7383,-1.7383,0.0,0.0,-1.6602,-1.5963,-1.5559,-1.5739,-1.5137,-1.4819,-1.5018,-1.5076,-1.4665,-1.3673,-1.36,-1.3244,-1.2378,-1.2305,-1.2305,-1.2305,-1.2893,-1.3213,-1.3213,-1.3794,-1.4088,-1.4088,-1.4088,-1.4088,-1.4088,-1.4088,-1.4088,-1.4088,-1.4088,-1.4088,-1.4088,-1.4088,-1.4088,-1.4088,-1.4088,-1.4088,-1.4088,-1.4088,-1.4088,-1.4088,-2.6533,-2.6533,-2.6533,-2.6533,-2.6533,-2.6533,-2.6533,-2.6533,-2.6533,-2.6533,-2.6533,-2.6533,-2.6533,-2.6533,-2.6533,-2.6533,-2.5217,-2.4536,-2.4912,-2.3069,-2.1514,-2.0654,-2.0566,-2.0566,-2.0566,-2.0566,-2.0566,-2.0566,-2.0566,-2.0566,-2.0566,-2.0566,-2.0566,-2.0566,-2.0566,-2.0566,-2.0586,-2.0859,-2.0977,-2.1006,-2.1279,-2.1387,-2.1387,-2.1387,-2.1387,-2.1387,-2.1387,-2.1211,-2.0977,-2.0977,-2.0791,-2.0566,-2.0566,-2.0566,-2.0566,-2.0566,-2.0566,-2.0566,-2.0566,-2.0566,-2.0566,-2.0566,-2.0439,-2.0205,-1.9775,-1.9346,-1.8916,-1.8486,-1.8193,-1.8008,-1.8008,-1.7881,-1.7773,-1.7773,0.0,-1.7227,-1.749,-1.7023,-1.6807,-1.7148,-1.6915,-1.656,-1.6131,-1.6079,-1.5649,-1.4665,-1.4027,-1.3528,-1.3171,-1.2592,-1.2385,-1.2572,-1.2993,-1.3213,-1.3213,-1.3794,-1.4088,-1.4088,-1.4088,-1.4088,-1.4088,-1.4088,-1.4088,-1.4088,-1.4088,-1.4088,-1.4088,-1.4088,-1.4088,-1.4088,-1.4088,-1.4088,-1.4088,-1.4088,-1.4088,-1.4088,-2.6533,-2.6533,-2.6533,-2.6533,-2.6533,-2.6533,-2.6533,-2.6533,-2.6533,-2.6533,-2.6533,-2.6533,-2.6533,-2.6615,-2.6716,-2.6716,-2.5983,-2.5623,-2.6041,-2.4478,-2.2736,-2.1066,-2.085,-2.0781,-2.0781,-2.0781,-2.0703,-2.0566,-2.0566,-2.0566,-2.0566,-2.0566,-2.0566,-2.0566,-2.0566,-2.0644,-2.0791,-2.1103,-2.1318,-2.1465,-2.1768,-2.1885,-2.1885,-2.1885,-2.1885,-2.1885,-2.1885,-2.1689,-2.1445,-2.1445,-2.124,-2.0957,-2.082,-2.0674,-2.0566,-2.0566,-2.0566,-2.0566,-2.0566,-2.0566,-2.0566,-2.0566,-2.0566,-2.0449,-2.0019,-1.9697,-1.9326,-1.875,-1.8408,-1.8164,-1.8037,-1.8008,-1.8008,-1.8008,-1.7773,-1.7676,-1.7969,-1.7764,-1.7686,-1.7978,-1.8008,-1.7725,-1.707,-1.707,-1.6645,-1.5728,-1.5013,-1.445,-1.4171,-1.333,-1.2974,-1.3265,-1.329,-1.3347,-1.3347,-1.3841,-1.4088,-1.4088,-1.4088,-1.4088,-1.4088,-1.4088,-1.4088,-1.4088,-1.4088,-1.4088,-1.4088,-1.4088,-1.4088,-1.4088,-1.4088,-1.4088,-1.4088,-1.4088,-1.4088,-1.4088,-2.6533,-2.6533,-2.6533,-2.6533,-2.6533,-2.6533,-2.6533,-2.6533,-2.6533,-2.6533,-2.6533,-2.6533,-2.6533,-2.6954,-2.7281,-2.7293,-2.6846,-2.6602,-2.6602,-2.5701,-2.4241,-2.206,-2.1475,-2.124,-2.124,-2.124,-2.1025,-2.0576,-2.0576,-2.0576,-2.0576,-2.0576,-2.0576,-2.0576,-2.0576,-2.082,-2.124,-2.124,-2.1494,-2.1894,-2.1894,-2.1894,-2.1894,-2.1894,-2.1894,-2.1894,-2.1894,-2.1894,-2.1894,-2.1894,-2.1885,-2.1807,-2.1377,-2.0937,-2.0566,-2.0566,-2.0566,-2.0566,-2.0566,-2.0566,-2.0566,-2.0566,-2.0566,-2.0449,-2.0019,-1.9912,-1.9668,-1.8818,-1.8643,-1.8516,-1.8086,-1.8018,-1.8018,-1.8008,-1.8008,-1.8008,-1.8008,-1.8008,-1.8008,-1.8008,-1.8008,-1.8008,-1.8008,-1.8008,-1.7579,-1.6706,-1.6636,-1.6219,-1.5234,-1.4568,-1.4171,-1.4178,-1.3798,-1.3559,-1.3566,-1.3941,-1.4088,-1.4088,-1.4088,-1.4088,-1.4088,-1.4088,-1.4088,-1.4088,-1.4088,-1.4088,-1.4088,-1.4088,-1.4088,-1.4088,-1.4088,-1.4088,-1.4088,-1.4088,-1.4088,-1.4088,-2.6533,-2.6533,-2.6533,-2.6533,-2.6533,-2.6533,-2.6533,-2.6533,-2.6533,-2.6533,-2.6533,-2.6603,-2.6992,-2.718,-2.7444,-2.7821,-2.7692,-2.747,-2.7138,-2.614,-2.5103,-2.3969,-2.3247,-2.2453,-2.1689,-2.1689,-2.1621,-2.1494,-2.1494,-2.1494,-2.1494,-2.1494,-2.1494,-2.1494,-2.1494,-2.1572,-2.1709,-2.2002,-2.2207,-2.2353,-2.2646,-2.2764,-2.2764,-2.2764,-2.2764,-2.2764,-2.2764,-2.2578,-2.2324,-2.2324,-2.2129,-2.1865,-2.1738,-2.1387,-2.1035,-2.1035,-2.081,-2.0566,-2.0566,-2.0566,-2.0566,-2.0566,-2.0566,-2.0527,-2.04,-2.0137,-1.9844,-1.958,-1.9297,-1.8965,-1.8525,-1.8447,-1.835,-1.8057,-1.8008,-1.8008,-1.8008,-1.8008,-1.8008,-1.8008,-1.8008,-1.8008,-1.8008,-1.8008,-1.7862,-1.7579,-1.6991,-1.6325,-1.5663,-1.4692,-1.4455,-1.499,-1.41,-1.3741,-1.3955,-1.4041,-1.4088,-1.4088,-1.4088,-1.4088,-1.4088,-1.4088,-1.4088,-1.4088,-1.4088,-1.4088,-1.4088,-1.4088,-1.4088,-1.4088,-1.4088,-1.4088,-1.4088,-1.4088,-1.4088,-1.4088,-2.6533,-2.6533,-2.6533,-2.6533,-2.6533,-2.6533,-2.6533,-2.6533,-2.6609,-2.6753,-2.6791,-2.6992,-2.7544,-2.7808,-2.8059,-2.8398,-2.8637,-2.8662,-2.8346,-2.7722,-2.6967,-2.6179,-2.5147,-2.3895,-2.2139,-2.2139,-2.2051,-2.1885,-2.1885,-2.1885,-2.1885,-2.1885,-2.1885,-2.1885,-2.1885,-2.1982,-2.2148,-2.2402,-2.2607,-2.2783,-2.3037,-2.3135,-2.3135,-2.3135,-2.3135,-2.3135,-2.3135,-2.2969,-2.2764,-2.2764,-2.248,-2.2139,-2.2139,-2.1836,-2.1455,-2.1289,-2.1045,-2.0791,-2.0615,-2.0566,-2.0566,-2.0566,-2.0566,-2.0566,-2.0566,-2.0361,-2.0117,-1.9951,-1.9717,-1.9404,-1.8975,-1.8896,-1.8809,-1.8555,-1.8369,-1.8262,-1.8262,-1.8115,-1.8008,-1.8008,-1.8008,-1.8008,-1.8008,-1.8008,-1.8008,-1.8008,-1.7653,-1.7272,-1.6928,-1.6204,-1.6029,-1.6466,-1.5183,-1.4545,-1.4734,-1.4328,-1.4088,-1.4088,-1.4088,-1.4088,-1.4088,-1.4088,-1.4088,-1.4088,-1.4088,-1.4088,-1.4088,-1.4088,-1.4088,-1.4088,-1.4088,-1.4088,-1.4088,-1.4088,-1.4088,-1.4088,-2.6533,-2.6533,-2.6533,-2.6533,-2.6533,-2.6533,-2.6533,-2.6571,-2.6716,-2.7218,-2.7318,-2.757,-2.8122,-2.8624,-2.895,-2.9001,-2.949,-2.9792,-2.9792,-2.9702,-2.9197,-2.8176,-2.6953,-2.5196,-2.2739,-2.2654,-2.2383,-2.2002,-2.2002,-2.2002,-2.2002,-2.2002,-2.2002,-2.2002,-2.2002,-2.2207,-2.2568,-2.2568,-2.2793,-2.3135,-2.3135,-2.3135,-2.3135,-2.3135,-2.3135,-2.3135,-2.3135,-2.3135,-2.3135,-2.3135,-2.2881,-2.2568,-2.2568,-2.2275,-2.1855,-2.1416,-2.126,-2.1133,-2.0684,-2.0566,-2.0566,-2.0566,-2.0566,-2.0566,-2.0566,-2.0566,-2.0449,-2.0059,-1.9971,-1.9844,-1.9424,-1.9346,-1.9336,-1.9297,-1.8955,-1.8691,-1.8691,-1.8369,-1.8105,-1.8076,-1.8066,-1.8047,-1.8018,-1.8047,-1.8066,-1.8066,-1.8457,-1.8711,-1.8679,-1.8424,-1.8303,-1.8339,-1.6589,-1.5696,-1.5696,-1.4657,-1.4088,-1.4088,-1.4088,-1.4088,-1.4088,-1.4088,-1.4088,-1.4088,-1.4088,-1.4088,-1.4088,-1.4088,-1.4088,-1.4088,-1.4088,-1.4088,-1.4088,-1.4088,-1.4088,-1.4088,-2.6533,-2.6533,-2.6533,-2.6533,-2.6533,-2.6533,-2.6533,-2.6829,-2.7155,-2.7268,-2.7657,-2.8134,-2.8687,-2.885,-2.9114,-2.9566,-2.9716,-2.9792,-2.9792,-2.8937,-2.8347,-2.8084,-2.6191,-2.4914,-2.4312,-2.3411,-2.2959,-2.2861,-2.2861,-2.2861,-2.2861,-2.2861,-2.2861,-2.2861,-2.2861,-2.292,-2.2998,-2.2998,-2.3057,-2.3135,-2.3135,-2.3135,-2.3135,-2.3135,-2.3135,-2.3135,-2.3135,-2.3135,-2.3135,-2.3135,-2.3076,-2.2998,-2.2998,-2.2715,-2.2295,-2.1865,-2.1504,-2.1133,-2.0684,-2.0566,-2.0566,-2.0566,-2.0566,-2.0566,-2.0566,-2.0566,-2.0537,-2.0439,-2.042,-2.0293,-1.9853,-1.9775,-1.9668,-1.9336,-1.9209,-1.915,-1.915,-1.9062,-1.8887,-1.8545,-1.8496,-1.8369,-1.8047,-1.8311,-1.8496,-1.8496,-1.8896,-1.9287,-1.9619,-1.8805,-1.8506,-1.8822,-1.6798,-1.5696,-1.5696,-1.4657,-1.4088,-1.4088,-1.4088,-1.4088,-1.4088,-1.4088,-1.4088,-1.4088,-1.4088,-1.4088,-1.4088,-1.4088,-1.4088,-1.4088,-1.4088,-1.4088,-1.4088,-1.4088,-1.4088,-1.4088,-2.6533,-2.6533,-2.6533,-2.6533,-2.6533,-2.6622,-2.6816,-2.7092,-2.7469,-2.7996,-2.8323,-2.8712,-2.9277,-2.934,-2.9465,-2.9767,-2.9792,-2.9792,-2.9792,-2.9275,-2.8937,-2.8937,-2.6789,-2.563,-2.563,-2.3973,-2.3135,-2.3135,-2.3135,-2.3135,-2.3135,-2.3135,-2.3135,-2.3135,-2.3135,-2.3135,-2.3135,-2.3135,-2.3135,-2.3135,-2.3135,-2.3135,-2.3135,-2.3135,-2.3135,-2.3135,-2.3135,-2.3135,-2.3135,-2.3135,-2.3135,-2.3135,-2.3135,-2.2988,-2.2734,-2.2305,-2.1885,-2.1455,-2.1006,-2.0732,-2.0566,-2.0566,-2.0566,-2.0566,-2.0566,-2.0566,-2.0566,-2.0566,-2.0566,-2.0498,-2.0273,-2.0225,-2.0156,-1.9932,-1.9717,-1.959,-1.959,-1.9414,-1.9209,-1.8975,-1.8945,-1.8857,-1.8643,-1.8818,-1.8945,-1.8945,-1.9346,-1.9678,-1.9902,-1.9564,-1.9531,-1.9756,-1.8141,-1.7245,-1.7245,-1.5711,-1.4894,-1.4894,-1.4328,-1.4088,-1.4088,-1.4088,-1.4088,-1.4088,-1.4088,-1.4088,-1.4088,-1.4088,-1.4088,-1.4088,-1.4088,-1.4088,-1.4088,-1.4088,-1.4088,-1.4088,-2.6533,-2.6533,-2.6533,-2.6533,-2.6609,-2.6753,-2.7218,-2.7444,-2.7896,-2.88,-2.9013,-2.9252,-2.9741,-2.9792,-2.9792,-2.9792,-2.9792,-2.9792,-2.9792,-2.9792,-2.9792,-2.9792,-2.7879,-2.6719,-2.6483,-2.4478,-2.3299,-2.3135,-2.3135,-2.3135,-2.3135,-2.3135,-2.3135,-2.3135,-2.3135,-2.3135,-2.3135,-2.3135,-2.3135,-2.3135,-2.3135,-2.3135,-2.3135,-2.3135,-2.3135,-2.3135,-2.3135,-2.3135,-2.3135,-2.3135,-2.3135,-2.3135,-2.3135,-2.3135,-2.3057,-2.2637,-2.2217,-2.1787,-2.1357,-2.0908,-2.0566,-2.0566,-2.0566,-2.0566,-2.0566,-2.0566,-2.0566,-2.0566,-2.0566,-2.0566,-2.0566,-2.0566,-2.0566,-2.0566,-2.0264,-2.0029,-2.0029,-1.9727,-1.9482,-1.9404,-1.9336,-1.9287,-1.9287,-1.9346,-1.9394,-1.9394,-1.9785,-2.0029,-2.0029,-2.0371,-2.0566,-2.0566,-1.952,-1.9036,-1.9036,-1.7001,-1.5944,-1.5944,-1.5061,-1.4412,-1.4088,-1.4088,-1.4088,-1.4088,-1.4088,-1.4088,-1.4088,-1.4088,-1.4088,-1.4088,-1.4088,-1.4088,-1.4088,-1.4088,-1.4088,-1.4088,-2.6533,-2.6533,-2.6533,-2.6533,-2.6854,-2.7205,-2.7268,-2.8097,-2.8762,-2.8913,-2.9365,-2.9704,-2.9779,-2.9792,-2.9792,-2.9792,-2.9792,-2.9792,-2.9792,-2.9792,-2.9792,-2.9792,-2.8609,-2.7452,-2.6554,-2.521,-2.4125,-2.3135,-2.3135,-2.3135,-2.3135,-2.3135,-2.3135,-2.3135,-2.3135,-2.3135,-2.3135,-2.3135,-2.3135,-2.3135,-2.3135,-2.3135,-2.3135,-2.3135,-2.3135,-2.3135,-2.3135,-2.3135,-2.3135,-2.3135,-2.3135,-2.3135,-2.3135,-2.3135,-2.3057,-2.2637,-2.2217,-2.1787,-2.1357,-2.0908,-2.0566,-2.0566,-2.0566,-2.0566,-2.0566,-2.0566,-2.0566,-2.0566,-2.0566,-2.0566,-2.0566,-2.0566,-2.0566,-2.0566,-2.0518,-2.0478,-2.0478,-2.043,-2.0254,-1.9873,-1.9512,-1.9287,-1.9287,-1.9619,-1.9824,-1.9824,-2.0234,-2.0478,-2.0478,-2.0537,-2.0566,-2.0566,-1.952,-1.9036,-1.9036,-1.7738,-1.709,-1.709,-1.6935,-1.5876,-1.4088,-1.4088,-1.4088,-1.4088,-1.4088,-1.4088,-1.4088,-1.4088,-1.4088,-1.4088,-1.4088,-1.4088,-1.4088,-1.4088,-1.4088,-1.4088,-2.6533,-2.6533,-2.6533,-2.6533,-2.6735,-2.6929,-2.7231,-2.7959,-2.8586,-2.8888,-2.9428,-2.9792,-2.9792,-2.9792,-2.9792,-2.9792,-2.9792,-2.9792,-2.9792,-2.9792,-2.9792,-2.9792,-2.8688,-2.7855,-2.736,-2.6295,-2.5473,-2.4978,-2.3724,-2.3135,-2.3135,-2.3135,-2.3135,-2.3135,-2.3135,-2.3135,-2.3135,-2.3135,-2.3135,-2.3135,-2.3135,-2.3135,-2.3135,-2.3135,-2.3135,-2.3135,-2.3135,-2.3135,-2.3135,-2.3135,-2.3135,-2.3135,-2.3135,-2.3135,-2.3105,-2.292,-2.2568,-2.2139,-2.1709,-2.1269,-2.0879,-2.0625,-2.0566,-2.0566,-2.0566,-2.0566,-2.0566,-2.0566,-2.0566,-2.0566,-2.0566,-2.0566,-2.0566,-2.0566,-2.0566,-2.0566,-2.0566,-2.0566,-2.0498,-2.0303,-2.0117,-2.0,-2.0,-2.0166,-2.0273,-2.0273,-2.0459,-2.0566,-2.0566,-2.0566,-2.0566,-2.0566,-2.0157,-1.9923,-1.9923,-1.8798,-1.823,-1.823,-1.7585,-1.6527,-1.497,-1.497,-1.4657,-1.4088,-1.4088,-1.4088,-1.4088,-1.4088,-1.4088,-1.4088,-1.4088,-1.4088,-1.4088,-1.4088,-1.4088,-1.4088]},{"header":{"parameterUnit":"m.s-1","parameterCategory":1,"la1":30.6,"la2":28.766,"lo1":-90.7593,"lo2":-88.6598,"dy":0.0162,"dx":0.0183,"nx":116,"ny":114,"refTime":"2024-06-23T00:00:00:Z","depth":0,"parameterNumber":3,"parameterNumberName":"V-component_of_WINDS"},"data":[0.0,0.0,0.0,0.0,0.0,0.0,0.0,0.0,0.0,0.0,0.0,0.0,0.0,0.0,0.0,0.0,0.0,0.0,0.0,0.0,0.0,0.0,0.0,0.0,0.0,0.0,0.0,0.0,0.0,0.0,0.0,0.0,0.0,0.0,0.0,0.0,0.0,0.0,0.0,0.0,0.0,0.0,0.0,0.0,0.0,0.0,0.0,0.0,0.0,0.0,0.0,0.0,0.0,0.0,0.0,0.0,0.0,0.0,0.0,0.0,0.0,0.0,0.0,0.0,0.0,0.0,0.0,0.0,0.0,0.0,0.0,0.0,0.0,0.0,0.0,0.0,0.0,0.0,0.0,0.0,0.0,0.0,0.0,0.0,0.0,0.0,0.0,0.0,0.0,0.0,0.0,0.0,0.0,0.0,0.0,0.0,0.0,0.0,0.0,0.0,0.0,0.0,0.0,0.0,0.0,0.0,0.0,0.0,0.0,0.0,0.0,0.0,0.0,0.0,0.0,0.0,0.0,0.0,0.0,0.0,0.0,0.0,0.0,0.0,0.0,0.0,0.0,0.0,0.0,0.0,0.0,0.0,0.0,0.0,0.0,0.0,0.0,0.0,0.0,0.0,0.0,0.0,0.0,0.0,0.0,0.0,0.0,0.0,0.0,0.0,0.0,0.0,0.0,0.0,0.0,0.0,0.0,0.0,0.0,0.0,0.0,0.0,0.0,0.0,0.0,0.0,0.0,0.0,0.0,0.0,0.0,0.0,0.0,0.0,0.0,0.0,0.0,0.0,0.0,0.0,0.0,0.0,0.0,0.0,0.0,0.0,0.0,0.0,0.0,0.0,0.0,0.0,0.0,0.0,0.0,0.0,0.0,0.0,0.0,0.0,0.0,0.0,0.0,0.0,0.0,0.0,0.0,0.0,0.0,0.0,0.0,0.0,0.0,0.0,0.0,0.0,0.0,0.0,0.0,0.0,0.0,0.0,0.0,0.0,0.0,0.0,0.0,0.0,0.0,0.0,0.0,0.0,0.0,0.0,0.0,0.0,0.0,0.0,0.0,0.0,0.0,0.0,0.0,0.0,0.0,0.0,0.0,0.0,0.0,0.0,0.0,0.0,0.0,0.0,0.0,0.0,0.0,0.0,0.0,0.0,0.0,0.0,0.0,0.0,0.0,0.0,0.0,0.0,0.0,0.0,0.0,0.0,0.0,0.0,0.0,0.0,0.0,0.0,0.0,0.0,0.0,0.0,0.0,0.0,0.0,0.0,0.0,0.0,0.0,0.0,0.0,0.0,0.0,0.0,0.0,0.0,0.0,0.0,0.0,0.0,0.0,0.0,0.0,0.0,0.0,0.0,0.0,0.0,0.0,0.0,0.0,0.0,0.0,0.0,0.0,0.0,0.0,0.0,0.0,0.0,0.0,0.0,0.0,0.0,0.0,0.0,0.0,0.0,0.0,0.0,0.0,0.0,0.0,0.0,0.0,0.0,0.0,0.0,0.0,0.0,0.0,0.0,0.0,0.0,0.0,0.0,0.0,0.0,0.0,0.0,0.0,0.0,0.0,0.0,0.0,0.0,0.0,0.0,0.0,0.0,0.0,0.0,0.0,0.0,0.0,0.0,0.0,0.0,0.0,0.0,0.0,0.0,0.0,0.0,0.0,0.0,0.0,0.0,0.0,0.0,0.0,0.0,0.0,0.0,0.0,0.0,0.0,0.0,0.0,0.0,0.0,0.0,0.0,0.0,0.0,0.0,0.0,0.0,0.0,0.0,0.0,0.0,0.0,0.0,0.0,0.0,0.0,0.0,0.0,0.0,0.0,0.0,0.0,0.0,0.0,0.0,0.0,0.0,0.0,0.0,0.0,0.0,0.0,0.0,0.0,0.0,0.0,0.0,0.0,0.0,0.0,0.0,0.0,0.0,0.0,0.0,0.0,0.0,0.0,0.0,0.0,0.0,0.0,0.0,0.0,0.0,0.0,0.0,0.0,0.0,0.0,0.0,0.0,0.0,0.0,0.0,0.0,0.0,0.0,0.0,0.0,0.0,0.0,0.0,0.0,0.0,0.0,0.0,0.0,0.0,0.0,0.0,0.0,0.0,0.0,0.0,0.0,0.0,0.0,0.0,0.0,0.0,0.0,0.0,0.0,0.0,0.0,0.0,0.0,0.0,0.0,0.0,0.0,0.0,0.0,0.0,0.0,0.0,0.0,0.0,0.0,0.0,0.0,0.0,0.0,0.0,0.0,0.0,0.0,0.0,0.0,0.0,0.0,0.0,0.0,0.0,0.0,0.0,0.0,0.0,0.0,0.0,0.0,0.0,0.0,0.0,0.0,0.0,0.0,0.0,0.0,0.0,0.0,0.0,0.0,0.0,0.0,0.0,0.0,0.0,0.0,0.0,0.0,0.0,0.0,0.0,0.0,0.0,0.0,0.0,0.0,0.0,0.0,0.0,0.0,0.0,0.0,0.0,0.0,0.0,0.0,0.0,0.0,0.0,0.0,0.0,0.0,0.0,0.0,0.0,0.0,0.0,0.0,0.0,0.0,0.0,0.0,0.0,0.0,0.0,0.0,0.0,0.0,0.0,0.0,0.0,0.0,0.0,0.0,0.0,0.0,0.0,0.0,0.0,0.0,0.0,0.0,0.0,0.0,0.0,0.0,0.0,0.0,0.0,0.0,0.0,0.0,0.0,0.0,0.0,0.0,0.0,0.0,0.0,0.0,0.0,0.0,0.0,0.0,0.0,0.0,0.0,0.0,0.0,0.0,0.0,0.0,0.0,0.0,0.0,0.0,0.0,0.0,0.0,0.0,0.0,0.0,0.0,0.0,0.0,0.0,0.0,0.0,0.0,0.0,0.0,0.0,0.0,0.0,0.0,0.0,0.0,0.0,0.0,0.0,0.0,0.0,0.0,0.0,0.0,0.0,0.0,0.0,0.0,0.0,0.0,0.0,0.0,0.0,0.0,0.0,0.0,0.0,0.0,0.0,0.0,0.0,0.0,0.0,0.0,0.0,0.0,0.0,0.0,0.0,0.0,0.0,0.0,0.0,0.0,0.0,0.0,0.0,0.0,0.0,0.0,0.0,0.0,0.0,0.0,0.0,0.0,0.0,0.0,0.0,0.0,0.0,0.0,0.0,0.0,0.0,0.0,0.0,0.0,0.0,0.0,0.0,0.0,0.0,0.0,0.0,0.0,0.0,0.0,0.0,0.0,0.0,0.0,0.0,0.0,0.0,0.0,0.0,0.0,0.0,0.0,0.0,0.0,0.0,0.0,0.0,0.0,0.0,0.0,0.0,0.0,0.0,0.0,0.0,0.0,0.0,0.0,0.0,0.0,0.0,0.0,0.0,0.0,0.0,0.0,0.0,0.0,0.0,0.0,0.0,0.0,0.0,0.0,0.0,0.0,0.0,0.0,0.0,0.0,0.0,0.0,0.0,0.0,0.0,0.0,0.0,0.0,0.0,0.0,0.0,0.0,0.0,0.0,0.0,0.0,0.0,0.0,0.0,0.0,0.0,0.0,0.0,0.0,0.0,0.0,0.0,0.0,0.0,0.0,0.0,0.0,0.0,0.0,0.0,0.0,0.0,0.0,0.0,0.0,0.0,0.0,0.0,0.0,0.0,0.0,0.0,0.0,0.0,0.0,0.0,0.0,0.0,0.0,0.0,0.0,0.0,0.0,0.0,0.0,0.0,0.0,0.0,0.0,0.0,0.0,0.0,0.0,0.0,0.0,0.0,0.0,0.0,0.0,0.0,0.0,0.0,0.0,0.0,0.0,0.0,0.0,0.0,0.0,0.0,0.0,0.0,0.0,0.0,0.0,0.0,0.0,0.0,0.0,0.0,0.0,0.0,0.0,0.0,0.0,0.0,0.0,0.0,0.0,0.0,0.0,0.0,0.0,0.0,0.0,0.0,0.0,0.0,0.0,0.0,0.0,0.0,0.0,0.0,0.0,0.0,0.0,0.0,0.0,0.0,0.0,0.0,0.0,0.0,0.0,0.0,0.0,0.0,0.0,0.0,0.0,0.0,0.0,0.0,0.0,0.0,0.0,0.0,0.0,0.0,0.0,0.0,0.0,0.0,0.0,0.0,0.0,0.0,0.0,0.0,0.0,0.0,0.0,0.0,0.0,0.0,0.0,0.0,0.0,0.0,0.0,0.0,0.0,0.0,0.0,0.0,0.0,0.0,0.0,0.0,0.0,0.0,0.0,0.0,0.0,0.0,0.0,0.0,0.0,0.0,0.0,0.0,0.0,0.0,0.0,0.0,0.0,0.0,0.0,0.0,0.0,0.0,0.0,0.0,0.0,0.0,0.0,0.0,0.0,0.0,0.0,0.0,0.0,0.0,0.0,0.0,0.0,0.0,0.0,0.0,0.0,0.0,0.0,0.0,0.0,0.0,0.0,0.0,0.0,0.0,0.0,0.0,0.0,0.0,0.0,0.0,0.0,0.0,0.0,0.0,0.0,0.0,0.0,0.0,0.0,0.0,0.0,0.0,0.0,0.0,0.0,0.0,0.0,0.0,0.0,0.0,0.0,0.0,0.0,0.0,0.0,0.0,0.0,0.0,0.0,0.0,0.0,0.0,0.0,0.0,0.0,0.0,0.0,0.0,0.0,0.0,0.0,0.0,0.0,0.0,0.0,0.0,0.0,0.0,0.0,0.0,0.0,0.0,0.0,0.0,0.0,0.0,0.0,0.0,0.0,0.0,0.0,0.0,0.0,0.0,0.0,0.0,0.0,0.0,0.0,0.0,0.0,0.0,0.0,0.0,0.0,0.0,0.0,0.0,0.0,0.0,0.0,0.0,0.0,0.0,0.0,0.0,0.0,0.0,0.0,0.0,0.0,0.0,0.0,0.0,0.0,0.0,0.0,0.0,0.0,0.0,0.0,0.0,0.0,0.0,0.0,0.0,0.0,0.0,0.0,0.0,0.0,0.0,0.0,0.0,0.0,0.0,0.0,0.0,0.0,0.0,0.0,0.0,0.0,0.0,0.0,0.0,0.0,0.0,0.0,0.0,0.0,0.0,0.0,0.0,0.0,0.0,0.0,0.0,0.0,0.0,0.0,0.0,0.0,0.0,0.0,0.0,0.0,0.0,0.0,0.0,0.0,0.0,0.0,0.0,0.0,0.0,0.0,0.0,0.0,0.0,0.0,0.0,0.0,0.0,0.0,0.0,0.0,0.0,0.0,0.0,0.0,0.0,0.0,0.0,0.0,0.0,0.0,0.0,0.0,0.0,0.0,0.0,0.0,0.0,0.0,0.0,0.0,0.0,0.0,0.0,0.0,0.0,0.0,0.0,0.0,0.0,0.0,0.0,0.0,0.0,0.0,0.0,0.0,0.0,0.0,0.0,0.0,0.0,0.0,0.0,0.0,0.0,0.0,0.0,0.0,0.0,0.0,0.0,0.0,0.0,0.0,0.0,0.0,0.0,0.0,0.0,0.0,0.0,0.0,0.0,0.0,0.0,0.0,0.0,0.0,0.0,0.0,0.0,0.0,0.0,0.0,0.0,0.0,0.0,0.0,0.0,0.0,0.0,0.0,0.0,0.0,0.0,0.0,0.0,0.0,0.0,0.0,0.0,0.0,0.0,0.0,0.0,0.0,0.0,0.0,0.0,0.0,0.0,0.0,0.0,0.0,0.0,0.0,0.0,0.0,0.0,0.0,0.0,0.0,0.0,0.0,0.0,0.0,0.0,0.0,0.0,0.0,0.0,0.0,0.0,0.0,0.0,0.0,0.0,0.0,0.0,0.0,0.0,0.0,0.0,0.0,0.0,0.0,0.0,0.0,0.0,0.0,0.0,0.0,0.0,0.0,0.0,0.0,0.0,0.0,0.0,0.0,0.0,0.0,0.0,0.0,0.0,0.0,0.0,0.0,0.0,0.0,0.0,0.0,0.0,0.0,0.0,0.0,0.0,0.0,0.0,0.0,0.0,0.0,0.0,0.0,0.0,0.0,0.0,0.0,0.0,0.0,0.0,0.0,0.0,0.0,0.0,0.0,0.0,0.0,0.0,0.0,0.0,0.0,0.0,0.0,0.0,0.0,0.0,0.0,0.0,0.0,0.0,0.0,0.0,0.0,0.0,0.0,0.0,0.0,-1.8628,0.0,0.0,0.0,0.0,0.0,0.0,0.0,0.0,0.0,0.0,0.0,0.0,0.0,0.0,0.0,0.0,0.0,0.0,0.0,0.0,0.0,0.0,0.0,0.0,-0.7898,-0.8039,-0.8137,-0.839,-0.8579,-0.8636,0.0,0.0,0.0,0.0,0.0,-0.9088,-0.9159,-0.9451,-0.9977,-1.0033,-1.0522,-1.1351,-1.1801,-1.1581,-1.0855,0.0,0.0,0.0,0.0,0.0,0.0,0.0,0.0,0.0,0.0,0.0,0.0,0.0,0.0,0.0,0.0,0.0,0.0,0.0,0.0,0.0,0.0,0.0,0.0,0.0,0.0,0.0,0.0,0.0,0.0,0.0,0.0,0.0,0.0,0.0,0.0,0.0,0.0,0.0,0.0,0.0,0.0,0.0,0.0,0.0,0.0,0.0,0.0,0.0,0.0,0.0,0.0,0.0,0.0,0.0,0.0,0.0,0.0,0.0,0.0,0.0,0.0,0.0,0.0,0.0,0.0,0.0,0.0,0.0,0.0,0.0,-2.039,0.0,0.0,0.0,0.0,0.0,0.0,0.0,0.0,0.0,0.0,0.0,0.0,0.0,0.0,0.0,0.0,0.0,0.0,0.0,0.0,0.0,-0.7753,-0.7913,-0.8065,-0.8258,-0.8562,-0.8661,-0.8802,-0.9049,-0.8965,0.0,0.0,0.0,-0.9119,-0.9159,-0.9417,-0.9941,-1.0721,-1.102,-1.2044,-1.3774,-1.4593,-1.4357,0.0,-1.2751,0.0,0.0,0.0,0.0,0.0,0.0,0.0,0.0,0.0,0.0,0.0,0.0,0.0,0.0,0.0,0.0,0.0,0.0,0.0,0.0,0.0,0.0,0.0,0.0,0.0,0.0,0.0,0.0,0.0,0.0,0.0,0.0,0.0,0.0,0.0,0.0,0.0,0.0,0.0,0.0,0.0,0.0,0.0,0.0,0.0,0.0,0.0,0.0,0.0,0.0,0.0,0.0,0.0,0.0,0.0,0.0,0.0,0.0,0.0,0.0,0.0,0.0,0.0,-2.5418,-2.5898,-2.6606,-2.7354,-2.8166,-2.883,-2.5994,-2.4862,-2.495,-2.4178,0.0,0.0,0.0,0.0,0.0,0.0,0.0,0.0,0.0,0.0,0.0,0.0,0.0,0.0,0.0,0.0,0.0,0.0,0.0,-0.8049,-0.8077,-0.824,-0.8626,-0.9304,-0.8951,-0.8969,-0.964,-0.9182,0.0,0.0,-0.9088,-0.9199,-0.9439,-1.0159,-1.0639,-1.0867,-1.2259,-1.384,-1.5583,-1.6444,0.0,-1.7718,-1.5404,-1.439,0.0,0.0,0.0,0.0,0.0,0.0,0.0,0.0,0.0,0.0,0.0,0.0,0.0,0.0,0.0,0.0,0.0,0.0,0.0,0.0,0.0,0.0,0.0,0.0,0.0,0.0,0.0,0.0,0.0,0.0,0.0,0.0,0.0,0.0,0.0,0.0,0.0,0.0,0.0,0.0,0.0,0.0,-1.6176,-1.708,0.0,0.0,0.0,0.0,0.0,0.0,0.0,0.0,0.0,0.0,0.0,0.0,0.0,-2.5236,-2.609,-2.7561,-2.842,-2.8637,-2.9524,-3.0028,-3.0133,-3.031,-3.0858,-3.166,-3.1211,0.0,-2.7709,-2.6855,0.0,0.0,0.0,0.0,0.0,0.0,0.0,0.0,0.0,0.0,0.0,0.0,0.0,0.0,0.0,0.0,0.0,0.0,0.0,0.0,0.0,-0.906,-0.949,-1.0221,-1.0235,-1.0136,-0.9928,0.0,0.0,-0.9106,-0.9169,-0.9507,-1.0168,-1.104,-1.2412,-1.4268,-1.601,-1.746,-1.8665,0.0,0.0,0.0,-1.9656,-1.8108,-1.6246,0.0,0.0,0.0,0.0,0.0,0.0,0.0,0.0,0.0,0.0,0.0,0.0,0.0,0.0,0.0,0.0,0.0,0.0,0.0,0.0,0.0,0.0,0.0,0.0,0.0,0.0,0.0,0.0,0.0,0.0,0.0,0.0,0.0,0.0,0.0,0.0,0.0,0.0,0.0,0.0,-1.5638,-1.783,-1.9619,-1.9831,-1.9831,0.0,0.0,0.0,0.0,0.0,0.0,0.0,0.0,0.0,-2.641,-2.7684,-2.8998,-3.0321,-3.1133,-3.2042,-3.3022,-3.3492,-3.3711,-3.3735,-3.4253,-3.4707,-3.5098,-3.5586,-3.4863,-3.3184,-3.0879,-2.8691,-2.6758,0.0,0.0,0.0,0.0,-2.5898,-2.6309,0.0,0.0,0.0,0.0,0.0,0.0,0.0,0.0,0.0,0.0,0.0,0.0,-0.9505,-1.0098,-1.077,-1.1544,-1.1668,0.0,0.0,0.0,-1.0024,-0.9407,-0.9517,-0.9938,-1.0674,-1.2219,-1.4499,-1.7513,-1.9114,0.0,0.0,0.0,0.0,0.0,0.0,0.0,0.0,0.0,0.0,0.0,0.0,0.0,0.0,0.0,0.0,0.0,0.0,0.0,0.0,0.0,0.0,0.0,0.0,0.0,0.0,0.0,0.0,0.0,0.0,0.0,0.0,0.0,0.0,0.0,0.0,0.0,0.0,0.0,0.0,0.0,0.0,0.0,0.0,0.0,0.0,0.0,0.0,-1.7676,-1.9792,-2.1908,-2.2543,-2.2716,0.0,0.0,0.0,0.0,0.0,0.0,-2.6621,-2.8343,-2.9569,-3.0189,-3.1513,-3.281,-3.4089,-3.4447,-3.5264,-3.6542,-3.6614,-3.668,-3.6699,-3.7344,-3.7637,-3.7676,-3.832,-3.8223,-3.7402,-3.4414,-3.2285,-3.0879,-3.0664,-3.0176,-2.9687,-3.0332,-3.0703,-3.0996,0.0,0.0,0.0,0.0,0.0,0.0,0.0,0.0,0.0,0.0,0.0,-0.9735,-0.9782,0.0,-1.2542,0.0,0.0,0.0,0.0,0.0,-1.0256,-1.0152,-1.0326,-1.0519,-1.0692,-1.3874,-1.672,0.0,0.0,0.0,0.0,0.0,0.0,0.0,0.0,0.0,0.0,0.0,0.0,0.0,0.0,0.0,0.0,0.0,0.0,0.0,0.0,0.0,0.0,0.0,0.0,0.0,0.0,0.0,0.0,0.0,0.0,0.0,0.0,0.0,0.0,0.0,0.0,0.0,0.0,0.0,0.0,0.0,0.0,0.0,0.0,0.0,0.0,0.0,0.0,0.0,0.0,0.0,0.0,-2.386,-2.537,0.0,0.0,0.0,0.0,-2.7545,-2.7717,-2.8483,-3.0163,-3.1847,-3.2795,-3.2894,-3.5297,-3.6651,-3.68,-3.7691,-3.8188,-3.8285,-3.8404,-3.8476,-3.8476,-3.8516,-3.8535,-3.8535,-3.8574,-3.8574,-3.8398,-3.6562,-3.5273,-3.4355,-3.3535,-3.3184,-3.3144,-3.3184,-3.373,-3.4453,0.0,0.0,0.0,-0.7298,-0.7408,-0.753,-0.7753,-0.7841,-0.7969,-0.8253,-0.9062,-0.9875,0.0,-1.2046,-1.3141,0.0,0.0,0.0,0.0,0.0,-1.14,-1.2043,-1.1639,-1.2676,-1.541,-1.7147,-1.9216,0.0,0.0,0.0,0.0,0.0,0.0,0.0,0.0,0.0,0.0,0.0,0.0,0.0,0.0,0.0,0.0,0.0,0.0,0.0,0.0,0.0,0.0,0.0,0.0,0.0,0.0,0.0,0.0,0.0,0.0,0.0,0.0,0.0,0.0,0.0,0.0,0.0,0.0,0.0,0.0,0.0,0.0,0.0,0.0,0.0,0.0,0.0,0.0,0.0,0.0,0.0,0.0,-2.7016,-2.7852,0.0,-2.8552,-2.8571,-2.9294,-3.1018,-3.116,-3.2128,-3.4364,-3.5147,-3.579,-3.6356,-3.7352,-3.8144,-3.8739,-3.9169,-3.9643,-4.0194,-4.0248,-4.0273,-4.0273,-4.0273,-4.0566,-4.1055,-4.1055,-4.1367,-4.1836,-4.1211,-3.9473,-3.7187,-3.6875,-3.6758,-3.6758,-3.6758,-3.6934,-3.7207,-0.6828,-0.696,0.0,-0.753,-0.7665,-0.7739,-0.7885,-0.7941,-0.8157,-0.8706,-0.9472,-1.046,0.0,0.0,0.0,0.0,0.0,0.0,0.0,0.0,-1.2657,-1.2986,-1.3063,-1.4812,-1.8427,-1.9583,0.0,0.0,0.0,0.0,0.0,0.0,0.0,0.0,0.0,0.0,0.0,0.0,0.0,0.0,0.0,0.0,-1.6785,0.0,0.0,0.0,0.0,0.0,0.0,0.0,0.0,0.0,0.0,0.0,0.0,0.0,0.0,0.0,0.0,0.0,0.0,0.0,0.0,0.0,0.0,0.0,0.0,0.0,0.0,0.0,0.0,0.0,0.0,0.0,0.0,0.0,0.0,0.0,-2.6611,-2.8844,-3.0121,-3.0929,-3.1218,-3.1795,-3.2699,-3.4083,-3.4231,-3.5116,-3.7103,-3.7593,-3.8089,-3.87,-3.9355,-3.9992,-4.0606,-4.0991,-4.1465,-4.2031,-4.2031,-4.2031,-4.2031,-4.2031,-4.2324,-4.2832,-4.2832,-4.3164,-4.3691,-4.3691,-4.2363,-4.0312,-4.0312,-4.0137,-3.9883,-3.9883,-3.9707,-3.9434,-0.6874,-0.7064,-0.7287,-0.756,-0.7768,-0.7899,-0.7899,-0.8009,-0.8433,-0.937,-1.0303,-1.1539,0.0,0.0,0.0,0.0,0.0,0.0,0.0,-1.5016,-1.3858,-1.2974,-1.4683,-1.6844,-1.9363,0.0,0.0,0.0,0.0,0.0,0.0,0.0,0.0,0.0,0.0,0.0,0.0,0.0,0.0,0.0,0.0,0.0,-2.0196,0.0,0.0,0.0,0.0,0.0,0.0,0.0,0.0,0.0,0.0,0.0,0.0,0.0,0.0,0.0,0.0,0.0,0.0,0.0,0.0,0.0,0.0,0.0,0.0,0.0,0.0,0.0,0.0,0.0,0.0,0.0,0.0,0.0,-2.4379,-2.7112,-2.9198,-2.9294,-3.2218,-3.393,-3.3141,-3.4603,-3.5911,-3.6719,-3.6925,-3.7401,-3.8267,-3.9206,-3.9755,-3.9816,-4.1461,-4.2364,-4.2441,-4.3281,-4.3691,-4.3691,-4.3691,-4.3691,-4.3691,-4.3691,-4.3711,-4.373,-4.373,-4.3769,-4.3789,-4.3789,-4.3789,-4.3789,-4.3711,-4.3183,-4.2441,-4.2441,-4.1953,-4.1152,-0.708,-0.7317,-0.756,-0.7768,-0.787,-0.7899,-0.7899,-0.7927,-0.8326,-0.9372,-1.0184,0.0,0.0,0.0,0.0,0.0,0.0,-1.6063,-1.6286,-1.4454,-1.4071,-1.5691,-1.7932,0.0,-2.1951,0.0,0.0,0.0,0.0,0.0,0.0,0.0,0.0,0.0,0.0,0.0,0.0,0.0,0.0,0.0,0.0,0.0,-2.1985,0.0,0.0,0.0,0.0,0.0,0.0,0.0,0.0,0.0,0.0,0.0,0.0,0.0,0.0,0.0,0.0,0.0,0.0,0.0,0.0,0.0,0.0,0.0,0.0,0.0,0.0,0.0,0.0,0.0,0.0,0.0,-2.6255,-2.7986,-2.7766,-2.9602,-3.1679,-3.3526,-3.4564,-3.5526,-3.6507,-3.7026,-3.7661,-3.8527,-3.9249,-4.0034,-4.092,-4.1936,-4.2506,-4.2526,-4.3047,-4.332,-4.334,-4.3574,-4.3691,-4.3691,-4.3691,-4.3691,-4.3691,-4.3691,-4.4043,-4.4648,-4.4648,-4.5,-4.5586,-4.5586,-4.5586,-4.5469,-4.4199,-4.3555,-4.334,-4.334,-4.3203,-4.2988,-0.7162,-0.741,-0.7665,-0.787,-0.7899,-0.7899,-0.7899,-0.7899,-0.8391,-0.9773,-1.0332,0.0,0.0,0.0,0.0,0.0,0.0,-1.601,-1.5887,-1.5103,-1.5754,-1.8302,0.0,0.0,0.0,0.0,0.0,0.0,0.0,0.0,0.0,0.0,0.0,0.0,0.0,0.0,0.0,0.0,0.0,0.0,0.0,0.0,-2.3755,-2.2908,-2.1763,-2.0473,-1.96,-1.9081,-1.8573,-1.7145,0.0,0.0,0.0,0.0,0.0,0.0,0.0,0.0,0.0,0.0,0.0,0.0,0.0,0.0,0.0,0.0,0.0,0.0,0.0,0.0,0.0,0.0,0.0,0.0,-2.9333,-3.1352,-3.1737,-3.266,-3.3968,-3.5795,-3.6661,-3.7469,-3.845,-3.9181,-3.9796,-4.0315,-4.1212,-4.1967,-4.2491,-4.3144,-4.3552,-4.3587,-4.3961,-4.4199,-4.4238,-4.4609,-4.4785,-4.4785,-4.4785,-4.4785,-4.4785,-4.4785,-4.5078,-4.5547,-4.5547,-4.582,-4.6308,-4.6308,-4.6308,0.0,0.0,0.0,0.0,0.0,-4.3691,-4.3691,-0.7162,-0.7439,-0.7694,-0.787,-0.7899,-0.7899,-0.7899,-0.7914,-0.8558,-1.035,0.0,0.0,0.0,0.0,0.0,0.0,0.0,-1.61,0.0,0.0,0.0,-2.0539,-2.1473,0.0,0.0,0.0,0.0,0.0,0.0,0.0,0.0,0.0,0.0,0.0,0.0,0.0,0.0,0.0,0.0,0.0,0.0,0.0,-2.5207,-2.4505,-2.3764,-2.2966,-2.21,-2.1389,-2.0708,-1.9746,0.0,0.0,0.0,0.0,0.0,0.0,0.0,0.0,0.0,0.0,0.0,0.0,0.0,0.0,0.0,0.0,0.0,0.0,0.0,0.0,0.0,0.0,0.0,0.0,-3.2295,-3.4718,-3.5776,-3.593,-3.6199,-3.6911,-3.843,-3.9469,-3.9565,-4.1027,-4.195,-4.195,-4.2813,-4.3346,-4.3354,0.0,0.0,0.0,0.0,-4.4978,-4.5095,-4.5878,-4.6289,-4.6289,-4.6289,-4.6308,-4.6308,-4.6308,-4.6308,-4.6308,-4.6308,-4.6308,-4.6308,-4.6308,-4.6308,-4.6308,-4.6308,-4.582,-4.5058,-4.4277,-4.3983,-4.3976,-0.718,-0.7546,-0.7856,-0.7899,-0.7899,-0.7899,-0.7899,-0.7997,-0.8671,-1.0366,-1.0747,0.0,0.0,0.0,0.0,0.0,0.0,0.0,0.0,0.0,-2.0152,0.0,0.0,0.0,0.0,0.0,0.0,0.0,0.0,0.0,0.0,0.0,0.0,0.0,0.0,0.0,0.0,0.0,0.0,0.0,0.0,0.0,-2.5284,-2.5139,-2.4966,-2.4716,-2.3889,-2.3908,-2.4082,-2.246,-2.179,-2.1493,-2.0642,0.0,0.0,0.0,0.0,0.0,0.0,0.0,0.0,0.0,0.0,0.0,0.0,0.0,0.0,0.0,0.0,0.0,0.0,0.0,0.0,-3.2679,-3.4353,-3.6026,-3.8257,-3.8565,-3.8623,-3.8777,-3.9662,-4.0527,-4.1258,-4.2258,-4.2854,-4.2854,-4.3717,-4.4251,-4.4261,-4.499,-4.5422,-4.5438,-4.5609,-4.5709,-4.5728,-4.6002,-4.6133,-4.6133,0.0,0.0,-4.6308,-4.6308,-4.6308,-4.6308,-4.6308,-4.6308,-4.6308,-4.6308,-4.6308,-4.6308,-4.6308,-4.6191,-4.6035,-4.5859,-4.5741,-4.5645,-0.7379,-0.7665,-0.7899,-0.7899,-0.7899,-0.7899,-0.7899,-0.797,-0.8491,-0.9868,-1.0472,0.0,0.0,0.0,0.0,0.0,0.0,0.0,0.0,0.0,0.0,0.0,0.0,0.0,0.0,0.0,0.0,0.0,0.0,0.0,0.0,0.0,0.0,0.0,0.0,0.0,0.0,0.0,0.0,0.0,0.0,0.0,-2.5615,-2.5271,-2.5152,-2.5105,-2.4812,-2.4889,-2.5007,-2.4099,-2.3607,-2.3256,-2.2724,-2.1396,-1.9991,0.0,0.0,0.0,0.0,0.0,0.0,0.0,0.0,0.0,0.0,0.0,0.0,0.0,0.0,-2.7381,-2.9929,0.0,-3.2487,-3.5045,-3.6546,-3.7853,-3.9123,-3.9642,-4.0046,-4.0508,-4.0912,-4.1489,-4.2374,-4.3201,-4.3701,-4.3701,-4.4545,-4.5045,-4.5045,-4.5507,-4.5776,-4.5853,-4.5834,-4.5874,-4.5893,-4.5978,-4.5994,-4.5991,-4.6069,-4.6108,-4.6108,-4.6108,-4.6108,-4.6108,-4.6108,-4.6108,-4.6108,-4.6108,-4.6108,-4.6108,-4.6108,-4.6144,-4.6188,-4.6123,-4.606,-4.5996,-0.7485,-0.7724,-0.7899,-0.7899,-0.7899,-0.7899,-0.7899,-0.7957,-0.8355,-0.9372,-1.007,-1.0888,-1.1945,-1.206,-1.2491,0.0,0.0,0.0,0.0,0.0,0.0,0.0,0.0,0.0,0.0,0.0,0.0,0.0,0.0,0.0,0.0,0.0,0.0,0.0,0.0,0.0,0.0,0.0,0.0,0.0,0.0,0.0,-2.5882,-2.5343,-2.5057,-2.4974,-2.513,-2.5096,-2.4962,-2.4962,-2.4645,-2.4204,-2.4052,-2.304,-2.1807,-2.1119,-2.0706,0.0,0.0,0.0,0.0,0.0,0.0,0.0,0.0,0.0,-2.6053,-2.8602,-2.964,-3.0814,-3.3199,-3.4218,-3.5238,-3.693,-3.8373,-3.9354,-3.9508,-4.0085,-4.0816,-4.17,-4.195,-4.2393,-4.3258,-4.4066,-4.4547,-4.4547,-4.5201,-4.5586,-4.5586,-4.5586,-4.5643,-4.5757,-4.5757,-4.5796,-4.5834,-4.5873,-4.5881,-4.588,-4.588,-4.5899,-4.5899,-4.5899,-4.5899,-4.5899,-4.5899,-4.5899,-4.5899,-4.5899,-4.5899,-4.5899,-4.588,-4.5951,-4.6039,-4.5937,-4.588,-4.5867,-0.7241,-0.7591,-0.7899,-0.7899,-0.7899,-0.7899,-0.7899,-0.815,-0.8629,-0.94,-0.9842,-1.038,-1.1147,-1.1231,-1.1906,-1.3539,0.0,0.0,0.0,0.0,0.0,0.0,0.0,0.0,0.0,0.0,0.0,0.0,0.0,0.0,0.0,0.0,0.0,0.0,0.0,0.0,0.0,0.0,0.0,0.0,0.0,0.0,-2.5742,-2.5647,-2.5292,-2.4832,-2.4861,-2.4847,-2.4814,-2.4814,-2.479,-2.4728,-2.47,-2.4164,-2.3481,-2.3227,0.0,-2.1069,-2.0974,-2.1713,-2.287,-2.4361,-2.539,-2.6851,0.0,0.0,-3.0429,-3.2968,-3.3564,-3.416,-3.5949,-3.6353,-3.6988,-3.8719,-3.9161,-3.9546,-4.0258,-4.0431,-4.0816,-4.17,-4.2489,-4.3278,-4.4085,-4.4951,-4.5451,-4.5451,-4.5528,-4.5586,-4.5586,-4.5586,-4.5605,-4.5605,-4.5605,-4.5624,-4.5624,-4.5757,-4.5813,-4.5806,-4.5863,-4.5902,-4.5902,-4.5902,-4.5902,-4.5902,-4.5902,-4.5902,-4.5902,-4.5902,-4.5902,-4.5883,-4.5825,-4.5811,-4.5834,-4.5885,-4.5863,-4.5806,-0.7394,-0.768,-0.7899,-0.7899,-0.7899,-0.7927,-0.7996,-0.8133,-0.8414,-0.8958,-0.9527,-1.0028,-1.0423,-1.1265,-1.1902,-1.2155,-1.4533,0.0,-1.9291,0.0,0.0,0.0,0.0,0.0,0.0,0.0,0.0,0.0,0.0,0.0,0.0,0.0,0.0,0.0,0.0,0.0,0.0,0.0,0.0,0.0,0.0,0.0,-2.6167,-2.5706,-2.5079,-2.4478,-2.4716,-2.4731,0.0,0.0,-2.47,-2.4775,-2.4654,-2.4176,-2.3613,-2.3526,-2.3493,0.0,-2.4807,-2.5772,0.0,0.0,-2.8544,-2.9948,-3.1371,-3.2179,-3.3064,-3.4622,-3.5738,-3.6776,-3.7988,-3.82,-3.8604,0.0,-4.0412,-4.0873,-4.1219,-4.1258,-4.1585,-4.245,-4.2431,-4.2854,-4.4162,-4.5086,-4.5586,-4.5586,-4.5586,-4.5586,-4.5586,-4.5586,-4.5586,-4.5586,-4.5586,-4.5586,-4.5586,-4.5643,-4.568,-4.568,-4.5719,-4.5738,-4.5738,-4.5738,-4.5738,-4.5738,-4.5738,-4.5738,-4.5738,-4.5738,-4.5738,-4.5719,-4.5699,-4.568,-4.5699,-4.5719,-4.5719,-4.568,-0.7454,-0.7724,-0.7899,-0.7899,-0.7899,-0.7941,-0.809,-0.8158,-0.8306,-0.8657,-0.9205,-0.9584,-0.9697,-1.0876,-1.1519,-1.113,-1.4106,-1.669,0.0,-2.0499,0.0,0.0,0.0,0.0,0.0,0.0,0.0,0.0,0.0,0.0,0.0,0.0,0.0,0.0,0.0,0.0,0.0,0.0,0.0,0.0,0.0,0.0,-2.6209,-2.5623,-2.4759,-2.3916,-2.4209,-2.4209,0.0,0.0,-2.4006,-2.427,-2.4126,-2.3945,-2.3813,-2.3986,-2.4634,-2.5704,-2.7359,0.0,0.0,-2.9698,-3.1102,-3.2391,-3.2391,-3.368,-3.5141,-3.6007,-3.7353,-3.8623,-3.9469,-3.9623,-3.9892,-4.0719,-4.1393,-4.1893,-4.2124,-4.195,-4.2027,-4.2662,-4.2181,-4.2374,-4.3835,-4.4739,-4.5336,-4.5566,-4.5586,-4.5586,-4.5586,-4.5586,-4.5586,-4.5586,-4.5586,-4.5586,-4.5586,-4.5586,-4.5586,-4.5586,-4.5586,-4.5586,-4.5586,-4.5586,-4.5586,-4.5586,-4.5586,-4.5586,-4.5586,-4.5586,-4.5586,-4.5586,-4.5586,-4.5586,-4.5586,-4.5586,-4.5586,-4.5586,-0.7211,-0.7591,-0.7899,-0.7899,-0.7899,-0.7941,-0.809,-0.8267,-0.8467,-0.8681,-0.8834,-0.8925,-0.8925,-0.9607,-1.0339,-1.1045,-1.3448,-1.5709,-1.7521,-2.0011,0.0,0.0,0.0,0.0,0.0,0.0,0.0,0.0,0.0,0.0,0.0,0.0,0.0,0.0,0.0,0.0,0.0,0.0,0.0,0.0,0.0,0.0,-2.5439,-2.5421,-2.441,-2.3052,-2.3052,0.0,0.0,0.0,-2.239,-2.3052,-2.3052,-2.3692,0.0,-2.5169,-2.5632,0.0,0.0,0.0,-2.9506,-3.1198,-3.2872,-3.4122,-3.4122,-3.5411,-3.6873,-3.7738,-3.8642,-3.9508,-4.0296,-4.045,-4.0739,-4.1623,-4.1777,-4.2104,-4.2931,-4.2335,-4.1816,-4.1854,-4.1816,-4.2162,0.0,-4.3874,-4.4682,-4.5528,-4.5586,-4.5586,-4.5586,-4.5586,-4.5586,-4.5586,-4.5586,-4.5586,-4.5586,-4.5586,-4.5586,-4.5586,-4.5586,-4.5586,-4.5586,-4.5586,-4.5586,-4.5586,-4.5586,-4.5586,-4.5586,-4.5586,-4.5586,-4.5586,-4.5586,-4.5586,-4.5586,-4.5586,-4.5586,-4.5586,-0.7195,-0.7576,-0.7899,-0.7899,-0.7899,-0.7941,-0.809,-0.8267,-0.8479,-0.8681,-0.8818,0.0,0.0,0.0,0.0,0.0,-1.343,-1.5381,-1.6518,-1.8947,0.0,0.0,0.0,0.0,0.0,0.0,0.0,0.0,0.0,0.0,0.0,0.0,0.0,0.0,0.0,0.0,0.0,0.0,0.0,0.0,0.0,0.0,-2.6135,-2.5605,-2.4392,-2.2942,0.0,0.0,0.0,0.0,0.0,0.0,-2.2832,0.0,0.0,-2.5022,0.0,-2.7339,0.0,0.0,-3.1891,-3.3064,-3.4622,-3.5853,-3.5853,-3.6738,-3.7642,-3.795,-3.8238,-3.8527,-3.8796,-3.9315,-3.9796,-4.0085,-4.1566,-4.2758,-4.3066,-4.3316,-4.3258,-4.2739,-4.2662,0.0,0.0,0.0,0.0,-4.5528,-4.5586,-4.5586,-4.5586,-4.5586,-4.5586,-4.5586,-4.5586,-4.5586,-4.5586,-4.5586,-4.5586,-4.5586,-4.5586,-4.5586,-4.5586,-4.5586,-4.5586,-4.5586,-4.5586,-4.5586,-4.5586,-4.5586,-4.5586,-4.5586,-4.5586,-4.5586,-4.5586,-4.5586,-4.5586,-4.5586,-0.7348,-0.765,-0.7899,-0.7899,-0.7899,0.0,0.0,0.0,0.0,0.0,0.0,0.0,0.0,0.0,0.0,0.0,0.0,-1.502,-1.5627,0.0,0.0,0.0,0.0,0.0,0.0,0.0,0.0,0.0,0.0,0.0,0.0,0.0,0.0,0.0,0.0,0.0,0.0,0.0,0.0,0.0,0.0,0.0,-2.5273,-2.474,-2.3529,0.0,0.0,0.0,0.0,0.0,0.0,0.0,0.0,0.0,0.0,-2.5614,-2.7075,-2.8758,-3.1454,-3.2776,-3.3718,-3.518,-3.6372,-3.7084,-3.6776,-3.7373,-3.7834,-3.7238,-3.7334,-3.745,-3.7161,-3.7565,-3.8238,-3.9142,-4.0912,-4.2489,-4.3393,-4.397,-4.4105,-4.3585,-4.3278,-4.3201,0.0,0.0,0.0,-4.5528,-4.5586,-4.5586,-4.5586,-4.5586,-4.5586,-4.5586,-4.5586,-4.5586,-4.5586,-4.5586,-4.5586,-4.5586,-4.5586,-4.5586,-4.5586,-4.5586,-4.5586,-4.5586,-4.5586,-4.5586,-4.5586,-4.5586,-4.5586,-4.5586,-4.5586,-4.5586,-4.5586,-4.5586,-4.5586,-4.5586,-0.7605,-0.7753,-0.7899,0.0,0.0,0.0,0.0,0.0,0.0,0.0,0.0,0.0,0.0,0.0,0.0,0.0,0.0,0.0,-1.4809,0.0,0.0,0.0,0.0,-1.9483,-2.0904,-2.0303,-2.0637,0.0,0.0,0.0,0.0,0.0,0.0,0.0,0.0,0.0,0.0,0.0,0.0,0.0,0.0,0.0,-2.3015,-2.296,0.0,0.0,0.0,0.0,0.0,0.0,0.0,0.0,0.0,0.0,0.0,0.0,0.0,-3.0464,-3.3132,-3.4102,-3.4968,-3.7392,-3.8007,-3.7777,-3.6969,-3.7334,-3.7411,-3.5776,-3.5968,-3.6199,0.0,0.0,-3.6238,-3.87,-3.9931,-4.1431,-4.3893,-4.4316,-4.4355,0.0,0.0,0.0,0.0,0.0,0.0,-4.5528,0.0,-4.5586,-4.5586,-4.5586,-4.5586,-4.5586,-4.5586,-4.5586,-4.5586,-4.5586,-4.5586,-4.5586,-4.5586,-4.5586,-4.5586,-4.5586,-4.5586,-4.5586,-4.5586,-4.5586,-4.5586,-4.5586,-4.5586,-4.5586,-4.5586,-4.5586,-4.5586,-4.5586,-4.5586,-4.5586,0.0,0.0,0.0,0.0,0.0,0.0,0.0,0.0,0.0,0.0,0.0,0.0,0.0,0.0,0.0,0.0,0.0,0.0,0.0,0.0,0.0,0.0,0.0,0.0,0.0,-2.0532,0.0,0.0,0.0,0.0,0.0,0.0,0.0,0.0,0.0,0.0,0.0,0.0,0.0,0.0,0.0,0.0,-2.2942,0.0,0.0,0.0,0.0,0.0,0.0,0.0,0.0,0.0,0.0,0.0,-2.7779,0.0,0.0,-3.2807,-3.4112,-3.5725,-3.718,-3.7834,-3.8007,-3.795,-3.7719,-3.6873,-3.5834,-3.4757,-3.3699,-3.2718,-3.1859,0.0,0.0,-3.6257,-3.9277,0.0,-4.322,-4.447,0.0,-4.4374,0.0,-4.4778,-4.4335,-4.4893,0.0,0.0,-4.5586,-4.5586,-4.5586,-4.5586,-4.5586,-4.5586,-4.5586,-4.5586,-4.5586,-4.5586,-4.5586,-4.5586,-4.5586,-4.5586,-4.5586,-4.5586,-4.5586,-4.5586,-4.5586,-4.5586,-4.5586,-4.5586,-4.5586,-4.5586,-4.5586,-4.5586,-4.5586,-4.5586,-4.5586,-4.5586,0.0,0.0,0.0,0.0,0.0,0.0,0.0,0.0,0.0,0.0,0.0,0.0,0.0,0.0,0.0,0.0,0.0,0.0,0.0,0.0,0.0,0.0,0.0,0.0,0.0,0.0,0.0,0.0,0.0,0.0,0.0,0.0,0.0,0.0,0.0,0.0,0.0,0.0,0.0,0.0,0.0,0.0,0.0,0.0,0.0,0.0,0.0,0.0,0.0,0.0,0.0,-2.4963,-2.6264,-2.7682,-2.9214,-3.1142,0.0,-3.4396,-3.6065,-3.7536,-3.8565,-3.8565,-3.8565,-3.818,-3.6661,-3.5603,-3.4353,-3.2372,-3.1198,0.0,-2.9467,0.0,0.0,0.0,0.0,0.0,-4.2874,-4.4528,-4.5413,0.0,-4.5297,0.0,-4.4913,-4.5297,-4.5586,0.0,-4.5586,-4.5586,-4.5586,-4.5586,-4.5586,-4.5586,-4.5586,-4.5586,-4.5586,-4.5586,-4.5586,-4.5586,-4.5586,-4.5586,-4.5586,-4.5586,-4.5586,-4.5586,0.0,-4.5586,-4.5586,-4.5586,-4.5586,-4.5586,-4.5586,-4.5586,-4.5586,-4.5586,-4.5586,-4.5586,0.0,0.0,0.0,0.0,0.0,0.0,0.0,0.0,0.0,-0.8776,0.0,0.0,0.0,0.0,0.0,0.0,0.0,0.0,0.0,0.0,0.0,0.0,0.0,0.0,0.0,0.0,0.0,0.0,0.0,0.0,0.0,0.0,0.0,0.0,0.0,0.0,0.0,0.0,0.0,0.0,0.0,0.0,0.0,0.0,0.0,0.0,0.0,0.0,0.0,0.0,-2.5052,-2.6009,-2.765,-2.9269,-3.0923,-3.2773,-3.4139,-3.5628,-3.8042,-3.9095,-3.9431,-3.9315,-3.9123,-3.8123,-3.493,-3.393,-3.2795,-2.9602,0.0,-2.8525,-2.7698,-2.8929,-3.0948,-3.3603,0.0,-3.9931,-4.2701,-4.4432,-4.547,-4.5586,-4.5586,-4.5586,-4.5586,-4.5586,-4.5586,-4.5586,-4.5586,-4.5586,-4.5586,-4.5586,-4.5586,-4.5586,-4.5586,-4.5586,-4.5586,-4.5586,-4.5586,-4.5586,-4.5586,-4.5586,-4.5586,-4.5586,-4.5586,-4.5586,-4.5586,-4.5586,-4.5586,-4.5586,-4.5586,-4.5586,-4.5586,-4.5586,-4.5586,-4.5586,-4.5586,-4.5586,0.0,0.0,0.0,0.0,0.0,0.0,0.0,-0.8714,-0.9318,-0.9345,-0.9097,-0.9179,0.0,0.0,0.0,0.0,0.0,0.0,0.0,0.0,0.0,0.0,0.0,0.0,0.0,0.0,0.0,0.0,0.0,0.0,0.0,0.0,0.0,0.0,0.0,0.0,0.0,0.0,0.0,0.0,0.0,0.0,0.0,0.0,0.0,0.0,0.0,0.0,0.0,0.0,-2.6722,-2.7705,-2.9551,-3.1232,-3.2784,-3.4041,-3.5704,-3.7203,-3.7678,-3.9018,-4.0123,-3.9469,-3.8219,-3.6622,-3.4641,-3.2564,0.0,0.0,0.0,-2.6774,-2.5909,-2.7178,0.0,-3.2602,0.0,0.0,0.0,0.0,-4.4778,0.0,0.0,0.0,0.0,0.0,0.0,0.0,0.0,-4.5586,-4.5586,-4.5586,-4.5586,-4.5586,-4.5586,-4.5586,-4.5586,-4.5586,-4.5586,-4.5586,-4.5586,-4.5586,-4.5586,-4.5586,-4.5586,-4.5586,-4.5586,0.0,-4.5586,-4.5586,-4.5586,-4.5586,-4.5586,-4.5586,-4.5586,-4.5586,-4.5586,-4.5586,0.0,0.0,0.0,0.0,0.0,0.0,0.0,-0.9132,-0.9683,-1.0158,-1.0119,-1.0178,-1.0538,-1.0555,-1.0842,0.0,0.0,0.0,0.0,0.0,0.0,0.0,0.0,0.0,0.0,0.0,0.0,0.0,0.0,0.0,0.0,0.0,0.0,0.0,0.0,0.0,0.0,0.0,0.0,0.0,0.0,0.0,0.0,0.0,0.0,0.0,0.0,0.0,0.0,0.0,-2.5823,-2.7552,-2.9695,-3.1496,-3.3054,-3.4308,-3.5987,-3.7547,-3.8297,-3.9465,-4.02,-3.8931,-3.7642,-3.5911,-3.291,0.0,0.0,0.0,0.0,-2.5813,-2.538,0.0,0.0,0.0,0.0,0.0,0.0,0.0,0.0,0.0,0.0,0.0,0.0,0.0,0.0,0.0,0.0,-4.5586,-4.5586,-4.5586,-4.5586,-4.5586,-4.5586,-4.5586,-4.5586,-4.5586,-4.5586,-4.5586,-4.5586,-4.5586,-4.5586,-4.5586,-4.5586,-4.5586,-4.5586,-4.5586,-4.5586,-4.5586,-4.5586,-4.5586,-4.5586,-4.5586,-4.5586,-4.5586,-4.5586,-4.5586,0.0,0.0,0.0,0.0,0.0,0.0,0.0,-0.951,-1.0054,-1.0924,-1.1234,-1.1282,-1.1113,-1.0588,-1.0419,0.0,0.0,0.0,0.0,0.0,0.0,0.0,0.0,0.0,0.0,0.0,0.0,0.0,0.0,0.0,0.0,0.0,0.0,0.0,0.0,0.0,0.0,0.0,0.0,0.0,0.0,0.0,0.0,0.0,0.0,0.0,0.0,0.0,0.0,0.0,-2.441,-2.6264,-2.8668,-3.0698,-3.2434,-3.37,-3.5359,-3.7014,-3.8309,-3.9304,-3.9604,-3.8104,-3.6949,-3.5161,-3.1282,-2.9448,0.0,0.0,-2.5149,-2.5101,-2.5264,0.0,0.0,0.0,0.0,0.0,0.0,0.0,0.0,0.0,0.0,0.0,0.0,0.0,0.0,0.0,0.0,0.0,-4.5586,-4.5586,-4.5586,-4.5586,-4.5586,-4.5586,-4.5586,-4.5586,-4.5586,-4.5586,-4.5586,-4.5586,-4.5586,-4.5586,-4.5586,-4.5586,-4.5586,-4.5586,-4.5586,-4.5586,-4.5586,-4.5586,-4.5586,-4.5586,-4.5586,-4.5586,-4.5586,-4.5586,0.0,0.0,0.0,0.0,0.0,0.0,0.0,-0.9829,-1.0752,-1.1445,-1.1925,-1.1908,-1.118,-1.1045,-1.0758,0.0,0.0,0.0,0.0,0.0,0.0,0.0,0.0,0.0,0.0,0.0,0.0,0.0,0.0,0.0,0.0,0.0,0.0,0.0,0.0,0.0,0.0,0.0,0.0,0.0,0.0,0.0,0.0,0.0,0.0,0.0,0.0,0.0,0.0,0.0,0.0,-2.3768,-2.6172,-2.8704,-3.094,-3.1806,0.0,0.0,-3.6341,-3.7389,-3.8007,-3.7065,-3.5603,-3.3718,-3.1025,0.0,0.0,0.0,-2.4716,-2.4428,-2.5178,-2.5418,0.0,0.0,0.0,0.0,0.0,0.0,0.0,0.0,0.0,0.0,0.0,0.0,0.0,0.0,0.0,0.0,-4.5586,-4.5586,-4.5586,-4.5586,-4.5586,-4.5586,-4.5586,-4.5586,-4.5586,-4.5586,-4.5586,-4.5586,-4.5586,-4.5586,-4.5586,-4.5586,-4.5586,-4.5586,0.0,-4.5586,-4.5586,-4.5586,-4.5586,-4.5586,-4.5586,-4.5586,-4.5586,-4.5586,0.0,0.0,0.0,0.0,0.0,0.0,-0.9019,-0.9606,-1.0394,-1.1663,-1.2122,-1.2178,-1.1857,-1.1383,-1.0622,-0.9438,0.0,0.0,0.0,0.0,0.0,0.0,0.0,0.0,0.0,0.0,0.0,0.0,0.0,0.0,0.0,0.0,0.0,0.0,0.0,0.0,0.0,0.0,0.0,0.0,0.0,0.0,0.0,0.0,0.0,0.0,0.0,0.0,0.0,0.0,0.0,0.0,-2.2795,-2.469,0.0,0.0,-3.2147,-3.4336,-3.5314,-3.6757,-3.7796,-3.693,-3.5045,-3.2891,-3.0871,0.0,-2.6351,-2.5476,-2.5063,-2.4928,-2.5245,-2.5303,-2.5803,0.0,-2.7736,-2.9506,0.0,0.0,0.0,0.0,0.0,0.0,0.0,0.0,0.0,0.0,0.0,0.0,-4.5586,-4.5586,-4.5586,-4.5586,-4.5586,-4.5586,-4.5586,-4.5586,-4.5586,-4.5586,-4.5586,-4.5586,-4.5586,-4.5586,-4.5586,-4.5586,-4.5586,-4.5586,0.0,-4.5586,-4.5586,-4.5586,-4.5586,-4.5586,-4.5586,-4.5586,-4.5586,-4.5586,0.0,0.0,0.0,0.0,0.0,-0.8198,-0.905,-0.9368,-0.9989,-1.1383,-1.1786,-1.1942,-1.1942,-1.1248,-1.0352,-0.9315,-0.9506,0.0,0.0,0.0,0.0,0.0,0.0,0.0,0.0,0.0,0.0,0.0,0.0,0.0,0.0,0.0,0.0,0.0,0.0,0.0,0.0,0.0,0.0,0.0,0.0,0.0,0.0,0.0,0.0,0.0,0.0,0.0,0.0,0.0,0.0,0.0,0.0,0.0,0.0,0.0,-3.0208,-3.2617,-3.3612,-3.5159,-3.6334,-3.5738,-3.3853,-3.1775,0.0,0.0,-2.6043,-2.5418,-2.512,-2.5024,-2.5264,-2.5303,-2.5495,0.0,-2.6332,-2.7871,-3.1968,0.0,0.0,0.0,0.0,0.0,0.0,0.0,0.0,0.0,0.0,0.0,-4.5586,-4.5586,-4.5586,-4.5586,-4.5586,-4.5586,-4.5586,-4.5586,-4.5586,-4.5586,-4.5586,-4.5586,-4.5586,-4.5586,-4.5586,-4.5586,-4.5586,-4.5586,0.0,-4.5586,-4.5586,-4.5586,-4.5586,-4.5586,-4.5586,-4.5586,-4.5586,-4.5586,0.0,0.0,0.0,0.0,0.0,0.0,-0.88,-0.9248,-0.9738,-1.0431,-1.0849,-1.1113,-1.1113,-1.0453,-1.0001,-0.9984,-0.932,0.0,0.0,0.0,0.0,0.0,0.0,0.0,0.0,0.0,0.0,0.0,0.0,0.0,0.0,0.0,0.0,0.0,0.0,0.0,0.0,0.0,0.0,0.0,0.0,0.0,-1.9305,0.0,0.0,0.0,0.0,0.0,0.0,0.0,0.0,0.0,0.0,0.0,0.0,0.0,-2.7531,-3.0009,-3.0825,-3.1974,-3.2949,-3.2949,-3.1679,-3.0198,0.0,-2.714,-2.5303,-2.5303,-2.4678,-2.436,-2.5149,-2.5303,-2.5303,-2.5303,-2.7428,-2.9679,-3.1468,0.0,0.0,0.0,0.0,0.0,0.0,0.0,0.0,0.0,0.0,0.0,-4.5586,-4.5586,-4.5586,-4.5586,-4.5586,-4.5586,-4.5586,-4.5586,-4.5586,-4.5586,-4.5586,-4.5586,-4.5586,-4.5586,-4.5586,-4.5586,-4.5586,-4.5586,0.0,-4.5586,-4.5586,-4.5586,-4.5586,-4.5586,-4.5586,-4.5586,-4.5586,-4.5586,0.0,0.0,0.0,0.0,0.0,0.0,0.0,-0.8517,-0.9003,-0.9722,-1.0134,-1.0538,-1.1045,-1.0453,-1.0001,-1.0001,-0.932,0.0,0.0,0.0,0.0,0.0,0.0,0.0,0.0,0.0,-1.3799,-1.4479,-1.4543,0.0,0.0,0.0,0.0,0.0,0.0,0.0,0.0,0.0,0.0,0.0,0.0,-1.694,-1.766,0.0,0.0,0.0,0.0,0.0,0.0,0.0,0.0,0.0,0.0,0.0,0.0,-2.2156,-2.4604,0.0,-2.8726,-3.0032,-3.0981,-3.0981,-2.9831,-2.8621,-2.8332,-2.6736,-2.5303,-2.5303,-2.5101,-2.5005,-2.5245,-2.5303,-2.5687,-2.689,-2.7755,0.0,0.0,0.0,0.0,0.0,0.0,0.0,0.0,0.0,0.0,0.0,0.0,0.0,-4.5586,-4.5586,-4.5586,-4.5586,-4.5586,-4.5586,-4.5586,-4.5586,-4.5586,-4.5586,-4.5586,-4.5586,-4.5586,-4.5586,-4.5586,-4.5586,-4.5586,-4.5586,-4.5586,-4.5586,-4.5586,-4.5586,-4.5586,-4.5586,-4.5586,-4.5586,-4.5586,-4.5586,0.0,0.0,0.0,0.0,0.0,0.0,0.0,-0.8191,-0.8559,-0.9032,-0.9388,-0.9861,-1.0605,-1.003,-0.9709,-0.9967,-0.932,0.0,0.0,0.0,0.0,0.0,0.0,0.0,0.0,-1.2799,-1.3645,-1.4863,-1.5006,-1.5553,-1.6429,-1.5986,0.0,0.0,0.0,0.0,0.0,0.0,0.0,0.0,-1.5582,-1.6004,-1.6468,0.0,0.0,0.0,0.0,0.0,0.0,0.0,0.0,0.0,0.0,0.0,0.0,0.0,-2.2421,-2.4426,0.0,-2.804,-2.9172,-2.9257,-2.8267,-2.7228,-2.6976,-2.5832,-2.4851,-2.4851,-2.4851,-2.4947,-2.5245,-2.5303,-2.5649,-2.6736,-2.7467,0.0,0.0,0.0,0.0,0.0,0.0,0.0,0.0,0.0,0.0,0.0,0.0,0.0,-4.5586,-4.5586,-4.5586,-4.5586,-4.5586,-4.5586,-4.5586,-4.5586,-4.5586,-4.5586,-4.5586,-4.5586,-4.5586,-4.5586,-4.5586,-4.5586,-4.5586,-4.5586,0.0,-4.5586,-4.5586,-4.5586,-4.5586,-4.5586,-4.5586,-4.5586,-4.5586,-4.5586,0.0,0.0,0.0,0.0,0.0,0.0,0.0,-0.8191,-0.8403,-0.8403,-0.8696,-0.9162,-0.9849,-0.9315,-0.9179,-0.9866,0.0,0.0,0.0,0.0,0.0,0.0,0.0,0.0,0.0,-1.2393,-1.3273,-1.4916,-1.5294,-1.5897,-1.6697,-1.6903,-1.656,0.0,0.0,0.0,0.0,0.0,0.0,0.0,-1.5307,-1.56,0.0,0.0,0.0,0.0,0.0,0.0,0.0,0.0,0.0,0.0,0.0,0.0,0.0,0.0,0.0,0.0,0.0,-2.5977,-2.7281,-2.7451,-2.678,-2.5898,-2.5264,-2.4543,0.0,-2.4091,-2.411,-2.436,-2.5236,-2.5341,-2.538,-2.561,0.0,0.0,0.0,0.0,0.0,0.0,0.0,0.0,0.0,0.0,0.0,0.0,0.0,0.0,-4.5586,-4.5586,-4.5586,-4.5586,-4.5586,-4.5586,-4.5586,-4.5586,-4.5586,-4.5586,-4.5586,-4.5586,-4.5586,-4.5586,-4.5586,0.0,-4.5586,-4.5586,-4.5586,-4.5586,-4.5586,-4.5586,-4.5586,-4.5586,-4.5586,-4.5586,-4.5586,-4.5586,0.0,0.0,0.0,0.0,0.0,0.0,0.0,0.0,0.0,0.0,-0.8696,-0.8959,-0.9145,-0.8993,-0.8959,0.0,0.0,0.0,0.0,0.0,0.0,0.0,0.0,0.0,0.0,-1.202,-1.3551,-1.6021,-1.6116,-1.7019,-1.8627,-1.8086,-1.7385,-1.6578,-1.5967,0.0,0.0,0.0,0.0,0.0,-1.4719,-1.4793,0.0,0.0,0.0,0.0,-1.5903,-1.6256,0.0,0.0,0.0,0.0,0.0,0.0,0.0,0.0,-2.0899,-2.1521,-2.2143,0.0,-2.3698,-2.3625,-2.3621,-2.3583,0.0,-2.3235,0.0,0.0,0.0,-2.4553,-2.6024,-2.5755,-2.6149,0.0,0.0,0.0,0.0,0.0,0.0,0.0,0.0,0.0,0.0,0.0,0.0,0.0,0.0,-4.5586,-4.5586,-4.5586,-4.5586,-4.5586,-4.5586,-4.5586,-4.5586,-4.5586,-4.5586,-4.5586,-4.5586,-4.5586,-4.5586,-4.5586,-4.5586,-4.5586,-4.5586,-4.5586,-4.5586,-4.5586,-4.5586,-4.5586,-4.5586,-4.5586,-4.5586,-4.5586,-4.5586,-4.5586,0.0,0.0,0.0,0.0,0.0,0.0,0.0,0.0,0.0,0.0,0.0,-0.8891,-0.8891,-0.8891,0.0,0.0,0.0,0.0,0.0,0.0,0.0,0.0,0.0,0.0,-1.1079,-1.1519,-1.3213,-1.6219,-1.6336,-1.7351,-1.9148,-1.8804,-1.8023,-1.6853,-1.5674,0.0,0.0,0.0,0.0,-1.3985,-1.4352,0.0,0.0,0.0,0.0,0.0,-1.52,-1.5642,0.0,-1.6929,-1.7676,-1.8398,0.0,0.0,0.0,0.0,-2.0619,-2.093,-2.0849,-2.1923,-2.3099,-2.3119,-2.3184,-2.3275,-2.338,0.0,0.0,0.0,0.0,0.0,-2.5774,0.0,0.0,0.0,0.0,0.0,0.0,0.0,0.0,0.0,0.0,0.0,0.0,0.0,0.0,0.0,0.0,-4.5586,-4.5586,-4.5586,-4.5586,-4.5586,-4.5586,-4.5586,-4.5586,-4.5586,-4.5586,-4.5586,-4.5586,-4.5586,-4.5586,-4.5586,-4.5586,-4.5586,-4.5586,-4.5586,-4.5586,-4.5586,-4.5586,-4.5586,-4.5586,-4.5586,-4.5586,-4.5586,-4.5586,-4.5586,0.0,0.0,0.0,0.0,0.0,0.0,0.0,0.0,0.0,0.0,0.0,0.0,0.0,0.0,0.0,0.0,0.0,0.0,0.0,0.0,0.0,0.0,0.0,-0.9708,-1.1301,-1.123,-1.2781,-1.6098,-1.6318,-1.7247,-1.8871,-1.9157,-1.8445,-1.6835,-1.535,-1.4598,0.0,0.0,0.0,-1.3537,-1.4224,0.0,0.0,0.0,0.0,0.0,0.0,0.0,0.0,-1.6725,-1.7555,-1.8451,-1.9202,0.0,0.0,0.0,0.0,0.0,-2.024,-2.1903,-2.3643,-2.3669,-2.3658,-2.3692,-2.3851,0.0,0.0,0.0,0.0,0.0,0.0,0.0,0.0,0.0,0.0,0.0,0.0,0.0,0.0,0.0,0.0,0.0,0.0,0.0,0.0,0.0,0.0,-4.5586,-4.5586,-4.5586,-4.5586,-4.5586,-4.5586,-4.5586,-4.5586,-4.5586,-4.5586,-4.5586,-4.5586,-4.5586,-4.5586,-4.5586,-4.5586,-4.5586,0.0,0.0,-4.5586,-4.5586,-4.5586,-4.5586,-4.5586,-4.5586,-4.5586,-4.5586,-4.5586,-4.5586,0.0,0.0,0.0,0.0,0.0,0.0,0.0,0.0,0.0,0.0,0.0,0.0,0.0,0.0,0.0,0.0,0.0,0.0,0.0,0.0,0.0,0.0,-0.9312,-1.0223,-1.2321,-1.1806,-1.3156,-1.6504,-1.6553,-1.7128,-1.8239,-1.8962,-1.8445,-1.6853,-1.5931,-1.5141,-1.4488,0.0,0.0,-1.4334,-1.4451,0.0,0.0,0.0,0.0,0.0,0.0,0.0,0.0,-1.5308,-1.6307,-1.7414,-1.6994,0.0,0.0,0.0,0.0,0.0,-2.1095,-2.2094,-2.2767,-2.1933,-2.2345,-2.2967,0.0,0.0,0.0,0.0,0.0,0.0,0.0,0.0,0.0,0.0,0.0,0.0,0.0,0.0,0.0,0.0,0.0,0.0,0.0,0.0,0.0,0.0,0.0,-4.5586,-4.5586,-4.5586,-4.5586,-4.5586,-4.5586,-4.5586,-4.5586,-4.5586,-4.5586,-4.5586,-4.5586,-4.5586,-4.5586,-4.5586,-4.5586,-4.5586,0.0,-4.5586,-4.5586,-4.5586,-4.5586,-4.5586,-4.5586,-4.5586,-4.5586,-4.5586,-4.5586,-4.5586,0.0,0.0,0.0,0.0,0.0,0.0,0.0,0.0,0.0,0.0,0.0,0.0,0.0,0.0,0.0,0.0,0.0,0.0,0.0,0.0,0.0,-1.0132,-1.0159,-1.0757,-1.2033,-1.2616,-1.4119,-1.6595,-1.7044,-1.7751,-1.8739,-1.8243,-1.7605,-1.6853,-1.5588,-1.4848,-1.4488,0.0,-1.4545,-1.4603,0.0,0.0,0.0,0.0,0.0,0.0,0.0,0.0,0.0,0.0,-1.6567,-1.7453,-1.7145,0.0,0.0,0.0,0.0,0.0,-2.0062,-2.1446,-2.2688,-2.223,-2.3141,-2.4274,0.0,0.0,0.0,0.0,0.0,0.0,0.0,0.0,0.0,0.0,0.0,0.0,0.0,0.0,0.0,0.0,0.0,0.0,0.0,0.0,0.0,0.0,0.0,0.0,-4.5586,-4.5586,-4.5586,-4.5586,-4.5586,-4.5586,-4.5586,-4.5586,-4.5586,-4.5586,-4.5586,-4.5586,-4.5586,-4.5586,-4.5586,-4.5586,0.0,-4.5586,-4.5586,-4.5586,-4.5586,-4.5586,-4.5586,-4.5586,-4.5586,-4.5586,-4.5586,-4.5586,0.0,0.0,0.0,0.0,0.0,0.0,0.0,0.0,0.0,0.0,0.0,0.0,0.0,0.0,0.0,0.0,0.0,0.0,0.0,0.0,-1.0007,-1.0721,-1.1032,-1.1594,-1.2502,-1.3559,-1.504,-1.6943,-1.7576,-1.8362,-1.9271,-1.7858,-1.7073,-1.6835,-1.5405,-1.4683,-1.4499,-1.4533,-1.4603,-1.4707,0.0,0.0,0.0,0.0,0.0,0.0,0.0,0.0,0.0,0.0,0.0,0.0,0.0,0.0,0.0,-1.8203,-1.8491,-1.9081,-1.9477,-2.1004,-2.2581,-2.3004,0.0,-2.5572,0.0,0.0,0.0,0.0,0.0,0.0,0.0,0.0,0.0,0.0,0.0,0.0,0.0,0.0,0.0,0.0,0.0,0.0,0.0,0.0,0.0,0.0,0.0,0.0,-4.5586,-4.5586,-4.5586,-4.5586,-4.5586,-4.5586,-4.5586,-4.5586,-4.5586,-4.5586,-4.5586,-4.5586,-4.5586,-4.5586,-4.5586,-4.5586,-4.5586,-4.5586,-4.5586,-4.5586,-4.5586,-4.5586,-4.5586,-4.5586,-4.5586,-4.5586,-4.555,-4.5495,0.0,0.0,0.0,0.0,0.0,0.0,0.0,0.0,0.0,0.0,0.0,0.0,0.0,0.0,0.0,0.0,0.0,0.0,0.0,0.0,-1.0058,-1.0848,-1.1608,-1.3015,-1.5179,-1.4709,-1.563,-1.799,-1.8064,-1.8504,-1.9271,-1.8427,-1.7605,-1.6853,-1.6004,-1.5197,0.0,-1.4635,-1.4697,-1.4717,-1.485,0.0,0.0,0.0,0.0,0.0,0.0,0.0,0.0,0.0,0.0,0.0,0.0,0.0,-1.8992,-1.8915,-1.8946,-1.9342,-2.0908,-2.1446,-2.1985,-2.361,0.0,0.0,0.0,0.0,0.0,0.0,0.0,0.0,0.0,0.0,0.0,0.0,0.0,0.0,0.0,0.0,0.0,0.0,0.0,0.0,0.0,0.0,0.0,0.0,0.0,0.0,-4.5586,-4.5586,-4.5586,-4.5586,-4.5586,-4.5586,-4.5586,-4.5586,-4.5586,-4.5586,-4.5586,-4.5586,-4.5586,-4.5586,-4.5586,-4.5586,-4.5586,-4.5586,-4.5586,-4.5586,-4.5586,-4.5586,-4.5586,-4.5586,-4.5586,-4.5586,-4.54,-4.5137,0.0,0.0,0.0,0.0,0.0,0.0,0.0,0.0,0.0,0.0,0.0,0.0,0.0,0.0,0.0,0.0,0.0,0.0,0.0,0.0,-1.0058,-1.0857,-1.1673,-1.2745,-1.4105,-1.5356,-1.667,-1.8096,-1.8096,-1.8262,-1.8537,-1.7215,-1.6445,-1.6114,-1.5395,0.0,0.0,0.0,-1.4849,-1.4898,-1.4938,-1.5033,0.0,0.0,0.0,0.0,0.0,0.0,0.0,0.0,-1.5772,-1.6407,-1.5868,-1.6503,-1.7452,-1.7452,-1.7446,-1.7811,-1.9496,-2.11,0.0,0.0,0.0,0.0,0.0,0.0,0.0,0.0,0.0,0.0,0.0,0.0,0.0,0.0,0.0,0.0,0.0,0.0,0.0,0.0,0.0,0.0,0.0,0.0,0.0,0.0,0.0,0.0,-4.5586,-4.5586,-4.5586,-4.5586,-4.5586,-4.5586,-4.5586,-4.5586,-4.5586,-4.5586,-4.5586,-4.5586,-4.5586,-4.5586,-4.5586,-4.5586,-4.5586,-4.5586,-4.5586,-4.5586,-4.5586,-4.5586,-4.5586,-4.5586,-4.5586,-4.5586,-4.54,-4.5096,0.0,0.0,0.0,0.0,0.0,0.0,0.0,0.0,0.0,0.0,0.0,0.0,0.0,0.0,0.0,0.0,0.0,0.0,0.0,-0.9698,-1.0058,-1.0857,-1.1425,-1.2333,-1.3647,-1.5307,-1.6542,-1.7344,-1.7642,-1.778,-1.7762,-1.6442,-1.5959,-1.6156,0.0,0.0,0.0,0.0,0.0,-1.4995,-1.5042,-1.5127,0.0,0.0,0.0,0.0,0.0,0.0,0.0,0.0,-1.5599,-1.6022,-1.5715,-1.6022,-1.6542,-1.6792,-1.7061,-1.76,-1.9016,-2.1081,-2.2928,0.0,0.0,0.0,0.0,0.0,0.0,0.0,0.0,0.0,0.0,0.0,0.0,0.0,0.0,0.0,0.0,0.0,0.0,0.0,0.0,0.0,0.0,0.0,0.0,0.0,0.0,0.0,0.0,-4.5586,-4.5586,-4.5586,-4.5586,-4.5586,-4.5586,-4.5586,-4.5586,-4.5586,-4.5495,-4.5495,-4.5605,-4.5495,-4.5438,-4.5438,-4.5342,-4.5342,-4.5438,-4.5438,-4.5495,-4.5586,-4.5586,-4.5586,-4.5586,-4.5495,-4.5222,-4.4919,0.0,0.0,0.0,0.0,0.0,0.0,0.0,0.0,0.0,0.0,0.0,0.0,0.0,0.0,0.0,0.0,0.0,0.0,-0.9691,-0.9698,-1.0066,-1.0857,-1.0893,-1.2012,-1.4414,-1.4469,-1.4885,-1.5723,-1.6633,-1.7083,-1.7076,-1.6399,-1.6517,-1.7216,0.0,0.0,0.0,0.0,0.0,0.0,-1.514,-1.5189,-1.5189,0.0,0.0,0.0,0.0,0.0,0.0,0.0,-1.5189,-1.5349,-1.6215,-1.6503,-1.6676,-1.7472,-1.8318,-1.9184,-2.0062,-2.1523,0.0,0.0,0.0,0.0,0.0,0.0,0.0,0.0,0.0,0.0,0.0,0.0,0.0,0.0,0.0,0.0,0.0,0.0,0.0,0.0,0.0,0.0,0.0,0.0,0.0,0.0,0.0,0.0,-4.5586,-4.5586,-4.5586,-4.5586,-4.5586,-4.5586,-4.5605,-4.5605,-4.5586,-4.5586,-4.5243,-4.5263,-4.5586,-4.5243,-4.5096,-4.5074,-4.4732,-4.48,-4.5096,-4.5096,-4.5302,-4.5586,-4.5586,-4.5586,-4.5568,-4.5222,-4.4896,-4.4553,0.0,0.0,0.0,0.0,0.0,0.0,0.0,0.0,0.0,0.0,0.0,0.0,0.0,0.0,0.0,0.0,0.0,0.0,-0.9691,-0.9698,-0.9808,-1.0047,-1.06,-1.1242,-1.1957,-1.2517,-1.4077,-1.6682,-1.6402,-1.6302,-1.638,-1.5612,-1.5367,-1.5592,0.0,0.0,0.0,0.0,0.0,0.0,-1.5183,-1.5189,-1.5189,0.0,0.0,0.0,0.0,0.0,0.0,0.0,0.0,0.0,-1.5503,-1.6388,-1.7273,-1.6946,-1.7869,-1.9196,-2.0062,-2.1523,0.0,0.0,0.0,0.0,0.0,0.0,0.0,0.0,0.0,0.0,0.0,0.0,0.0,0.0,0.0,0.0,0.0,0.0,0.0,0.0,0.0,0.0,0.0,0.0,0.0,0.0,0.0,0.0,-4.5586,-4.5586,-4.5586,-4.5586,-4.5586,-4.5495,-4.5243,-4.5243,-4.5118,-4.4896,-4.48,-4.4919,-4.5243,-4.4896,-4.4751,-4.4732,-4.4631,-4.4676,-4.4776,-4.4988,-4.5302,-4.5586,-4.5586,-4.5586,-4.5568,-4.5222,-4.4896,-4.4553,0.0,0.0,0.0,0.0,0.0,0.0,0.0,0.0,0.0,0.0,0.0,0.0,0.0,0.0,0.0,0.0,0.0,0.0,0.0,0.0,-0.9698,-0.9698,-1.0168,-1.0718,-1.1352,-1.2188,-1.3642,-1.5698,-1.5224,-1.5048,-1.5193,-1.5429,-1.5708,-1.6021,0.0,-1.6065,0.0,0.0,0.0,0.0,-1.5189,-1.5189,-1.5189,0.0,0.0,0.0,0.0,0.0,0.0,0.0,0.0,0.0,-1.5189,-1.5888,-1.6734,-1.6926,-1.8177,-1.9785,-2.0966,0.0,0.0,0.0,0.0,0.0,0.0,0.0,0.0,0.0,0.0,0.0,0.0,0.0,0.0,0.0,0.0,0.0,0.0,0.0,0.0,0.0,0.0,0.0,0.0,0.0,0.0,0.0,0.0,-4.5201,-4.54,-4.54,-4.54,-4.54,-4.5263,-4.5118,-4.4896,-4.4896,-4.48,-4.4599,-4.4447,-4.4455,-4.4663,-4.4455,-4.4346,-4.4346,-4.4346,-4.4346,-4.4401,-4.4896,-4.5222,-4.5419,-4.555,-4.5513,-4.5362,-4.5011,-4.4682,-4.4308,0.0,0.0,-0.8712,-0.8869,0.0,0.0,0.0,0.0,0.0,0.0,0.0,-0.8968,0.0,0.0,0.0,-0.9508,0.0,0.0,0.0,0.0,-0.9698,-0.9698,-0.9861,-1.066,-1.2188,-1.2938,-1.3364,-1.3503,-1.3588,-1.3686,-1.385,-1.5568,-1.6772,-1.7465,0.0,-1.7465,0.0,0.0,0.0,-1.5189,-1.5189,-1.5189,-1.5189,-1.5112,0.0,0.0,0.0,0.0,0.0,0.0,0.0,0.0,-1.5189,-1.5305,-1.5715,-1.7176,-1.8927,-2.0735,0.0,0.0,0.0,0.0,0.0,0.0,0.0,0.0,0.0,0.0,0.0,0.0,0.0,0.0,0.0,0.0,0.0,0.0,0.0,0.0,0.0,0.0,0.0,0.0,0.0,0.0,0.0,0.0,0.0,-4.4843,-4.4982,-4.496,-4.4998,-4.5096,-4.4757,-4.458,-4.4553,-4.4553,-4.4527,-4.4501,-4.4136,-4.3955,-4.3955,-4.3955,-4.3955,-4.3955,-4.3955,-4.3986,-4.4058,-4.4713,-4.5011,-4.5074,-4.54,-4.5322,-4.5011,-4.4657,-4.4318,-4.3955,0.0,0.0,-0.8551,-0.8846,0.0,0.0,0.0,0.0,-0.8891,-0.8891,-0.9001,-0.9099,-0.9237,-0.9376,0.0,-0.9641,-0.9691,0.0,0.0,0.0,-0.9698,-0.9698,-1.1007,-1.2213,-1.3242,-1.2847,-1.2659,-1.2737,-1.3422,-1.38,0.0,0.0,0.0,-1.5734,0.0,-1.5734,0.0,0.0,-1.5368,-1.5189,-1.5189,-1.5189,-1.5132,-1.444,-1.4593,0.0,0.0,0.0,0.0,0.0,0.0,0.0,-1.5189,-1.6099,-1.7099,-1.683,-1.8888,-2.1331,0.0,0.0,0.0,0.0,0.0,0.0,0.0,0.0,0.0,0.0,0.0,0.0,0.0,0.0,0.0,0.0,0.0,0.0,0.0,0.0,0.0,0.0,0.0,0.0,0.0,0.0,0.0,0.0,-4.2498,-4.2875,-4.4088,-4.3847,-4.4128,-4.5077,-4.4757,-4.4447,-4.4117,-4.4117,-4.4004,-4.3744,-4.3646,-4.3597,-4.3597,-4.3597,-4.3597,-4.3597,-4.3597,-4.3758,-4.3998,-4.4175,-4.4428,-4.4707,-4.4781,-4.4757,-4.4657,-4.4261,-4.4058,-4.3955,0.0,0.0,0.0,0.0,0.0,0.0,0.0,0.0,-0.8891,-0.8891,-0.9022,-0.9149,-0.9293,-0.9412,0.0,0.0,-0.9698,-0.9698,0.0,0.0,0.0,-0.9747,-1.1001,-1.1918,-1.2395,-1.2026,-1.204,-1.2503,-1.3016,0.0,0.0,0.0,0.0,-1.6426,0.0,-1.6561,0.0,0.0,-1.4959,-1.4574,-1.4574,-1.4574,-1.4536,-1.4074,-1.394,-1.3983,-1.392,0.0,0.0,0.0,0.0,0.0,0.0,0.0,-1.658,-1.6965,-1.86,-2.0562,0.0,0.0,0.0,0.0,0.0,0.0,0.0,0.0,0.0,0.0,0.0,0.0,0.0,0.0,0.0,0.0,0.0,0.0,0.0,0.0,0.0,0.0,0.0,0.0,0.0,0.0,0.0,0.0,-4.1698,-4.1967,-4.2761,-4.261,-4.2773,-4.3404,-4.3465,-4.3397,-4.3167,-4.3555,-4.366,-4.3497,-4.3497,-4.3497,-4.3497,-4.3497,-4.3497,-4.3497,-4.3497,-4.3597,-4.3772,-4.3924,-4.4117,-4.4318,-4.4527,-4.4474,-4.429,-4.4058,-4.3912,-4.3758,0.0,0.0,0.0,0.0,0.0,0.0,0.0,0.0,0.0,-0.8891,-0.9043,-0.9169,-0.9293,-0.9439,-0.9585,0.0,0.0,0.0,-0.9698,0.0,0.0,0.0,-1.0698,-1.1152,-1.1364,-1.1281,-1.1658,-1.2528,0.0,0.0,0.0,0.0,0.0,-1.7741,0.0,0.0,0.0,-1.5407,-1.4555,-1.3896,-1.3747,-1.369,-1.369,-1.3536,-1.3156,-1.2777,-1.3286,-1.3651,-1.4017,-1.4728,0.0,0.0,0.0,0.0,-1.5503,-1.7042,-1.8203,-1.9453,0.0,0.0,0.0,0.0,0.0,0.0,0.0,0.0,0.0,0.0,0.0,0.0,0.0,0.0,0.0,0.0,0.0,0.0,0.0,0.0,0.0,0.0,0.0,0.0,0.0,0.0,0.0,0.0,-4.1109,-4.1194,-4.1381,-4.1343,-4.1417,-4.1586,-4.1907,-4.2084,-4.2084,-4.2745,-4.3075,-4.3075,-4.3222,-4.3277,-4.3296,-4.3424,-4.3497,-4.3497,-4.3497,-4.3497,-4.3513,-4.3804,-4.3893,-4.3974,-4.428,-4.4223,-4.3893,-4.3893,-4.3758,-4.3497,0.0,0.0,0.0,0.0,0.0,0.0,0.0,0.0,0.0,0.0,-0.9109,-0.9284,-0.9303,-0.9525,-0.9683,-0.9698,-0.9698,-0.9698,0.0,0.0,0.0,0.0,-1.1167,-1.1635,-1.2463,-1.1753,-1.1796,-1.2666,0.0,0.0,0.0,0.0,0.0,-1.7657,0.0,0.0,0.0,0.0,-1.4017,-1.3843,-1.3137,-1.2854,-1.2777,-1.2022,-1.2142,-1.2623,-1.1964,-1.2671,-1.3915,-1.4036,-1.4574,0.0,0.0,0.0,-1.5388,-1.6369,-1.7779,0.0,0.0,0.0,0.0,0.0,0.0,0.0,0.0,0.0,0.0,0.0,0.0,0.0,0.0,0.0,0.0,0.0,0.0,0.0,0.0,0.0,0.0,0.0,0.0,0.0,0.0,0.0,0.0,0.0,-3.9093,-3.9501,-4.0523,-4.0281,-4.0584,-4.1567,-4.1372,-4.1277,-4.1277,-4.1387,-4.1423,-4.1442,-4.2139,-4.2451,-4.2488,-4.3167,-4.3497,-4.3497,-4.3497,-4.3497,-4.3479,-4.3548,-4.3582,-4.3563,-4.3631,-4.3597,-4.3582,-4.3582,-4.3548,-4.3497,0.0,0.0,0.0,0.0,0.0,0.0,0.0,0.0,0.0,0.0,0.0,-0.9412,-0.9412,-0.9593,-0.9698,-0.9698,-0.9698,0.0,0.0,0.0,0.0,0.0,-1.0538,-1.0775,-1.1233,-1.0867,-1.1098,0.0,0.0,0.0,0.0,-1.7176,-1.8119,0.0,0.0,0.0,0.0,0.0,0.0,-1.3156,-1.2315,-1.2834,-1.3907,-1.2079,-1.2214,-1.3195,-1.1868,-1.2195,-1.3291,-1.3747,-1.4478,-1.5189,-1.5189,0.0,0.0,0.0,0.0,0.0,0.0,0.0,0.0,0.0,0.0,0.0,0.0,0.0,0.0,0.0,0.0,0.0,0.0,0.0,0.0,0.0,0.0,0.0,0.0,0.0,0.0,0.0,0.0,0.0,0.0,0.0,0.0,0.0,-3.8707,-3.8927,-3.942,-3.9295,-3.9461,-3.9956,-4.0252,-4.0432,-4.0432,-4.0873,-4.1111,-4.1111,-4.1479,-4.1864,-4.2304,-4.2671,-4.3057,-4.3497,-4.3497,-4.3497,-4.3497,-4.3497,-4.3497,-4.3497,-4.3497,-4.3497,-4.3497,-4.3497,-4.3497,-4.3497,0.0,0.0,0.0,0.0,0.0,0.0,0.0,0.0,0.0,0.0,0.0,-0.95,-0.95,0.0,0.0,0.0,-0.9698,0.0,0.0,0.0,0.0,0.0,0.0,-1.0057,-1.0094,-1.0094,0.0,0.0,0.0,0.0,-1.7702,-1.7927,-1.9504,0.0,-2.0381,0.0,0.0,0.0,0.0,-1.3585,-1.2714,-1.3503,-1.5036,-1.356,-1.3772,-1.4651,-1.2964,-1.2931,0.0,0.0,-1.4478,-1.5189,0.0,0.0,0.0,0.0,0.0,0.0,0.0,0.0,0.0,0.0,0.0,0.0,0.0,0.0,0.0,0.0,0.0,0.0,0.0,0.0,0.0,0.0,0.0,0.0,0.0,0.0,0.0,0.0,0.0,0.0,0.0,0.0,0.0,0.0,-3.8707,-3.8707,-3.8707,-3.8707,-3.8707,-3.8707,-3.9276,-3.9588,-3.9588,-4.0194,-4.0506,-4.0506,-4.0708,-4.1111,-4.1699,-4.1901,-4.2433,-4.3204,-4.3406,-4.3497,-4.3497,-4.3497,-4.3497,-4.3497,-4.3497,-4.3497,-4.3497,-4.3497,-4.3497,-4.3497,0.0,0.0,0.0,0.0,0.0,0.0,0.0,0.0,0.0,0.0,0.0,-0.95,-0.95,-0.9617,-0.9698,-0.9698,-0.9698,0.0,0.0,0.0,0.0,0.0,0.0,0.0,0.0,0.0,0.0,0.0,0.0,0.0,-1.7722,-1.8554,-2.0735,-2.3898,-2.2158,-2.0465,-1.8819,0.0,0.0,-1.6234,-1.5349,-1.5074,-1.5368,-1.6811,-1.7426,-1.7273,-1.5599,0.0,0.0,0.0,0.0,0.0,0.0,-1.5189,-1.5189,0.0,0.0,0.0,0.0,0.0,0.0,0.0,0.0,0.0,0.0,0.0,0.0,0.0,0.0,0.0,0.0,0.0,0.0,0.0,0.0,0.0,0.0,0.0,0.0,0.0,0.0,0.0,0.0,0.0,0.0,0.0,-3.8707,-3.8707,-3.8707,-3.8707,-3.8707,-3.8707,-3.8744,-3.8762,-3.8762,-3.8799,-3.8836,-3.8836,-3.9588,-3.9974,-4.0047,-4.0818,-4.1607,-4.2396,-4.3167,-4.3497,-4.3497,-4.3497,-4.3497,-4.3497,-4.3497,-4.3497,-4.3497,-4.3497,-4.3497,-4.3497,0.0,0.0,0.0,0.0,0.0,0.0,0.0,0.0,0.0,0.0,0.0,0.0,0.0,-0.9675,-0.9698,-0.9698,-0.9698,0.0,0.0,0.0,0.0,0.0,0.0,0.0,0.0,0.0,0.0,0.0,0.0,-1.2464,-1.6099,-1.6401,-1.8093,-2.0831,-2.0754,-2.0677,-2.0389,-1.7061,0.0,-1.6465,-1.6157,-1.7003,-1.8427,-1.7907,-1.8715,-1.985,0.0,0.0,0.0,0.0,0.0,0.0,-1.6022,-1.5657,-1.5189,-1.5189,0.0,0.0,0.0,0.0,0.0,0.0,0.0,0.0,0.0,0.0,0.0,0.0,0.0,0.0,0.0,0.0,0.0,0.0,0.0,0.0,0.0,0.0,0.0,0.0,0.0,0.0,0.0,0.0,0.0,0.0,0.0,-3.8707,-3.8707,-3.8707,-3.8707,-3.8707,-3.8707,-3.8707,-3.8707,-3.8707,-3.8707,-3.8707,-3.9001,-3.9405,-3.99,-4.0194,-4.0781,-4.1552,-4.1827,-4.2543,-4.3497,-4.3497,-4.3497,-4.3497,-4.3497,-4.3497,-4.3497,-4.3497,-4.3497,-4.3497,0.0,0.0,0.0,-0.8891,0.0,-0.8936,-0.9033,-0.9099,-0.9228,-0.9412,0.0,0.0,0.0,0.0,-0.9698,-0.9698,-0.9728,-0.9725,-0.9725,0.0,0.0,0.0,0.0,0.0,0.0,0.0,0.0,0.0,0.0,0.0,0.0,-1.4945,-1.6401,-1.8554,-1.8573,-1.9523,0.0,0.0,0.0,-1.7792,0.0,0.0,-2.0677,0.0,-2.1293,-2.2485,0.0,0.0,0.0,0.0,0.0,0.0,-1.7003,-1.6118,-1.5189,-1.5189,-1.6195,0.0,0.0,0.0,0.0,0.0,0.0,0.0,0.0,0.0,0.0,0.0,0.0,0.0,0.0,0.0,0.0,0.0,0.0,0.0,0.0,0.0,0.0,0.0,0.0,0.0,0.0,0.0,0.0,0.0,0.0,0.0,-3.8303,-3.856,-3.8707,-3.8707,-3.8707,-3.8707,-3.8707,-3.8707,-3.8707,-3.8707,-3.8707,-3.8982,-3.9496,-3.9496,-3.9937,-4.0708,-4.0708,-4.1607,-4.3094,-4.3094,-4.3259,-4.3497,-4.3497,-4.3497,-4.3497,-4.3497,-4.3497,-4.3497,-0.8891,-0.8891,-0.8891,-0.8891,-0.8891,-0.899,-0.9237,-0.9293,-0.9385,-0.9641,0.0,0.0,0.0,0.0,0.0,-0.9735,-0.9798,-0.9828,-0.9791,-0.9869,0.0,0.0,0.0,0.0,0.0,0.0,0.0,0.0,0.0,0.0,0.0,0.0,-1.5984,-1.7503,-1.5888,-1.7035,-2.0188,0.0,-2.0215,-2.0369,0.0,-2.1504,-2.185,0.0,0.0,0.0,-2.3485,-2.2889,0.0,-2.1004,0.0,0.0,0.0,-1.6599,-1.5266,-1.5247,-1.5868,0.0,0.0,0.0,0.0,0.0,0.0,0.0,0.0,0.0,0.0,0.0,0.0,0.0,0.0,0.0,0.0,0.0,0.0,0.0,0.0,0.0,0.0,0.0,0.0,0.0,0.0,0.0,0.0,0.0,-3.7,-3.7441,-3.7441,-3.823,-3.8689,-3.8707,-3.8707,-3.8707,-3.8707,-3.8707,-3.8707,-3.8707,-3.8707,-3.8707,-3.8707,-3.8707,-3.9129,-3.9845,-3.9845,-4.0763,-4.2231,-4.2286,-4.2763,-4.3497,-4.3497,-4.3497,-4.3497,-4.3497,-4.3497,-4.3497,-0.8748,-0.884,-0.8891,-0.8891,-0.8891,-0.8925,-0.9001,-0.9022,-0.9068,0.0,0.0,0.0,-0.9615,-1.0163,-1.0563,-1.0563,-1.057,-1.0355,-0.9773,-0.9784,-0.9831,-0.9831,-0.9882,-0.9904,0.0,0.0,0.0,0.0,0.0,0.0,0.0,0.0,0.0,0.0,-1.4442,-1.5428,-1.7371,-1.6842,0.0,0.0,-2.0542,-2.1735,0.0,0.0,0.0,0.0,0.0,-2.5139,-2.4543,0.0,-2.2947,-2.1378,0.0,0.0,-1.6888,-1.6311,-1.7164,-1.8049,-1.683,0.0,0.0,0.0,0.0,0.0,0.0,0.0,0.0,0.0,0.0,0.0,0.0,0.0,0.0,0.0,0.0,0.0,0.0,0.0,0.0,0.0,0.0,0.0,0.0,0.0,0.0,0.0,-3.6505,-3.6615,-3.6615,-3.7386,-3.8102,-3.8689,-3.8707,-3.8707,-3.8707,-3.8707,-3.8707,-3.8707,-3.8707,-3.8707,-3.8707,-3.8707,-3.8817,-3.9038,-3.9038,-3.9606,-4.0653,-4.1827,-4.2763,-4.3497,-4.3497,-4.3497,-4.3497,-4.3497,-4.3497,-4.3497,-0.8771,-0.8852,-0.8993,-0.9315,-0.9354,-0.9479,-0.9857,-0.9973,-1.0076,0.0,0.0,0.0,-1.0631,-1.1361,-1.1764,-1.1425,-1.1095,-1.0691,-1.0223,-0.9928,-0.9761,-0.9761,-0.9791,-0.9831,-0.9863,0.0,0.0,0.0,0.0,0.0,0.0,0.0,0.0,0.0,-1.2387,-1.3354,-1.5193,-1.4386,0.0,0.0,-2.0892,0.0,0.0,-2.4332,-2.512,0.0,0.0,0.0,-2.639,-2.639,-2.5024,0.0,0.0,-1.9196,-1.8542,-1.735,-1.8446,0.0,0.0,0.0,0.0,0.0,0.0,0.0,0.0,-2.4185,0.0,0.0,0.0,0.0,0.0,0.0,0.0,0.0,0.0,0.0,0.0,0.0,0.0,0.0,0.0,0.0,0.0,-3.5257,-3.5257,-3.5257,-3.5569,-3.5917,-3.6266,-3.7055,-3.7698,-3.8175,-3.8524,-3.8707,-3.8707,-3.8707,-3.8707,-3.8707,-3.8707,-3.8707,-3.8707,-3.8707,-3.8707,-3.8707,-3.8707,-3.9166,-3.9955,-4.091,-4.1956,-4.302,-4.3369,-4.3497,-4.3497,-4.3497,-4.3497,-4.3497,0.0,-0.9027,-0.9264,-0.9984,-1.0119,-1.0408,-1.1273,-1.1489,-1.1665,0.0,-1.2212,-1.2415,-1.2609,-1.3115,-1.3188,-1.2554,-1.1691,-1.1132,-1.104,-1.0278,-0.979,-0.9698,-0.9698,-0.9717,-0.9777,-0.9784,0.0,0.0,0.0,0.0,0.0,0.0,0.0,0.0,-1.0238,-1.1295,-1.357,-1.2929,-1.5025,-1.8982,-2.1376,-2.2612,0.0,0.0,-2.5849,-2.6683,-2.6779,-2.7297,-2.7961,-2.7961,-2.6318,0.0,0.0,-2.076,-2.0345,-1.8619,-1.9792,0.0,-1.9708,-2.0298,0.0,0.0,-2.1437,0.0,-2.4041,-2.4277,-2.4322,0.0,0.0,0.0,0.0,0.0,0.0,0.0,0.0,0.0,0.0,0.0,0.0,0.0,0.0,0.0,-3.3807,-3.3807,-3.3807,-3.3807,-3.4468,-3.5257,-3.6101,-3.6817,-3.7257,-3.7379,-3.8138,-3.8579,-3.8579,-3.867,-3.8707,-3.8707,-3.8707,-3.8707,-3.8707,-3.8707,-3.8707,-3.8707,-3.8707,-3.9111,-3.9772,-3.9845,-4.0799,-4.2249,-4.2947,-4.3277,-4.3369,-4.3369,-4.3406,-4.3497,-0.9663,-0.9794,-1.003,-1.0758,-1.0893,-1.1161,-1.1987,-1.1588,-1.1699,-1.3141,-1.3643,-1.4423,-1.5814,-1.4946,-1.4462,-1.494,-1.3666,-1.2564,-1.1911,-1.1113,-1.0388,-0.9735,-0.9698,-0.9706,-0.9728,-0.9728,-0.9754,0.0,0.0,0.0,0.0,0.0,0.0,0.0,-0.9944,-1.0877,-1.2587,-1.3815,0.0,-1.8542,-1.9278,0.0,-2.446,-2.4885,-2.5899,-2.7169,-2.7827,-2.8149,-2.8316,-2.8316,-2.7074,-2.5376,0.0,-2.3595,-2.2732,-2.1221,-2.16,-2.2312,-2.1293,-2.1608,-2.2288,-2.2459,0.0,0.0,-2.281,-2.2617,-2.2727,0.0,0.0,0.0,0.0,0.0,0.0,0.0,0.0,0.0,0.0,0.0,0.0,0.0,0.0,0.0,-3.3807,-3.3807,-3.3807,-3.3807,-3.3954,-3.4394,-3.5192,-3.5394,-3.5826,-3.6505,-3.7294,-3.7716,-3.7716,-3.8377,-3.8707,-3.8707,-3.8707,-3.8707,-3.8707,-3.8707,-3.8707,-3.8707,-3.8707,-3.8799,-3.8982,-3.9625,-4.0469,-4.1368,-4.1515,-4.1974,-4.2525,-4.2525,-4.2928,-4.3497,-1.0389,-1.0555,-1.091,-1.2058,-1.2262,-1.2618,-1.3768,-1.3799,-1.416,-1.5427,-1.664,-1.7274,-1.6931,-1.6903,-1.6573,-1.5766,-1.4591,-1.3563,-1.2747,-1.1581,-1.071,-1.0315,-0.9919,-0.9882,-1.0296,-0.99,-0.9923,-1.0349,0.0,0.0,0.0,0.0,0.0,0.0,-1.0562,-1.1766,-1.4071,0.0,-1.6306,-1.9037,-2.0115,0.0,-2.4794,-2.5315,-2.6458,-2.7851,-2.8246,-2.8678,-2.8923,-2.8075,-2.7229,0.0,-2.5206,-2.4855,-2.4555,0.0,-2.3492,-2.4251,-2.3102,-2.3255,-2.3843,-2.4281,0.0,0.0,0.0,-2.3507,-2.3135,-2.3973,-2.4086,0.0,0.0,0.0,0.0,0.0,0.0,0.0,0.0,0.0,0.0,0.0,0.0,0.0,-3.3164,-3.3201,-3.3366,-3.377,-3.3807,-3.3972,-3.4394,-3.477,-3.5192,-3.5642,-3.645,-3.689,-3.689,-3.7698,-3.8102,-3.8102,-3.8505,-3.8707,-3.8707,-3.8707,-3.8707,-3.8707,-3.8707,-3.8707,-3.8726,-3.9148,-3.9551,-3.9992,-4.0799,-4.1368,-4.1699,-4.1699,-4.2213,-4.2892,-1.1186,-1.1333,-1.1756,-1.3159,-1.3532,-1.4056,-1.5392,-1.5919,-1.6536,-1.7595,-1.9339,-1.9824,0.0,0.0,0.0,0.0,-1.5839,-1.4848,-1.4051,-1.2499,-1.1517,-1.137,-1.059,-1.0461,-1.1113,-1.0333,-1.0168,-1.0673,0.0,0.0,0.0,-0.9864,-1.0708,-1.2076,0.0,0.0,0.0,0.0,0.0,-2.0092,0.0,-2.3322,-2.4714,-2.5775,-2.7052,-2.8294,-2.8463,-2.897,-2.9345,-2.7824,-2.7317,-2.7035,-2.5399,-2.5474,0.0,0.0,0.0,0.0,0.0,0.0,-2.5506,0.0,0.0,-2.458,0.0,0.0,0.0,-2.4392,0.0,0.0,0.0,0.0,0.0,0.0,0.0,0.0,0.0,0.0,0.0,0.0,0.0,0.0,-3.2082,-3.2155,-3.2485,-3.3275,-3.333,-3.3403,-3.3568,-3.4339,-3.4752,-3.4752,-3.5605,-3.6046,-3.6046,-3.7,-3.7507,-3.7526,-3.8322,-3.8707,-3.8707,-3.8707,-3.8707,-3.8707,-3.8707,-3.8707,-3.8707,-3.8707,-3.8707,-3.8836,-4.0139,-4.0744,-4.0873,-4.0873,-4.1479,-4.2304,-1.2145,-1.2162,-1.2432,-1.3261,-1.3938,-1.4665,-1.5477,-1.5654,-1.6364,0.0,0.0,0.0,0.0,0.0,0.0,0.0,0.0,0.0,-1.6542,-1.4983,-1.3765,-1.306,-1.227,-1.1875,-1.1966,-1.1168,-1.0461,-0.9845,0.0,0.0,0.0,0.0,-1.1242,-1.2132,-1.2747,0.0,0.0,0.0,-1.8519,0.0,-2.2536,-2.3456,0.0,-2.6135,-2.7248,-2.7969,-2.8684,-2.8997,-2.8942,0.0,-2.7748,-2.7474,0.0,-2.6134,-2.6523,-2.5099,0.0,0.0,0.0,0.0,0.0,0.0,-2.6169,0.0,0.0,0.0,-2.4195,-2.3362,0.0,0.0,0.0,0.0,0.0,0.0,0.0,0.0,0.0,0.0,0.0,0.0,0.0,0.0,0.0,-3.0467,-3.0815,-3.1604,-3.1659,-3.1971,-3.2706,-3.3513,-3.3935,-3.3935,-3.4724,-3.5137,-3.5137,-3.6707,-3.7507,-3.7526,-3.8322,-3.8707,-3.8707,-3.8707,-3.8707,-3.8707,-3.8707,-3.8707,-3.8707,-3.8707,-3.8707,-3.8726,-3.8909,-3.9405,-4.0029,-4.0029,-4.1001,-4.2304,-1.2838,-1.2939,-1.3159,-1.3904,-1.4293,-1.4902,-1.6052,-1.7475,-1.8882,0.0,0.0,0.0,0.0,0.0,0.0,0.0,0.0,-1.8944,0.0,0.0,-1.5533,-1.4731,-1.3482,-1.3013,-1.349,-1.1792,-1.0948,-1.1094,-1.0157,0.0,0.0,0.0,-1.1828,-1.3526,-1.4334,0.0,-1.8981,0.0,-2.0079,0.0,0.0,0.0,0.0,-2.6608,-2.7856,-2.8539,-2.8865,-2.8994,-2.8865,0.0,-2.7493,0.0,0.0,0.0,0.0,-2.6019,0.0,0.0,0.0,0.0,0.0,0.0,0.0,0.0,-2.4835,0.0,-2.4351,0.0,0.0,0.0,0.0,0.0,0.0,0.0,-2.4483,0.0,0.0,0.0,0.0,0.0,0.0,0.0,0.0,0.0,0.0,0.0,-3.0448,-3.1054,-3.1861,-3.2669,-3.333,-3.3788,-3.4137,-3.4302,-3.4302,-3.5459,-3.6303,-3.6798,-3.7606,-3.8248,-3.8707,-3.8707,-3.8707,-3.8707,-3.8707,-3.8707,-3.8707,-3.8707,-3.8707,-3.8707,-3.8707,-3.8909,-3.9203,-3.9203,-3.9937,-4.0965,-1.3295,0.0,-1.3583,-1.4107,-1.453,-1.5375,-1.7054,-1.8937,-2.0446,-2.1298,0.0,0.0,-2.3505,-2.3505,0.0,0.0,-2.188,-2.0626,0.0,0.0,-1.7286,-1.6921,-1.5215,-1.4554,-1.5148,-1.3002,-1.1957,-1.2095,-1.0929,-1.0359,0.0,0.0,-1.2599,-1.4543,0.0,-1.7894,-2.0521,0.0,-2.1804,-2.2923,-2.43,-2.5126,-2.5676,-2.7218,-2.8301,-2.8994,-2.8994,-2.8994,-2.8865,-2.8062,-2.7402,0.0,-2.7365,0.0,-2.6158,0.0,0.0,0.0,-2.6672,0.0,0.0,0.0,0.0,0.0,0.0,0.0,0.0,0.0,0.0,0.0,0.0,0.0,0.0,0.0,0.0,-2.4006,0.0,0.0,0.0,0.0,0.0,0.0,0.0,0.0,0.0,0.0,0.0,-2.9659,-3.0687,-3.1715,-3.2651,-3.3458,-3.3697,-3.3807,-3.3807,-3.4614,-3.5302,-3.5954,-3.7,-3.7808,-3.8377,-3.8597,-3.8707,-3.8707,-3.8707,-3.8707,-3.8707,-3.8707,-3.8732,-3.8803,-3.8803,-3.8803,-3.8803,-3.8719,-3.935,-4.0336,-1.3396,-1.3396,0.0,0.0,-1.4614,-1.6306,-1.8488,-1.9116,-1.9888,-2.1392,0.0,0.0,0.0,0.0,0.0,0.0,0.0,-2.2676,-2.1837,0.0,-1.9183,-1.9921,-1.7912,-1.6798,0.0,-1.5221,-1.3637,-1.2095,-1.204,-1.2021,0.0,0.0,0.0,0.0,-1.6977,-1.8959,-2.0613,-2.2227,-2.3841,-2.5366,-2.619,-2.7475,-2.8755,0.0,-2.8301,-2.8994,-2.8994,0.0,0.0,-2.8062,-2.7769,0.0,0.0,0.0,0.0,0.0,0.0,0.0,0.0,0.0,0.0,-2.7019,0.0,0.0,0.0,0.0,-2.5374,0.0,0.0,0.0,0.0,0.0,0.0,0.0,0.0,0.0,0.0,0.0,0.0,0.0,0.0,0.0,0.0,0.0,-2.586,0.0,-2.6704,0.0,-2.8975,-3.0577,-3.1806,-3.2614,-3.3385,-3.3807,-3.3807,-3.4614,-3.5009,-3.5045,-3.6707,-3.7496,-3.7551,-3.834,-3.8707,-3.8707,-3.8707,-3.8707,-3.8707,-3.8707,-3.8855,-3.9099,-3.9099,-3.9099,-3.9063,-3.8803,-3.9717,-4.1121,0.0,0.0,0.0,0.0,0.0,-1.5781,-1.8488,-1.9838,-2.1182,0.0,-2.3309,0.0,0.0,-2.5593,-2.5593,0.0,0.0,-2.4445,-2.3879,-2.2679,0.0,-2.1704,-2.015,-1.9196,0.0,-1.7099,-1.5826,-1.5276,-1.3673,-1.3159,0.0,0.0,0.0,0.0,0.0,-1.9803,0.0,0.0,0.0,0.0,0.0,-2.7567,-2.8957,0.0,-2.8778,-2.8994,-2.8994,-2.8994,0.0,-2.8705,-2.8246,-2.7842,-2.8117,-2.764,-2.7053,-2.731,-2.7787,-2.8264,0.0,0.0,-2.9549,-2.8466,0.0,0.0,0.0,0.0,0.0,0.0,0.0,0.0,0.0,0.0,0.0,0.0,0.0,0.0,0.0,0.0,0.0,0.0,0.0,0.0,0.0,0.0,0.0,0.0,-2.5713,0.0,0.0,-3.0228,-3.177,-3.2577,-3.3385,-3.3807,-3.3807,-3.4082,-3.4486,-3.5009,-3.5587,-3.6156,-3.6725,-3.7533,-3.79,-3.7936,-3.8469,-3.8707,-3.8707,-3.8707,-3.8762,-3.8855,-3.9036,-3.9099,-3.9099,-3.8999,-3.9206,-3.9706,-1.4952,0.0,0.0,0.0,0.0,-1.6593,-1.9299,-2.0771,0.0,0.0,-2.404,0.0,-2.6356,0.0,-2.603,0.0,-2.6085,-2.53,-2.4725,-2.4049,0.0,-2.3033,-2.1716,-2.091,0.0,0.0,-1.7766,-1.7184,-1.5728,-1.5123,0.0,0.0,0.0,0.0,0.0,-2.006,-2.1528,0.0,-2.5529,0.0,0.0,-2.8081,0.0,0.0,-2.8994,-2.8994,0.0,-2.8994,-2.8994,-2.8994,-2.8668,-2.8374,-2.9182,-2.8723,-2.8044,-2.8833,-2.9072,-2.9182,-2.9714,-3.0228,0.0,-2.9641,-2.9035,0.0,-2.6245,0.0,-2.5933,0.0,0.0,0.0,0.0,0.0,0.0,0.0,0.0,0.0,0.0,-2.2464,0.0,0.0,0.0,0.0,0.0,0.0,-2.4245,-2.3492,-2.4612,0.0,0.0,-2.9384,-3.1054,-3.2137,-3.3238,-3.3807,-3.3807,-3.3807,-3.4064,-3.4596,-3.4844,-3.5284,-3.5881,-3.6982,-3.7507,-3.7533,-3.834,-3.8707,-3.8707,-3.8707,-3.8762,-3.8855,-3.9036,-3.9099,-3.9107,-3.9238,-3.9418,-3.9861,-1.5849,0.0,0.0,0.0,-1.6999,0.0,0.0,0.0,-2.2682,0.0,-2.4464,-2.5426,-2.6199,-2.6208,-2.6485,-2.7203,-2.6258,-2.5355,-2.4689,-2.4178,0.0,0.0,-2.2775,-2.2037,-2.2002,0.0,0.0,0.0,-1.8036,-1.7715,0.0,0.0,0.0,0.0,-1.8614,0.0,-2.0798,-2.4867,-2.6628,-2.6851,-2.837,-2.8994,-2.8994,-2.8994,-2.8975,-2.8994,-2.8994,-2.8994,-2.8994,-2.8994,-2.9012,-2.92,-2.9971,-3.0228,-3.0411,-3.1182,-3.1384,-3.1403,-3.1439,-3.1458,-3.1274,-3.0503,-3.0283,0.0,0.0,0.0,-2.7457,0.0,0.0,0.0,0.0,0.0,0.0,0.0,0.0,0.0,0.0,0.0,0.0,0.0,0.0,0.0,0.0,0.0,-2.3309,-2.4025,-2.3492,0.0,0.0,-2.8117,-2.9732,-3.1274,-3.2908,-3.3752,-3.3807,-3.3807,-3.3807,-3.3807,-3.4596,-3.4954,-3.5045,-3.6688,-3.7441,-3.7533,-3.834,-3.8707,-3.8707,-3.8707,-3.8855,-3.9072,-3.908,-3.9125,-3.916,-3.9462,-4.0309,-4.1471,-1.727,-1.8109,-1.9063,0.0,-1.9587,-1.9816,0.0,0.0,0.0,0.0,-2.6215,-2.7165,-2.7352,-2.7369,-2.7233,-2.6875,-2.6589,0.0,0.0,0.0,0.0,-2.5605,-2.4944,-2.4208,-2.3415,-2.2154,-2.1426,-2.1272,0.0,0.0,-1.8647,0.0,0.0,0.0,0.0,0.0,-2.1388,-2.478,-2.7059,-2.8407,-2.8518,-2.8749,-2.897,0.0,-2.8749,-2.8994,-2.8994,-2.8994,-2.8994,-2.8994,-2.9402,-2.9934,-3.0136,-3.0613,-3.1127,-3.1329,-3.1384,-3.1513,-3.2137,-3.2302,-3.2247,-3.2045,-3.1531,-3.076,0.0,0.0,0.0,0.0,0.0,0.0,0.0,0.0,0.0,0.0,0.0,0.0,0.0,0.0,0.0,-2.3859,0.0,0.0,0.0,-2.2776,-2.285,-2.2446,-2.3878,0.0,0.0,0.0,-2.9475,-3.0485,-3.2082,-3.3201,-3.3788,-3.3807,-3.3807,-3.3807,-3.4009,-3.4431,-3.5027,-3.6119,-3.6927,-3.7533,-3.834,-3.8707,-3.8707,-3.8707,-3.875,-3.8815,-3.9008,-3.9238,-3.9438,-3.9289,-3.9964,-4.1082,-1.8819,0.0,0.0,-2.16,0.0,0.0,-2.2615,-2.3439,0.0,-2.5473,-2.6607,0.0,-2.7334,-2.7926,-2.8163,-2.7723,-2.7706,0.0,-2.707,0.0,0.0,-2.5956,-2.5673,-2.5259,-2.4641,-2.3441,0.0,-2.2587,0.0,0.0,-1.9433,0.0,0.0,0.0,0.0,-2.0475,0.0,-2.4725,-2.6897,-2.8215,-2.8172,-2.8394,0.0,-2.8895,-2.9166,-2.9586,-2.9934,-2.9824,-2.9586,-2.9934,-3.0356,-3.0797,-3.1146,-3.1568,-3.199,-3.2339,-3.2449,-3.254,-3.2999,-3.3128,-3.3128,-3.3128,-3.2779,-3.2137,-3.098,-3.0723,-3.0503,0.0,-2.9232,-2.892,0.0,0.0,0.0,0.0,0.0,0.0,0.0,0.0,0.0,0.0,-2.3896,0.0,-2.1931,-2.2208,-2.2281,-2.1839,-2.307,0.0,0.0,0.0,-2.9017,-3.0173,-3.177,-3.2999,-3.3788,-3.3807,-3.3807,-3.3807,-3.3807,-3.4229,-3.5027,-3.5899,-3.6725,-3.7533,-3.834,-3.8707,-3.8707,-3.8707,-3.8707,-3.8719,-3.8855,-3.9045,-3.9189,-3.9125,-3.9614,-4.0424,-2.0272,0.0,0.0,0.0,0.0,0.0,0.0,-2.4475,0.0,-2.5879,0.0,-2.7249,-2.7148,-2.8332,-2.9093,-2.8991,0.0,-2.8416,-2.708,-2.7604,-2.7351,-2.5964,-2.5896,-2.5812,-2.5609,-2.4435,-2.3463,0.0,-2.1359,-2.0244,-1.9379,0.0,0.0,0.0,0.0,0.0,0.0,-2.4774,-2.6464,-2.7327,-2.7698,-2.8128,-2.8637,-2.9296,-2.9867,-3.0467,-3.1274,-3.1035,-3.0467,-3.1146,-3.1458,-3.1678,-3.2394,-3.2687,-3.2908,-3.3587,-3.3807,-3.3807,-3.3807,-3.3807,-3.3807,-3.3807,-3.3807,-3.3421,-3.2027,-3.1696,-3.1513,-3.0815,-3.0044,-2.9879,0.0,0.0,0.0,0.0,0.0,0.0,0.0,0.0,0.0,0.0,0.0,0.0,-2.2024,-2.1876,-2.1766,-2.1639,-2.1748,0.0,0.0,0.0,-2.8264,-2.9989,-3.1604,-3.2889,-3.3788,-3.3807,-3.3807,-3.3807,-3.3807,-3.4284,-3.5192,-3.5954,-3.6798,-3.7679,-3.8395,-3.8707,-3.8707,-3.8707,-3.8707,-3.8707,-3.8707,-3.8707,-3.8719,-3.8961,-3.9231,-3.9642,-2.0938,0.0,0.0,0.0,0.0,-2.5981,-2.7063,-2.7672,-2.8095,-2.8366,-2.9567,-3.0176,-2.9583,-2.9753,-2.9651,-2.9025,-2.9011,0.0,0.0,0.0,0.0,-2.7435,-2.7401,-2.686,-2.5642,-2.4215,-2.3243,-2.2712,-2.0611,-1.9003,-1.7879,0.0,0.0,0.0,0.0,0.0,-2.4497,-2.5269,0.0,-2.7759,-2.7507,-2.8205,-2.9368,-2.9237,-3.0008,-3.1292,-3.21,-3.1861,-3.1201,-3.1347,-3.1843,-3.2412,-3.2577,-3.3073,-3.3623,-3.3752,-3.3807,-3.3807,-3.3807,-3.3807,-3.3807,-3.3807,-3.3807,-3.3733,-3.344,-3.3385,-3.333,-3.3201,-3.254,-3.1861,-3.1458,0.0,0.0,0.0,0.0,0.0,0.0,0.0,0.0,0.0,0.0,-2.3676,0.0,-2.2189,-2.1492,-2.0794,0.0,0.0,0.0,0.0,-2.6851,0.0,-3.0779,0.0,0.0,0.0,-3.3807,-3.3807,-3.3807,-3.4596,-3.6083,-3.6229,-3.7092,-3.8505,-3.8634,-3.8707,-3.8707,-3.8707,-3.8707,-3.8707,-3.8707,-3.8707,-3.8707,-3.8762,-3.8822,-3.895,0.0,0.0,0.0,0.0,0.0,0.0,0.0,-2.9397,-2.9854,-2.9076,-2.96,-2.9905,-2.9567,-3.0209,-3.0531,-3.0159,-3.0125,-2.9973,-2.96,-2.9567,-2.9228,-2.8467,-2.8416,-2.7892,-2.6793,-2.5676,-2.4635,-2.3648,-2.1379,-1.9773,-1.8789,-1.8395,0.0,-1.7561,0.0,-2.2314,0.0,0.0,0.0,-2.7535,-2.7545,-2.8357,-2.9589,-2.9839,-3.0508,-3.1448,-3.2241,-3.2295,-3.2058,-3.2482,-3.2908,-3.322,-3.322,-3.3495,-3.3807,-3.3807,-3.3807,-3.3807,-3.3807,-3.3807,-3.3807,-3.3807,-3.3807,-3.3807,-3.3807,-3.3807,-3.3807,-3.3807,-3.3495,-3.2724,-3.1072,-2.9145,0.0,0.0,0.0,0.0,0.0,0.0,0.0,0.0,0.0,0.0,0.0,0.0,0.0,0.0,0.0,0.0,0.0,0.0,-2.5878,0.0,0.0,0.0,-3.3164,0.0,-3.3807,-3.3807,-3.4229,-3.5092,-3.6303,-3.6725,-3.7569,-3.8707,-3.8707,-3.8707,-3.8707,-3.8707,-3.8707,-3.8707,-3.8707,-3.8707,-3.8707,-3.8707,-3.8707,-3.8762,0.0,-2.5061,0.0,0.0,-2.7614,-2.8541,-2.9144,-3.0615,-3.114,-2.9651,-2.9448,-2.9448,-2.9448,-3.0497,-3.119,-3.119,-3.119,-3.0954,-3.0378,-3.0345,-3.0006,-2.9262,-2.9211,-2.8856,-2.8078,-2.7165,-2.5964,-2.4506,-2.2457,-2.0856,0.0,-1.8735,-1.8758,-1.9696,0.0,0.0,0.0,0.0,-2.622,-2.76,-2.7929,-2.875,-2.9816,-3.0439,-3.1077,-3.1635,-3.2254,-3.2484,-3.2616,-3.3284,-3.3504,-3.355,-3.3634,-3.368,-3.368,-3.3762,-3.3807,-3.3807,-3.3807,-3.3807,-3.3807,-3.3807,-3.3807,-3.3807,-3.3807,-3.3807,-3.3807,-3.3807,-3.366,-3.2871,-3.0613,-2.9163,0.0,0.0,0.0,0.0,0.0,0.0,0.0,0.0,0.0,0.0,-2.2427,0.0,0.0,0.0,0.0,0.0,-2.2006,0.0,0.0,0.0,0.0,-3.0889,-3.2339,0.0,-3.3807,-3.3807,-3.4633,-3.5477,-3.6321,-3.711,-3.7936,-3.8707,-3.8707,-3.8707,-3.8707,-3.8707,-3.8707,-3.8707,-3.8707,-3.8707,-3.8707,-3.8707,-3.8707,-3.8719,0.0,0.0,0.0,0.0,0.0,-3.0061,-2.9998,-3.1816,-3.2662,-3.119,-3.0987,-3.0987,-3.0987,-3.1106,-3.119,-3.119,-3.119,-3.1157,-3.1106,-3.1089,-3.0768,-3.004,-3.0006,-2.9651,-2.889,-2.7435,-2.5964,0.0,0.0,-2.1109,0.0,-1.9545,-2.0576,-2.1989,0.0,0.0,0.0,-2.6521,-2.7436,-2.8827,-2.8876,-2.9588,-3.0612,-3.0682,-3.1409,-3.2378,-3.2449,-3.2484,-3.2517,-3.2583,-3.2616,-3.2713,-3.3105,-3.3243,-3.3332,-3.3707,-3.3807,-3.3807,-3.3807,-3.3807,-3.3807,-3.3807,-3.3807,-3.3807,-3.3807,-3.3807,-3.3807,-3.3807,-3.322,-3.221,-3.0522,-3.0081,-2.9237,0.0,0.0,0.0,0.0,0.0,-2.5403,-2.5403,0.0,0.0,0.0,-2.2024,0.0,0.0,-2.1692,0.0,-2.285,0.0,0.0,-2.7714,-2.9365,-3.0613,-3.1494,-3.3018,-3.3807,-3.3807,-3.4633,-3.5477,-3.6321,-3.711,-3.7936,-3.8707,-3.8707,-3.8707,-3.8707,-3.8707,-3.8707,-3.8707,-3.8707,-3.8707,-3.8707,-3.8707,-3.8707,-3.8707,0.0,0.0,0.0,0.0,0.0,0.0,0.0,-3.2563,-3.3186,-3.2611,-3.2138,-3.185,-3.185,-3.1461,-3.119,-3.119,-3.119,-3.119,-3.119,-3.119,-3.1072,-3.0768,-3.0768,-3.0412,-2.9685,-2.9059,-2.7774,0.0,0.0,0.0,-2.094,-2.0788,-2.1752,-2.363,0.0,-2.5439,-2.7368,-2.7368,-2.8247,-2.9651,-2.9651,-3.0187,-3.0987,-3.0987,-3.1288,-3.1731,-3.1731,-3.1731,-3.1731,-3.1731,-3.2056,-3.2517,-3.2713,-3.2777,-3.2809,-3.2965,-3.3225,-3.3437,-3.3437,-3.3625,-3.3807,-3.3807,-3.3807,-3.3807,-3.3807,-3.3807,-3.3807,-3.3807,-3.3164,-3.2265,-3.1127,-3.0136,-2.914,-2.8187,0.0,0.0,0.0,0.0,0.0,-2.6117,0.0,-2.3657,0.0,0.0,0.0,0.0,0.0,-2.14,-2.2226,-2.3492,0.0,-2.63,0.0,-3.0356,-3.0687,-3.2742,-3.3807,-3.3825,-3.5147,-3.5973,-3.634,-3.7624,-3.8395,-3.8707,-3.8707,-3.8707,-3.8707,-3.8707,-3.8707,-3.8707,-3.8707,-3.8707,-3.8707,-3.8707,-3.8707,-3.8707,-2.8771,0.0,-2.9077,0.0,-3.0619,-3.1263,-3.2262,-3.3355,-3.3981,-3.3744,-3.3254,-3.2848,-3.2645,-3.2154,-3.1765,-3.1529,-3.1512,-3.1427,-3.1207,-3.119,-3.119,-3.119,-3.119,0.0,-3.0429,-3.0226,-2.9211,-2.7368,-2.6099,0.0,-2.3579,-2.3054,-2.3748,0.0,-2.6015,-2.7097,-2.8501,-2.8501,-2.9245,-3.0429,-3.0429,-3.0734,-3.119,-3.119,-3.119,-3.119,-3.119,-3.119,-3.119,-3.119,-3.16,-3.2162,-3.2248,-3.2298,-3.2316,-3.2451,-3.2745,-3.2983,-3.2983,-3.3196,-3.3419,-3.3419,-3.3504,-3.3578,-3.3447,-3.3504,-3.3578,-3.3447,-3.2702,-3.1908,-3.1342,-3.0009,-2.892,-2.8705,0.0,0.0,0.0,-2.7181,0.0,-2.5952,-2.4685,-2.3731,-2.34,-2.2923,0.0,0.0,0.0,-2.1969,-2.2813,-2.3933,0.0,0.0,0.0,0.0,-3.0558,-3.2706,-3.3807,-3.3825,-3.5495,-3.6303,-3.634,-3.7973,-3.8707,-3.8707,-3.8707,-3.8707,-3.8707,-3.8707,-3.8707,-3.8707,-3.8707,-3.8707,-3.8707,-3.8707,-3.8707,-3.8707,-2.9711,-3.0075,-3.0459,-3.0474,-3.1665,-3.2531,-3.243,-3.4225,-3.5318,-3.4573,-3.4472,-3.4201,-3.3474,-3.3389,-3.3085,-3.2364,-3.2313,-3.1968,-3.1241,-3.119,-3.119,0.0,0.0,-3.119,-3.119,-3.048,-2.9736,-2.8994,0.0,0.0,-2.664,-2.6623,-2.7046,-2.7755,-2.7755,-2.8653,-3.0074,-3.0074,-3.0497,-3.119,-3.119,-3.119,-3.119,-3.119,-3.119,-3.119,-3.119,-3.119,-3.119,-3.119,-3.119,-3.1291,-3.1696,-3.1825,-3.188,-3.2366,-3.2517,-3.2517,-3.2517,-3.2517,-3.2517,-3.2517,-3.284,-3.3075,-3.2616,-3.2872,-3.3075,-3.2616,-3.1594,-3.08,-3.0828,-2.9835,-2.8741,-2.7934,0.0,0.0,0.0,-2.6098,0.0,-2.441,-2.3511,-2.3327,-2.4116,-2.274,0.0,0.0,0.0,-2.4502,-2.5311,0.0,0.0,-2.8865,-2.9769,0.0,-3.1366,-3.2981,-3.3807,-3.3825,-3.5495,-3.6303,-3.634,-3.7973,-3.8707,-3.8707,-3.8707,-3.8707,-3.8707,-3.8707,-3.8707,-3.8707,-3.8707,-3.8707,-3.8707,-3.8707,-3.8707,-3.8707,-3.0911,-3.1065,-3.1162,-3.1162,-3.1959,-3.2735,-3.3158,-3.42,-3.5015,-3.5239,-3.5267,-3.5165,-3.4945,-3.4015,-3.3322,0.0,-3.3051,-3.2949,0.0,-3.2713,-3.2713,-3.2713,-3.2713,-3.2713,-3.2713,-3.1968,-3.1224,-3.0497,0.0,0.0,0.0,-2.7469,-2.8146,-2.9381,-2.9381,-2.9922,-3.0852,-3.0852,-3.0987,-3.1241,-3.1732,-3.1935,-3.1985,-3.251,-3.2713,-3.2713,-3.2713,-3.2713,-3.2713,-3.2713,-3.2713,-3.2737,-3.2866,-3.219,-3.1411,-3.1562,-3.1823,-3.2022,-3.2022,-3.2282,-3.2484,-3.2484,-3.2616,-3.2681,-3.2517,-3.2616,-3.2681,-3.2517,-3.1391,-3.0398,-3.0398,-2.9395,-2.8517,-2.8245,-2.8657,0.0,-2.7218,0.0,-2.6209,-2.5126,-2.43,-2.3914,-2.4171,-2.3731,0.0,0.0,0.0,0.0,0.0,0.0,0.0,0.0,-3.0558,0.0,-3.1384,-3.2999,-3.4082,-3.4623,-3.5752,-3.6872,-3.7955,-3.8469,-3.8707,-3.8707,-3.8707,-3.8707,-3.8707,-3.8707,-3.8707,-3.8707,-3.8707,-3.8707,-3.8707,-3.8707,-3.8707,-3.8707,-3.1482,-3.1482,-3.1482,-3.1482,-3.212,-3.2749,-3.3145,-3.3786,-3.4382,-3.48,-3.5052,-3.5207,-3.5207,-3.4644,0.0,-3.3846,-3.3812,-3.3694,-3.3423,-3.3406,-3.3406,-3.3406,-3.3406,-3.3406,-3.3406,-3.2949,0.0,-3.2036,-3.0818,-2.9973,-2.9482,-2.9211,-2.96,-3.0514,-3.0514,-3.092,-3.1596,-3.1596,-3.1765,-3.207,-3.2527,-3.2696,-3.2747,-3.322,-3.3406,-3.3406,-3.3406,-3.3406,-3.3406,-3.3406,-3.3406,-3.3406,-3.3406,-3.278,-3.2036,-3.2036,-3.2207,-3.2355,-3.2063,-3.2184,-3.237,-3.2091,-3.2127,-3.2248,-3.2248,-3.2109,-3.2021,-3.2021,-3.1113,-3.0282,-3.0001,-2.9329,-2.8755,-2.8456,-2.8749,-2.859,-2.7493,0.0,-2.63,0.0,0.0,0.0,0.0,-2.5107,-2.5236,0.0,0.0,0.0,0.0,0.0,0.0,-2.9127,-3.1403,-3.2504,-3.2302,-3.3293,-3.4211,-3.5009,-3.6193,-3.7441,-3.8707,-3.8707,-3.8707,-3.8707,-3.8707,-3.8707,-3.8707,-3.8707,-3.8707,-3.8707,-3.8707,-3.8707,-3.8707,-3.8707,-3.8707,-3.8707,-3.1482,-3.1482,-3.1482,0.0,-3.2064,-3.2532,-3.2586,-3.3145,-3.3547,-3.3582,-3.4186,-3.4576,-3.4576,-3.5207,-3.5334,-3.4641,0.0,0.0,-3.3609,-3.3558,-3.3558,-3.3558,-3.3558,-3.3558,-3.3558,-3.3508,-3.3457,-3.3406,-3.2696,-3.2357,-3.2341,-3.1664,-3.1343,-3.1343,-3.1343,-3.1715,-3.2357,-3.2357,-3.2763,-3.3406,-3.3457,-3.3491,-3.3491,-3.3541,-3.3558,-3.3558,-3.3558,-3.3558,-3.3558,-3.3558,-3.3558,-3.3558,-3.3558,-3.3558,-3.3541,-3.344,-3.3406,-3.3254,-3.2544,-3.2357,-3.2188,-3.1444,-3.1504,-3.1752,-3.1752,-3.147,-3.119,-3.119,-3.0871,-3.0352,-2.9609,-2.9501,-2.9251,-2.8495,-2.87,-2.8402,-2.6833,-2.6649,-2.6355,0.0,0.0,0.0,-2.6539,-2.6649,-2.6998,0.0,0.0,0.0,0.0,0.0,-2.9072,-3.1311,-3.2228,-3.3054,-3.3788,-3.3862,-3.4321,-3.5174,-3.6798,-3.7973,-3.8707,-3.8707,-3.8707,-3.8707,-3.8707,-3.8707,-3.8707,-3.8707,-3.8707,-3.8707,-3.8707,-3.8707,-3.8707,-3.8707,-3.8707,-3.8707,0.0,0.0,-3.1482,-3.1482,-3.164,-3.1951,-3.2492,-3.2749,-3.3039,-3.3531,-3.4186,-3.4576,-3.4576,-3.5207,-3.5554,-3.5368,-3.5351,-3.5284,-3.5115,-3.5098,-3.5098,-3.5098,-3.5098,-3.5098,-3.5098,-3.4539,-3.3964,-3.3406,-3.3237,-3.3136,-3.3136,-3.2966,-3.2882,-3.2882,-3.2882,-3.2983,-3.3136,-3.3136,-3.3237,-3.3457,-3.4015,-3.4235,-3.4303,-3.4878,-3.5098,-3.5098,-3.5098,-3.5098,-3.5098,-3.5098,-3.5098,-3.5098,-3.5098,-3.5098,-3.4878,-3.3744,-3.3406,-3.3372,-3.3186,-3.3136,-3.2966,-3.2205,-3.1715,-3.1351,-3.1351,-3.1252,-3.119,-3.119,-3.0675,-2.9986,-2.9257,-2.8867,-2.8531,-2.8088,-2.8316,-2.8094,-2.6771,-2.7126,-2.6979,0.0,-2.5933,-2.6392,-2.6594,-2.7163,-2.7585,0.0,0.0,0.0,-2.9879,-3.032,-3.0797,-3.1366,-3.2779,-3.3605,-3.3807,-3.4412,-3.5459,-3.6909,-3.7936,-3.8524,-3.8707,-3.8707,-3.8707,-3.8707,-3.8707,-3.8707,-3.8707,-3.8707,-3.8707,-3.8707,-3.8707,-3.8707,-3.8707,-3.8707,-3.8707,-3.8707,-3.1482,-3.1482,-3.1482,-3.1482,-3.1482,-3.164,-3.2064,-3.212,-3.2216,-3.261,-3.3235,-3.3684,-3.3684,-3.4301,-3.48,-3.5098,-3.5407,-3.5622,-3.5622,-3.5622,-3.5622,-3.5622,-3.5622,-3.5622,-3.5622,-3.5216,-3.481,-3.4421,-3.4066,-3.3897,-3.3897,-3.3558,-3.3406,-3.3406,-3.3406,-3.3592,-3.3897,-3.3897,-3.41,-3.4455,-3.4844,-3.5013,-3.5064,-3.547,-3.5622,-3.5622,-3.5622,-3.5622,-3.5622,-3.5622,-3.5622,-3.5622,-3.5622,-3.5622,-3.5453,-3.4658,-3.4421,-3.4336,-3.3998,-3.3897,-3.3728,-3.2983,-3.2239,-3.1681,-3.1681,-3.1427,-3.119,-3.119,-3.0886,-3.0378,-2.9634,-2.9178,-2.8739,-2.8224,-2.8167,-2.7877,-2.6986,-2.7255,-2.7264,-2.6594,-2.7218,-2.7842,-2.8209,-2.8962,-2.9439,-2.9439,-3.0191,0.0,-3.0742,-3.1861,-3.232,-3.1953,-3.3146,-3.3972,-3.4357,-3.555,-3.6597,-3.7526,-3.8322,-3.8707,-3.8707,-3.8707,-3.8707,-3.8707,-3.8707,-3.8707,-3.8707,-3.8707,-3.8707,-3.8707,-3.8707,-3.8707,-3.8707,-3.8707,-3.8707,-3.8707,-3.1482,-3.1482,-3.1482,-3.1482,-3.1482,-3.1482,-3.1482,-3.1482,-3.1482,-3.1482,-3.216,-3.2586,-3.2586,-3.3182,-3.3836,-3.4382,-3.5052,-3.547,-3.5577,-3.5622,-3.5622,-3.5622,-3.5622,-3.5622,-3.5622,-3.5622,-3.5622,-3.5622,-3.4979,-3.4675,-3.4641,-3.4032,-3.3744,-3.3744,-3.3744,-3.4083,-3.4675,-3.4675,-3.503,-3.5622,-3.5622,-3.5622,-3.5622,-3.5622,-3.5622,-3.5622,-3.5622,-3.5622,-3.5622,-3.5622,-3.5622,-3.5622,-3.5622,-3.5622,-3.5622,-3.5622,-3.5622,-3.547,-3.4844,-3.4573,-3.4336,-3.3728,-3.2916,-3.2313,-3.2313,-3.1715,-3.119,-3.119,-3.119,-3.097,-3.0243,-2.9723,-2.9196,-2.8503,-2.8067,-2.7642,-2.7187,0.0,-2.7508,-2.7862,-2.864,-2.9512,-3.0301,-3.0999,-3.1439,-3.1568,-3.221,-3.2357,-3.1788,-3.3054,-3.3495,-3.2816,-3.344,-3.4247,-3.5174,-3.6725,-3.7551,-3.7679,-3.8377,-3.8707,-3.8707,-3.8707,-3.8707,-3.8707,-3.8707,-3.8707,-3.8707,-3.8707,-3.8707,-3.8707,-3.8707,-3.8707,-3.8707,-3.8707,-3.8707,-3.8707,-3.1482,-3.1482,-3.1482,-3.1482,-3.1482,-3.1482,-3.1482,-3.1482,-3.1482,-3.1482,-3.216,-3.2586,-3.2586,-3.3182,-3.3633,-3.3735,-3.4382,-3.5005,-3.556,-3.5622,-3.5622,-3.5622,-3.5622,-3.5622,-3.5622,-3.5622,-3.5622,-3.5622,-3.5504,-3.5453,-3.5453,-3.5334,-3.5284,-3.5284,-3.5284,-3.5334,-3.5453,-3.5453,-3.552,-3.5622,-3.5622,-3.5622,-3.5622,-3.5622,-3.5622,-3.5622,-3.5622,-3.5622,-3.5622,-3.5622,-3.5622,-3.5622,-3.5622,-3.5622,-3.5622,-3.5622,-3.5622,-3.5588,-3.547,-3.4979,-3.4472,-3.4353,-3.3305,-3.2313,-3.2313,-3.1715,-3.119,-3.119,-3.119,-3.097,-3.0243,-2.9556,-2.8954,-2.8487,-2.782,-2.7238,-2.6853,0.0,-2.824,-2.829,-2.9326,-3.0338,-3.1127,-3.1329,-3.1678,-3.2375,-3.254,-3.2852,-3.3403,-3.366,-3.3733,-3.3623,-3.3733,-3.4541,-3.6083,-3.7019,-3.7826,-3.8524,-3.8652,-3.8707,-3.8707,-3.8707,-3.8707,-3.8707,-3.8707,-3.8707,-3.8707,-3.8707,-3.8707,-3.8707,-3.8707,-3.8707,-3.8707,-3.8707,-3.8707,-3.8707,-3.1482,-3.1482,-3.1482,-3.1482,-3.1482,-3.1482,-3.1482,-3.1482,-3.1482,-3.1482,-3.1796,-3.2007,-3.2007,-3.2312,-3.2625,-3.3039,-3.3684,-3.4333,-3.5005,-3.5407,-3.5622,-3.5622,-3.5622,-3.5622,-3.5622,-3.5622,-3.5622,-3.5622,-3.5622,-3.5622,-3.5622,-3.5622,-3.5622,-3.5622,-3.5622,-3.5622,-3.5622,-3.5622,-3.5622,-3.5622,-3.5622,-3.5622,-3.5622,-3.5622,-3.5622,-3.5622,-3.5622,-3.5622,-3.5622,-3.5622,-3.5622,-3.5622,-3.5622,-3.5622,-3.5622,-3.5622,-3.5622,-3.5622,-3.5622,-3.5368,-3.5098,-3.5098,-3.4269,-3.3372,-3.2983,-3.2307,-3.1664,-3.1275,-3.119,-3.1089,-3.0768,-3.0091,-2.9539,-2.9346,-2.8323,-2.7719,-2.8154,-2.8328,-2.8611,-2.924,-3.0191,-3.1037,-3.1656,-3.212,-3.2602,-3.3193,-3.3256,-3.3421,-3.377,-3.3807,-3.3807,-3.3807,-3.4688,-3.5514,-3.6285,-3.7533,-3.8322,-3.8707,-3.8707,-3.8707,-3.8707,-3.8707,-3.8707,-3.8707,-3.8707,-3.8707,-3.8707,-3.8707,-3.8707,-3.8707,-3.8707,-3.8707,-3.8707,-3.8707,-3.8707,-3.8707,-3.1482,-3.1482,-3.1482,-3.1482,-3.1482,-3.1482,-3.1482,-3.1482,-3.1482,-3.1482,-3.1482,-3.1482,-3.1482,-3.1482,-3.1739,-3.2272,-3.313,-3.3836,-3.4333,-3.5161,-3.5622,-3.5622,-3.5622,-3.5622,-3.5622,-3.5622,-3.5622,-3.5622,-3.5622,-3.5622,-3.5622,-3.5622,-3.5622,-3.5622,-3.5622,-3.5622,-3.5622,-3.5622,-3.5622,-3.5622,-3.5622,-3.5622,-3.5622,-3.5622,-3.5622,-3.5622,-3.5622,-3.5622,-3.5622,-3.5622,-3.5622,-3.5622,-3.5622,-3.5622,-3.5622,-3.5622,-3.5622,-3.5622,-3.5622,-3.5622,-3.5622,-3.5622,-3.5064,-3.4303,-3.3575,-3.2831,-3.207,-3.1343,-3.119,-3.119,-3.119,-3.0598,-3.0108,-3.0108,0.0,-2.837,-2.9265,-2.8971,-2.9049,-3.0124,-3.085,-3.1515,-3.2068,-3.2655,-3.3196,-3.3625,-3.3652,-3.3707,-3.3807,-3.3807,-3.3807,-3.3807,-3.5422,-3.6303,-3.6303,-3.79,-3.8707,-3.8707,-3.8707,-3.8707,-3.8707,-3.8707,-3.8707,-3.8707,-3.8707,-3.8707,-3.8707,-3.8707,-3.8707,-3.8707,-3.8707,-3.8707,-3.8707,-3.8707,-3.8707,-3.8707,-3.1482,-3.1482,-3.1482,-3.1482,-3.1482,-3.1482,-3.1482,-3.1482,-3.1482,-3.1482,-3.1482,-3.1482,-3.1482,-3.1482,-3.1524,-3.1582,-3.2826,-3.3633,-3.3684,-3.4864,-3.5622,-3.5622,-3.5622,-3.5622,-3.5622,-3.5622,-3.5622,-3.5622,-3.5622,-3.5622,-3.5622,-3.5622,-3.5622,-3.5622,-3.5622,-3.5622,-3.5622,-3.5622,-3.5622,-3.5622,-3.5622,-3.5622,-3.5622,-3.5622,-3.5622,-3.5622,-3.5622,-3.5622,-3.5622,-3.5622,-3.5622,-3.5622,-3.5622,-3.5622,-3.5622,-3.5622,-3.5622,-3.5622,-3.5622,-3.5622,-3.5622,-3.5622,-3.5064,-3.4303,-3.3575,-3.2831,-3.207,-3.1343,-3.119,-3.119,-3.119,-3.0598,-3.0108,-3.0108,0.0,0.0,-2.9047,-2.9248,-2.9729,-3.056,-3.1036,-3.16,-3.2391,-3.2515,-3.2745,-3.3214,-3.3243,-3.3408,-3.378,-3.3807,-3.3807,-3.3807,-3.5422,-3.6303,-3.6303,-3.79,-3.8707,-3.8707,-3.8707,-3.8707,-3.8707,-3.8707,-3.8707,-3.8707,-3.8707,-3.8707,-3.8707,-3.8707,-3.8707,-3.8707,-3.8707,-3.8707,-3.8707,-3.8707,-3.8707,-3.8707,-3.1482,-3.1482,-3.1482,-3.1482,-3.1482,-3.1482,-3.1482,-3.1482,-3.1482,-3.1482,-3.1482,-3.1482,-3.1482,-3.1482,-3.1482,-3.1482,-3.2422,-3.3159,-3.3513,-3.4854,-3.5629,-3.5594,-3.5622,-3.5622,-3.5622,-3.5622,-3.5622,-3.5622,-3.5622,-3.5622,-3.5622,-3.5622,-3.5622,-3.5622,-3.5622,-3.5622,-3.5656,-3.6129,-3.6332,-3.6383,-3.6857,-3.7043,-3.7043,-3.7043,-3.7043,-3.7043,-3.7043,-3.6738,-3.6332,-3.6332,-3.6011,-3.5622,-3.5622,-3.5622,-3.5622,-3.5622,-3.5622,-3.5622,-3.5622,-3.5622,-3.5622,-3.5622,-3.5402,-3.4996,-3.4252,-3.3508,-3.2763,-3.2019,-3.1512,-3.119,-3.119,-3.097,-3.0784,-3.0784,0.0,-2.9837,-3.0294,-3.0088,-3.0165,-3.0936,-3.1153,-3.1476,-3.2004,-3.2074,-3.2264,-3.2745,-3.3045,-3.3273,-3.3437,-3.368,-3.4027,-3.4541,-3.5697,-3.6303,-3.6303,-3.79,-3.8707,-3.8707,-3.8707,-3.8707,-3.8707,-3.8707,-3.8707,-3.8707,-3.8707,-3.8707,-3.8707,-3.8707,-3.8707,-3.8707,-3.8707,-3.8707,-3.8707,-3.8707,-3.8707,-3.8707,-3.1482,-3.1482,-3.1482,-3.1482,-3.1482,-3.1482,-3.1482,-3.1482,-3.1482,-3.1482,-3.1482,-3.1482,-3.1482,-3.1719,-3.1839,-3.1839,-3.2665,-3.3392,-3.3785,-3.4958,-3.5861,-3.6303,-3.6113,-3.5994,-3.5994,-3.5994,-3.5859,-3.5622,-3.5622,-3.5622,-3.5622,-3.5622,-3.5622,-3.5622,-3.5622,-3.5757,-3.6011,-3.6552,-3.6924,-3.7178,-3.7702,-3.7905,-3.7905,-3.7905,-3.7905,-3.7905,-3.7905,-3.7567,-3.7144,-3.7144,-3.6789,-3.6299,-3.6062,-3.5808,-3.5622,-3.5622,-3.5622,-3.5622,-3.5622,-3.5622,-3.5622,-3.5622,-3.5622,-3.5419,-3.4675,-3.4117,-3.3474,-3.2476,-3.1884,-3.1461,-3.1241,-3.119,-3.119,-3.119,-3.0784,-3.0615,-3.1123,-3.0768,-3.0632,-3.114,-3.119,-3.1329,-3.1603,-3.1603,-3.1806,-3.2248,-3.2565,-3.284,-3.2983,-3.3626,-3.4246,-3.4783,-3.6025,-3.667,-3.667,-3.8028,-3.8707,-3.8707,-3.8707,-3.8707,-3.8707,-3.8707,-3.8707,-3.8707,-3.8707,-3.8707,-3.8707,-3.8707,-3.8707,-3.8707,-3.8707,-3.8707,-3.8707,-3.8707,-3.8707,-3.8707,-3.1482,-3.1482,-3.1482,-3.1482,-3.1482,-3.1482,-3.1482,-3.1482,-3.1482,-3.1482,-3.1482,-3.1482,-3.1482,-3.2123,-3.2512,-3.2527,-3.375,-3.4512,-3.4512,-3.5212,-3.6279,-3.7826,-3.7195,-3.6789,-3.6789,-3.6789,-3.6417,-3.5639,-3.5639,-3.5639,-3.5639,-3.5639,-3.5639,-3.5639,-3.5639,-3.6062,-3.6789,-3.6789,-3.7229,-3.7922,-3.7922,-3.7922,-3.7922,-3.7922,-3.7922,-3.7922,-3.7922,-3.7922,-3.7922,-3.7922,-3.7905,-3.777,-3.7026,-3.6265,-3.5622,-3.5622,-3.5622,-3.5622,-3.5622,-3.5622,-3.5622,-3.5622,-3.5622,-3.5419,-3.4675,-3.4489,-3.4066,-3.2594,-3.229,-3.207,-3.1326,-3.1207,-3.1207,-3.119,-3.119,-3.119,-3.119,-3.119,-3.119,-3.119,-3.119,-3.119,-3.119,-3.119,-3.1389,-3.1752,-3.1789,-3.2004,-3.2484,-3.3705,-3.4424,-3.4442,-3.6419,-3.7507,-3.7526,-3.8303,-3.8707,-3.8707,-3.8707,-3.8707,-3.8707,-3.8707,-3.8707,-3.8707,-3.8707,-3.8707,-3.8707,-3.8707,-3.8707,-3.8707,-3.8707,-3.8707,-3.8707,-3.8707,-3.8707,-3.8707,-3.1482,-3.1482,-3.1482,-3.1482,-3.1482,-3.1482,-3.1482,-3.1482,-3.1482,-3.1482,-3.1482,-3.1704,-3.2168,-3.2392,-3.2706,-3.3155,-3.3593,-3.4226,-3.5208,-3.5979,-3.7041,-3.8546,-3.7385,-3.7002,-3.7567,-3.7567,-3.7449,-3.7229,-3.7229,-3.7229,-3.7229,-3.7229,-3.7229,-3.7229,-3.7229,-3.7364,-3.7601,-3.8108,-3.8464,-3.8717,-3.9225,-3.9428,-3.9428,-3.9428,-3.9428,-3.9428,-3.9428,-3.9106,-3.8667,-3.8667,-3.8328,-3.7872,-3.7652,-3.7043,-3.6434,-3.6434,-3.6045,-3.5622,-3.5622,-3.5622,-3.5622,-3.5622,-3.5622,-3.5554,-3.5334,-3.4878,-3.437,-3.3914,-3.3423,-3.2848,-3.2087,-3.1952,-3.1782,-3.1275,-3.119,-3.119,-3.119,-3.119,-3.119,-3.119,-3.119,-3.119,-3.119,-3.119,-3.1252,-3.1389,-3.1623,-3.2213,-3.321,-3.3992,-3.4898,-3.5966,-3.6973,-3.7753,-3.834,-3.8579,-3.8707,-3.8707,-3.8707,-3.8707,-3.8707,-3.8707,-3.8707,-3.8707,-3.8707,-3.8707,-3.8707,-3.8707,-3.8707,-3.8707,-3.8707,-3.8707,-3.8707,-3.8707,-3.8707,-3.8707,-3.1482,-3.1482,-3.1482,-3.1482,-3.1482,-3.1482,-3.1482,-3.1482,-3.1571,-3.1884,-3.1928,-3.2168,-3.2826,-3.314,-3.344,-3.3844,-3.4128,-3.4615,-3.5477,-3.5966,-3.6778,-3.7914,-3.7459,-3.7508,-3.8345,-3.8345,-3.8193,-3.7905,-3.7905,-3.7905,-3.7905,-3.7905,-3.7905,-3.7905,-3.7905,-3.8075,-3.8362,-3.8802,-3.9157,-3.9462,-3.9901,-4.007,-4.007,-4.007,-4.007,-4.007,-4.007,-3.9783,-3.9428,-3.9428,-3.8937,-3.8345,-3.8345,-3.7821,-3.7161,-3.6874,-3.6451,-3.6011,-3.5707,-3.5622,-3.5622,-3.5622,-3.5622,-3.5622,-3.5622,-3.5267,-3.4844,-3.4556,-3.415,-3.3609,-3.2865,-3.273,-3.2577,-3.2138,-3.1816,-3.163,-3.163,-3.1376,-3.119,-3.119,-3.119,-3.119,-3.119,-3.119,-3.119,-3.119,-3.1684,-3.2314,-3.3045,-3.4164,-3.5172,-3.6132,-3.7112,-3.789,-3.8382,-3.8578,-3.8707,-3.8707,-3.8707,-3.8707,-3.8707,-3.8707,-3.8707,-3.8707,-3.8707,-3.8707,-3.8707,-3.8707,-3.8707,-3.8707,-3.8707,-3.8707,-3.8707,-3.8707,-3.8707,-3.8707,-3.1482,-3.1482,-3.1482,-3.1482,-3.1482,-3.1482,-3.1482,-3.1526,-3.1839,-3.2437,-3.2557,-3.2856,-3.3514,-3.4113,-3.4502,-3.4562,-3.5145,-3.5504,-3.5504,-3.5554,-3.5894,-3.6554,-3.744,-3.8248,-3.8991,-3.904,-3.8768,-3.8108,-3.8108,-3.8108,-3.8108,-3.8108,-3.8108,-3.8108,-3.8108,-3.8464,-3.9089,-3.9089,-3.9478,-4.007,-4.007,-4.007,-4.007,-4.007,-4.007,-4.007,-4.007,-4.007,-4.007,-4.007,-3.9631,-3.9089,-3.9089,-3.8582,-3.7855,-3.7094,-3.6823,-3.6603,-3.5825,-3.5622,-3.5622,-3.5622,-3.5622,-3.5622,-3.5622,-3.5622,-3.5419,-3.4742,-3.459,-3.437,-3.3643,-3.3508,-3.3491,-3.3423,-3.2831,-3.2374,-3.2374,-3.1816,-3.136,-3.1309,-3.1292,-3.1258,-3.1207,-3.1258,-3.1292,-3.1292,-3.1968,-3.2408,-3.2517,-3.4289,-3.5347,-3.5416,-3.7041,-3.7893,-3.7893,-3.8433,-3.8707,-3.8707,-3.8707,-3.8707,-3.8707,-3.8707,-3.8707,-3.8707,-3.8707,-3.8707,-3.8707,-3.8707,-3.8707,-3.8707,-3.8707,-3.8707,-3.8707,-3.8707,-3.8707,-3.8707,-3.1482,-3.1482,-3.1482,-3.1482,-3.1482,-3.1482,-3.1482,-3.1973,-3.2362,-3.2497,-3.2961,-3.3529,-3.4188,-3.4382,-3.4696,-3.5235,-3.5415,-3.5504,-3.5504,-3.6054,-3.6446,-3.66,-3.793,-3.8734,-3.8907,-3.9547,-3.9766,-3.9597,-3.9597,-3.9597,-3.9597,-3.9597,-3.9597,-3.9597,-3.9597,-3.9698,-3.9834,-3.9834,-3.9935,-4.007,-4.007,-4.007,-4.007,-4.007,-4.007,-4.007,-4.007,-4.007,-4.007,-4.007,-3.9969,-3.9834,-3.9834,-3.9343,-3.8616,-3.7872,-3.7246,-3.6603,-3.5825,-3.5622,-3.5622,-3.5622,-3.5622,-3.5622,-3.5622,-3.5622,-3.5571,-3.5402,-3.5368,-3.5148,-3.4387,-3.4252,-3.4066,-3.3491,-3.3271,-3.3169,-3.3169,-3.3017,-3.2713,-3.2121,-3.2036,-3.1816,-3.1258,-3.1715,-3.2036,-3.2036,-3.273,-3.3406,-3.3981,-3.4816,-3.555,-3.6156,-3.729,-3.7893,-3.7893,-3.8433,-3.8707,-3.8707,-3.8707,-3.8707,-3.8707,-3.8707,-3.8707,-3.8707,-3.8707,-3.8707,-3.8707,-3.8707,-3.8707,-3.8707,-3.8707,-3.8707,-3.8707,-3.8707,-3.8707,-3.8707,-3.1482,-3.1482,-3.1482,-3.1482,-3.1482,-3.1586,-3.1958,-3.2287,-3.2736,-3.3365,-3.3754,-3.4218,-3.4891,-3.4966,-3.5115,-3.5474,-3.5504,-3.5504,-3.5504,-3.5831,-3.6054,-3.6054,-3.7557,-3.8358,-3.8358,-3.9506,-4.007,-4.007,-4.007,-4.007,-4.007,-4.007,-4.007,-4.007,-4.007,-4.007,-4.007,-4.007,-4.007,-4.007,-4.007,-4.007,-4.007,-4.007,-4.007,-4.007,-4.007,-4.007,-4.007,-4.007,-4.007,-4.007,-4.007,-3.9817,-3.9377,-3.8633,-3.7905,-3.7161,-3.6383,-3.591,-3.5622,-3.5622,-3.5622,-3.5622,-3.5622,-3.5622,-3.5622,-3.5622,-3.5622,-3.5504,-3.5115,-3.503,-3.4912,-3.4523,-3.415,-3.3931,-3.3931,-3.3626,-3.3271,-3.2865,-3.2814,-3.2662,-3.229,-3.2594,-3.2814,-3.2814,-3.3508,-3.4083,-3.4472,-3.5113,-3.56,-3.6011,-3.6786,-3.7193,-3.7193,-3.7929,-3.83,-3.83,-3.8578,-3.8707,-3.8707,-3.8707,-3.8707,-3.8707,-3.8707,-3.8707,-3.8707,-3.8707,-3.8707,-3.8707,-3.8707,-3.8707,-3.8707,-3.8707,-3.8707,-3.8707,-3.1482,-3.1482,-3.1482,-3.1482,-3.1571,-3.1884,-3.2437,-3.2706,-3.3245,-3.4322,-3.4577,-3.4861,-3.5444,-3.5504,-3.5504,-3.5504,-3.5504,-3.5504,-3.5504,-3.5504,-3.5504,-3.5504,-3.6829,-3.7632,-3.7822,-3.9172,-3.9952,-4.007,-4.007,-4.007,-4.007,-4.007,-4.007,-4.007,-4.007,-4.007,-4.007,-4.007,-4.007,-4.007,-4.007,-4.007,-4.007,-4.007,-4.007,-4.007,-4.007,-4.007,-4.007,-4.007,-4.007,-4.007,-4.007,-4.007,-3.9935,-3.9208,-3.8481,-3.7736,-3.6992,-3.6214,-3.5622,-3.5622,-3.5622,-3.5622,-3.5622,-3.5622,-3.5622,-3.5622,-3.5622,-3.5622,-3.5622,-3.5622,-3.5622,-3.5622,-3.5098,-3.4692,-3.4692,-3.4167,-3.3744,-3.3609,-3.3491,-3.3406,-3.3406,-3.3508,-3.3592,-3.3592,-3.4269,-3.4692,-3.4692,-3.5284,-3.5622,-3.5622,-3.6139,-3.6374,-3.6374,-3.7305,-3.779,-3.779,-3.8234,-3.8546,-3.8707,-3.8707,-3.8707,-3.8707,-3.8707,-3.8707,-3.8707,-3.8707,-3.8707,-3.8707,-3.8707,-3.8707,-3.8707,-3.8707,-3.8707,-3.8707,-3.1482,-3.1482,-3.1482,-3.1482,-3.2003,-3.2422,-3.2497,-3.3484,-3.4277,-3.4457,-3.4996,-3.54,-3.5489,-3.5504,-3.5504,-3.5504,-3.5504,-3.5504,-3.5504,-3.5504,-3.5504,-3.5504,-3.629,-3.71,-3.7748,-3.8635,-3.9368,-4.007,-4.007,-4.007,-4.007,-4.007,-4.007,-4.007,-4.007,-4.007,-4.007,-4.007,-4.007,-4.007,-4.007,-4.007,-4.007,-4.007,-4.007,-4.007,-4.007,-4.007,-4.007,-4.007,-4.007,-4.007,-4.007,-4.007,-3.9935,-3.9208,-3.8481,-3.7736,-3.6992,-3.6214,-3.5622,-3.5622,-3.5622,-3.5622,-3.5622,-3.5622,-3.5622,-3.5622,-3.5622,-3.5622,-3.5622,-3.5622,-3.5622,-3.5622,-3.5537,-3.547,-3.547,-3.5385,-3.5081,-3.4421,-3.3795,-3.3406,-3.3406,-3.3981,-3.4336,-3.4336,-3.5047,-3.547,-3.547,-3.5571,-3.5622,-3.5622,-3.6139,-3.6374,-3.6374,-3.6981,-3.7285,-3.7285,-3.7377,-3.7861,-3.8707,-3.8707,-3.8707,-3.8707,-3.8707,-3.8707,-3.8707,-3.8707,-3.8707,-3.8707,-3.8707,-3.8707,-3.8707,-3.8707,-3.8707,-3.8707,-3.1482,-3.1482,-3.1482,-3.1482,-3.1721,-3.2093,-3.2452,-3.332,-3.4068,-3.4427,-3.507,-3.5504,-3.5504,-3.5504,-3.5504,-3.5504,-3.5504,-3.5504,-3.5504,-3.5504,-3.5504,-3.5504,-3.6228,-3.6798,-3.7144,-3.7905,-3.8486,-3.8832,-3.9679,-4.007,-4.007,-4.007,-4.007,-4.007,-4.007,-4.007,-4.007,-4.007,-4.007,-4.007,-4.007,-4.007,-4.007,-4.007,-4.007,-4.007,-4.007,-4.007,-4.007,-4.007,-4.007,-4.007,-4.007,-4.007,-4.002,-3.9698,-3.9089,-3.8345,-3.7601,-3.684,-3.6163,-3.5723,-3.5622,-3.5622,-3.5622,-3.5622,-3.5622,-3.5622,-3.5622,-3.5622,-3.5622,-3.5622,-3.5622,-3.5622,-3.5622,-3.5622,-3.5622,-3.5622,-3.5504,-3.5165,-3.4844,-3.4641,-3.4641,-3.4928,-3.5115,-3.5115,-3.5436,-3.5622,-3.5622,-3.5622,-3.5622,-3.5622,-3.581,-3.5941,-3.5941,-3.6498,-3.6764,-3.6764,-3.7076,-3.756,-3.8249,-3.8249,-3.8433,-3.8707,-3.8707,-3.8707,-3.8707,-3.8707,-3.8707,-3.8707,-3.8707,-3.8707,-3.8707,-3.8707,-3.8707,-3.8707]}]]